[[{"header":{"parameterUnit":"m.s-1","parameterCategory":1,"la1":31.0,"la2":29.5877,"lo1":-88.7671,"lo2":-86.6584,"dy":0.0162,"dx":0.0185,"nx":115,"ny":88,"refTime":"2023-04-15T06:00:00:Z","depth":0,"parameterNumber":2,"parameterNumberName":"U-component_of_WINDS"},"data":[0.0,0.0,0.0,0.0,0.0,0.0,0.0,0.0,0.0,0.0,0.0,0.0,0.0,0.0,0.0,0.0,0.0,0.0,0.0,0.0,0.0,0.0,0.0,0.0,0.0,0.0,0.0,0.0,0.0,0.0,0.0,0.0,0.0,0.0,0.0,0.0,0.0,0.0,0.0,0.0,0.0,0.0,0.0,0.0,0.0,0.0,0.0,0.0,0.0,0.0,0.0,0.0,0.0,0.0,0.0,0.0,0.0,0.0,0.0,0.0,0.0,0.0,0.0,0.0,0.0,0.0,0.0,0.0,0.0,0.0,0.0,0.0,0.0,0.0,0.0,0.0,0.0,0.0,0.0,0.0,0.0,0.0,0.0,0.0,0.0,0.0,0.0,0.0,0.0,0.0,0.0,0.0,0.0,0.0,0.0,0.0,0.0,0.0,0.0,0.0,0.0,0.0,0.0,0.0,0.0,0.0,0.0,0.0,0.0,0.0,0.0,0.0,0.0,0.0,0.0,0.0,0.0,0.0,0.0,0.0,0.0,0.0,0.0,0.0,0.0,0.0,0.0,0.0,0.0,0.0,0.0,0.0,0.0,0.0,0.0,0.0,0.0,0.0,0.0,0.0,0.0,0.0,0.0,0.0,0.0,0.0,0.0,0.0,0.0,0.0,0.0,0.0,0.0,0.0,0.0,0.0,0.0,0.0,0.0,0.0,0.0,0.0,0.0,0.0,0.0,0.0,0.0,0.0,0.0,0.0,0.0,0.0,0.0,0.0,0.0,0.0,0.0,0.0,0.0,0.0,0.0,0.0,0.0,0.0,0.0,0.0,0.0,0.0,0.0,0.0,0.0,0.0,0.0,0.0,0.0,0.0,0.0,0.0,0.0,0.0,0.0,0.0,0.0,0.0,0.0,0.0,0.0,0.0,0.0,0.0,0.0,0.0,0.0,0.0,0.0,0.0,0.0,0.0,0.0,0.0,0.0,0.0,0.0,0.0,0.0,0.0,0.0,0.0,0.0,0.0,0.0,0.0,0.0,0.0,0.0,0.0,0.0,0.0,0.0,0.0,0.0,0.0,0.0,0.0,0.0,0.0,0.0,0.0,0.0,0.0,0.0,0.0,0.0,0.0,0.0,0.0,0.0,0.0,0.0,0.0,0.0,0.0,0.0,0.0,0.0,0.0,0.0,0.0,0.0,0.0,0.0,0.0,0.0,0.0,0.0,0.0,0.0,0.0,0.0,0.0,0.0,0.0,0.0,0.0,0.0,0.0,0.0,0.0,0.0,0.0,0.0,0.0,0.0,0.0,0.0,0.0,0.0,0.0,0.0,0.0,0.0,0.0,0.0,0.0,0.0,0.0,0.0,0.0,0.0,0.0,0.0,0.0,0.0,0.0,0.0,0.0,0.0,0.0,0.0,0.0,0.0,0.0,0.0,0.0,0.0,0.0,0.0,0.0,0.0,0.0,0.0,0.0,0.0,0.0,0.0,0.0,0.0,0.0,0.0,0.0,0.0,0.0,0.0,0.0,0.0,0.0,0.0,0.0,0.0,0.0,0.0,0.0,0.0,0.0,0.0,0.0,0.0,0.0,0.0,0.0,0.0,0.0,0.0,0.0,0.0,0.0,0.0,0.0,0.0,0.0,0.0,0.0,0.0,0.0,0.0,0.0,0.0,0.0,0.0,0.0,0.0,0.0,0.0,0.0,0.0,0.0,0.0,0.0,0.0,0.0,0.0,0.0,0.0,0.0,0.0,0.0,0.0,0.0,0.0,0.0,0.0,0.0,0.0,0.0,0.0,0.0,0.0,0.0,0.0,0.0,0.0,0.0,0.0,0.0,0.0,0.0,0.0,0.0,0.0,0.0,0.0,0.0,0.0,0.0,0.0,0.0,0.0,0.0,0.0,0.0,0.0,0.0,0.0,0.0,0.0,0.0,0.0,0.0,0.0,0.0,0.0,0.0,0.0,0.0,0.0,0.0,0.0,0.0,0.0,0.0,0.0,0.0,0.0,0.0,0.0,0.0,0.0,0.0,0.0,0.0,0.0,0.0,0.0,0.0,0.0,0.0,0.0,0.0,0.0,0.0,0.0,0.0,0.0,0.0,0.0,0.0,0.0,0.0,0.0,0.0,0.0,0.0,0.0,0.0,0.0,0.0,0.0,0.0,0.0,0.0,0.0,0.0,0.0,0.0,0.0,0.0,0.0,0.0,0.0,0.0,0.0,0.0,0.0,0.0,0.0,0.0,0.0,0.0,0.0,0.0,0.0,0.0,0.0,0.0,0.0,0.0,0.0,0.0,0.0,0.0,0.0,0.0,0.0,0.0,0.0,0.0,0.0,0.0,0.0,0.0,0.0,0.0,0.0,0.0,0.0,0.0,0.0,0.0,0.0,0.0,0.0,0.0,0.0,0.0,0.0,0.0,0.0,0.0,0.0,0.0,0.0,0.0,0.0,0.0,0.0,0.0,0.0,0.0,0.0,0.0,0.0,0.0,0.0,0.0,0.0,0.0,0.0,0.0,0.0,0.0,0.0,0.0,0.0,0.0,0.0,0.0,0.0,0.0,0.0,0.0,0.0,0.0,0.0,0.0,0.0,0.0,0.0,0.0,0.0,0.0,0.0,0.0,0.0,0.0,0.0,0.0,0.0,0.0,0.0,0.0,0.0,0.0,0.0,0.0,0.0,0.0,0.0,0.0,0.0,0.0,0.0,0.0,0.0,0.0,0.0,0.0,0.0,0.0,0.0,0.0,0.0,0.0,0.0,0.0,0.0,0.0,0.0,0.0,0.0,0.0,0.0,0.0,0.0,0.0,0.0,0.0,0.0,0.0,0.0,0.0,0.0,0.0,0.0,0.0,0.0,0.0,0.0,0.0,0.0,0.0,0.0,0.0,0.0,0.0,0.0,0.0,0.0,0.0,0.0,0.0,0.0,0.0,0.0,0.0,0.0,0.0,0.0,0.0,0.0,0.0,0.0,0.0,0.0,0.0,0.0,0.0,0.0,0.0,0.0,0.0,0.0,0.0,0.0,0.0,0.0,0.0,0.0,0.0,0.0,0.0,0.0,0.0,0.0,0.0,0.0,0.0,0.0,0.0,0.0,0.0,0.0,0.0,0.0,0.0,0.0,0.0,0.0,0.0,0.0,0.0,0.0,0.0,0.0,0.0,0.0,0.0,0.0,0.0,0.0,0.0,0.0,0.0,0.0,0.0,0.0,0.0,0.0,0.0,0.0,0.0,0.0,0.0,0.0,0.0,0.0,0.0,0.0,0.0,0.0,0.0,0.0,0.0,0.0,0.0,0.0,0.0,0.0,0.0,0.0,0.0,0.0,0.0,0.0,0.0,0.0,0.0,0.0,0.0,0.0,0.0,0.0,0.0,0.0,0.0,0.0,0.0,0.0,0.0,0.0,0.0,0.0,0.0,0.0,0.0,0.0,0.0,0.0,0.0,0.0,0.0,0.0,0.0,0.0,0.0,0.0,0.0,0.0,0.0,0.0,0.0,0.0,0.0,0.0,0.0,0.0,0.0,0.0,0.0,0.0,0.0,0.0,0.0,0.0,0.0,0.0,0.0,0.0,0.0,0.0,0.0,0.0,0.0,0.0,0.0,0.0,0.0,0.0,0.0,0.0,0.0,0.0,0.0,0.0,0.0,0.0,0.0,0.0,0.0,0.0,0.0,0.0,0.0,0.0,0.0,0.0,0.0,0.0,0.0,0.0,0.0,0.0,0.0,0.0,0.0,0.0,0.0,0.0,0.0,0.0,0.0,0.0,0.0,0.0,0.0,0.0,0.0,0.0,0.0,0.0,0.0,0.0,0.0,0.0,0.0,0.0,0.0,0.0,0.0,0.0,0.0,0.0,0.0,0.0,0.0,0.0,0.0,0.0,0.0,0.0,0.0,0.0,0.0,0.0,0.0,0.0,0.0,0.0,0.0,0.0,0.0,0.0,0.0,0.0,0.0,0.0,0.0,0.0,0.0,0.0,0.0,0.0,0.0,0.0,0.0,0.0,0.0,0.0,0.0,0.0,0.0,0.0,0.0,0.0,0.0,0.0,0.0,0.0,0.0,0.0,0.0,0.0,0.0,0.0,0.0,0.0,0.0,0.0,0.0,0.0,0.0,0.0,0.0,0.0,0.0,0.0,0.0,0.0,0.0,0.0,0.0,0.0,0.0,0.0,0.0,0.0,0.0,0.0,0.0,0.0,0.0,0.0,0.0,0.0,0.0,0.0,0.0,0.0,0.0,0.0,0.0,0.0,0.0,0.0,0.0,0.0,0.0,1.0319,0.0,0.0,0.0,0.0,0.0,0.0,0.0,0.0,0.0,0.0,0.0,0.0,0.0,0.0,0.0,0.0,0.0,0.0,0.0,0.0,0.0,0.0,0.0,0.0,0.0,0.0,0.0,0.0,0.0,0.0,0.0,0.0,0.0,0.0,0.0,0.0,0.0,0.0,0.0,0.0,0.0,0.0,0.0,0.0,0.0,0.0,0.0,0.0,0.0,0.0,0.0,0.0,0.0,0.0,0.0,0.0,0.0,0.0,0.0,0.0,0.0,0.0,0.0,0.0,0.0,0.0,0.0,0.0,0.0,0.0,0.0,0.0,0.0,0.0,0.0,0.0,0.0,0.0,0.0,0.0,0.0,0.0,0.0,0.0,0.0,0.0,0.0,0.0,0.0,0.0,0.0,0.0,0.0,0.0,0.0,0.0,0.0,0.0,0.0,0.0,0.0,0.0,0.0,0.0,0.0,0.0,0.0,0.0,0.0,0.0,1.0228,1.0245,1.0293,1.0321,1.033,0.0,0.0,0.0,0.0,0.0,0.0,0.0,0.0,0.0,0.0,0.0,0.0,0.0,0.0,0.0,0.0,0.0,0.0,0.0,0.0,0.0,0.0,0.0,0.0,0.0,0.0,0.0,0.0,0.0,0.0,0.0,0.0,0.0,0.0,0.0,0.0,0.0,0.0,0.0,0.0,0.0,0.0,0.0,0.0,0.0,0.0,0.0,0.0,0.0,0.0,0.0,0.0,0.0,0.0,0.0,0.0,0.0,0.0,0.0,0.0,0.0,0.0,0.0,0.0,0.0,0.0,0.0,0.0,0.0,0.0,0.0,0.0,0.0,0.0,0.0,0.0,0.0,0.0,0.0,0.0,0.0,0.0,0.0,0.0,0.0,0.0,0.0,0.0,0.0,0.0,0.0,0.0,0.0,0.0,0.0,0.0,0.0,0.0,0.0,0.0,0.0,0.0,0.0,0.0,0.0,0.0,0.0,0.0,0.0,0.0,0.0,0.0,1.032,1.0485,1.0878,0.0,0.0,0.0,0.0,0.0,0.0,0.0,0.0,0.0,0.0,0.0,0.0,0.0,0.0,0.0,0.0,0.0,0.0,0.0,0.0,0.0,0.0,0.0,0.0,0.0,0.0,0.0,0.0,0.0,0.0,0.0,0.0,0.0,0.0,0.0,0.0,0.0,0.0,0.0,0.0,0.0,0.0,0.0,0.0,0.0,0.0,0.0,0.0,0.0,0.0,0.0,0.0,0.0,0.0,0.0,0.0,0.0,0.0,0.0,0.0,0.0,0.0,0.0,0.0,0.0,0.0,0.0,0.0,0.0,0.0,0.0,0.0,0.0,0.0,0.0,0.0,0.0,0.0,0.0,0.0,0.0,0.0,0.0,0.0,0.0,0.0,0.0,0.0,0.0,0.0,0.0,0.0,0.0,0.0,0.0,0.0,0.0,0.0,0.0,0.0,0.0,0.0,0.0,0.0,0.0,0.0,0.0,0.0,0.0,0.0,1.0287,1.0319,1.0307,0.0,1.2447,0.0,0.0,0.0,0.0,0.0,0.0,0.0,0.0,0.0,0.0,0.0,0.0,0.0,0.0,0.0,0.0,0.0,0.0,0.0,0.0,0.0,0.0,0.0,0.0,0.0,0.0,0.0,0.0,0.0,0.0,0.0,0.0,0.0,0.0,0.0,0.0,0.0,0.0,0.0,0.0,0.0,0.0,0.0,0.0,0.0,0.0,0.0,0.0,0.0,0.0,0.0,0.0,0.0,0.0,0.0,0.0,0.0,0.0,0.0,0.0,0.0,0.0,0.0,0.0,0.0,0.0,0.0,0.0,0.0,0.0,0.0,0.0,0.0,0.0,0.0,0.0,0.0,0.0,0.0,0.0,0.0,0.0,0.0,0.0,0.0,0.0,0.0,0.0,0.0,0.0,0.0,0.0,0.0,0.0,0.0,0.0,0.0,0.0,0.0,0.0,0.0,0.0,0.0,0.0,0.0,0.0,0.0,0.0,0.0,0.0,1.0315,1.0309,1.0312,1.1087,0.0,0.0,0.0,0.0,0.0,0.0,0.0,0.0,0.0,0.0,0.0,0.0,0.0,0.0,0.0,0.0,0.0,0.0,0.0,0.0,0.0,0.0,0.0,0.0,0.0,0.0,0.0,0.0,0.0,0.0,0.0,0.0,0.0,0.0,0.0,0.0,0.0,0.0,0.0,0.0,0.0,0.0,0.0,0.0,0.0,0.0,0.0,0.0,0.0,0.0,0.0,0.0,0.0,0.0,0.0,0.0,0.0,0.0,0.0,0.0,0.0,0.0,0.0,0.0,0.0,0.0,0.0,0.0,0.0,0.0,0.0,0.0,0.0,0.0,0.0,0.0,0.0,0.0,0.0,0.0,0.0,0.0,0.0,0.0,0.0,0.0,0.0,0.0,0.0,0.0,0.0,0.0,0.0,0.0,0.0,0.0,0.0,0.0,0.0,0.0,0.0,0.0,0.0,0.0,0.0,0.0,0.0,0.0,0.0,0.0,1.0311,1.0324,1.0332,1.054,1.1329,1.2748,0.0,0.0,0.0,0.0,0.0,0.0,0.0,0.0,0.0,0.0,0.0,0.0,0.0,0.0,0.0,0.0,0.0,0.0,0.0,0.0,0.0,0.0,0.0,0.0,0.0,0.0,0.0,0.0,0.0,0.0,0.0,0.0,0.0,0.0,0.0,0.0,0.0,0.0,0.0,0.0,0.0,0.0,0.0,0.0,0.0,0.0,0.0,0.0,0.0,0.0,0.0,0.0,0.0,0.0,0.0,0.0,0.0,0.0,0.0,0.0,0.0,0.0,0.0,0.0,0.0,0.0,0.0,0.0,0.0,0.0,0.0,0.0,0.0,0.0,0.0,0.0,0.0,0.0,0.0,0.0,0.0,0.0,0.0,0.0,0.0,0.0,0.0,0.0,0.0,0.0,0.0,0.0,0.0,0.0,0.0,0.0,0.0,0.0,0.0,0.0,0.0,0.0,0.0,0.0,0.0,0.0,0.0,0.0,1.0347,1.0356,1.0311,1.0361,1.1097,1.1949,0.0,0.0,0.0,0.0,0.0,0.0,0.0,0.0,0.0,0.0,0.0,0.0,0.0,0.0,0.0,0.0,0.0,0.0,0.0,0.0,0.0,0.0,0.0,0.0,0.0,0.0,0.0,0.0,0.0,0.0,0.0,0.0,0.0,0.0,0.0,0.0,0.0,0.0,0.0,0.0,0.0,0.0,0.0,0.0,0.0,0.0,0.0,0.0,0.0,0.0,0.0,0.0,0.0,0.0,0.0,0.0,0.0,0.0,0.0,0.0,0.0,0.0,0.0,0.0,0.0,0.0,0.0,0.0,0.0,0.0,0.0,0.0,0.0,0.0,0.0,0.0,0.0,0.0,0.0,0.0,0.0,0.0,0.0,0.0,0.0,0.0,0.0,0.0,0.0,0.0,0.0,0.0,0.0,0.0,0.0,0.0,0.0,0.0,0.0,0.0,0.0,0.0,0.0,0.0,0.0,0.0,0.0,0.0,0.0,1.196,1.1931,1.1913,1.1917,1.2204,1.2762,0.0,0.0,0.0,0.0,0.0,0.0,0.0,0.0,0.0,0.0,0.0,0.0,0.0,0.0,0.0,0.0,0.0,0.0,0.0,0.0,0.0,0.0,0.0,0.0,0.0,0.0,0.0,0.0,0.0,0.0,0.0,0.0,0.0,0.0,0.0,0.0,0.0,0.0,0.0,0.0,0.0,0.0,0.0,0.0,0.0,0.0,0.0,0.0,0.0,0.0,0.0,0.0,0.0,0.0,0.0,0.0,0.0,0.0,0.0,0.0,0.0,0.0,0.0,0.0,0.0,0.0,0.0,0.0,0.0,0.0,0.0,0.0,0.0,0.0,0.0,0.0,0.0,0.0,0.0,0.0,0.0,0.0,0.0,0.0,0.0,0.0,0.0,0.0,0.0,0.0,0.0,0.0,0.0,0.0,0.0,0.0,0.0,0.0,0.0,0.0,0.0,0.0,0.0,0.0,0.0,0.0,0.0,0.0,0.0,1.2906,0.0,1.2784,1.2808,1.3056,1.35,0.0,0.0,0.0,0.0,0.0,0.0,0.0,0.0,0.0,0.0,0.0,0.0,0.0,0.0,0.0,0.0,0.0,0.0,0.0,0.0,0.0,0.0,0.0,0.0,0.0,0.0,0.0,0.0,0.0,0.0,0.0,0.0,0.0,0.0,0.0,0.0,0.0,0.0,0.0,0.0,0.0,0.0,0.0,0.0,0.0,0.0,0.0,0.0,0.0,0.0,0.0,0.0,0.0,0.0,0.0,0.0,0.0,0.0,0.0,0.0,0.0,0.0,0.0,0.0,0.0,0.0,0.0,0.0,0.0,0.0,0.0,0.0,0.0,0.0,0.0,0.0,0.0,0.0,0.0,0.0,0.0,0.0,0.0,0.0,0.0,0.0,0.0,0.0,0.0,0.0,0.0,0.0,0.0,0.0,0.0,0.0,0.0,0.0,0.0,0.0,0.0,0.0,0.0,0.0,0.0,0.0,0.0,0.0,1.2966,1.2949,1.2921,1.2925,1.2851,1.3675,1.4114,0.0,0.0,0.0,0.0,0.0,0.0,0.0,0.0,0.0,0.0,0.0,0.0,0.0,0.0,0.0,0.0,0.0,0.0,0.0,0.0,0.0,0.0,0.0,0.0,0.0,0.0,0.0,0.0,0.0,0.0,0.0,0.0,0.0,0.0,0.0,0.0,0.0,0.0,0.0,0.0,0.0,0.0,0.0,0.0,0.0,0.0,0.0,0.0,0.0,0.0,0.0,0.0,0.0,0.0,0.0,0.0,0.0,0.0,0.0,0.0,0.0,0.0,0.0,0.0,0.0,0.0,0.0,0.0,0.0,0.0,0.0,0.0,0.0,0.0,0.0,0.0,0.0,0.0,0.0,0.0,0.0,0.0,0.0,0.0,0.0,0.0,0.0,0.0,0.0,0.0,0.0,0.0,0.0,0.0,0.0,0.0,0.0,0.0,0.0,0.0,0.0,0.0,0.0,0.0,0.0,0.0,0.0,0.0,0.0,1.4606,1.4594,1.4582,1.4591,1.4856,1.4982,0.0,0.0,0.0,0.0,0.0,0.0,0.0,0.0,0.0,0.0,0.0,0.0,0.0,0.0,0.0,0.0,0.0,0.0,0.0,0.0,0.0,0.0,0.0,0.0,0.0,0.0,0.0,0.0,0.0,0.0,0.0,0.0,0.0,0.0,0.0,0.0,0.0,0.0,0.0,0.0,0.0,0.0,0.0,0.0,0.0,0.0,0.0,0.0,0.0,0.0,0.0,0.0,0.0,0.0,0.0,0.0,0.0,0.0,0.0,0.0,0.0,0.0,0.0,0.0,0.0,0.0,0.0,0.0,0.0,0.0,0.0,0.0,0.0,0.0,0.0,0.0,0.0,0.0,0.0,0.0,0.0,0.0,0.0,0.0,0.0,0.0,0.0,0.0,0.0,0.0,0.0,0.0,0.0,0.0,0.0,0.0,0.0,0.0,0.0,0.0,0.0,0.0,0.0,0.0,0.0,0.0,0.0,0.0,0.0,1.5413,1.5403,1.5416,1.5409,1.5416,1.5381,1.5349,0.0,0.0,0.0,0.0,0.0,0.0,0.0,0.0,0.0,0.0,0.0,0.0,0.0,0.0,0.0,0.0,0.0,0.0,0.0,0.0,0.0,0.0,0.0,0.0,0.0,0.0,0.0,0.0,0.0,0.0,0.0,0.0,0.0,0.0,0.0,0.0,0.0,0.0,0.0,0.0,0.0,0.0,0.0,0.0,0.0,0.0,0.0,0.0,0.0,0.0,0.0,0.0,0.0,0.0,0.0,0.0,0.0,0.0,0.0,0.0,0.0,0.0,0.0,0.0,0.0,0.0,0.0,0.0,0.0,0.0,0.0,0.0,0.0,0.0,0.0,0.0,0.0,0.0,0.0,0.0,0.0,0.0,0.0,0.0,0.0,0.0,0.0,0.0,0.0,0.0,0.0,0.0,0.0,0.0,0.0,0.0,0.0,0.0,0.0,0.0,0.0,0.0,0.0,0.0,0.0,0.0,0.0,0.0,1.5474,1.5521,1.554,1.5496,1.554,1.5465,0.0,0.0,0.0,0.0,0.0,0.0,0.0,0.0,0.0,0.0,0.0,0.0,0.0,0.0,0.0,0.0,0.0,0.0,0.0,0.0,0.0,0.0,0.0,0.0,0.0,0.0,0.0,0.0,0.0,0.0,0.0,0.0,0.0,0.0,0.0,0.0,0.0,0.0,0.0,0.0,0.0,0.0,0.0,0.0,0.0,0.0,0.0,0.0,0.0,0.0,0.0,0.0,0.0,0.0,0.0,0.0,0.0,0.0,0.0,0.0,0.0,0.0,0.0,0.0,0.0,0.0,0.0,0.0,0.0,0.0,0.0,0.0,0.0,0.0,0.0,0.0,0.0,0.0,0.0,0.0,0.0,0.0,0.0,0.0,0.0,0.0,0.0,0.0,0.0,0.0,0.0,0.0,0.0,0.0,0.0,0.0,0.0,0.0,0.0,0.0,0.0,0.0,0.0,0.0,0.0,0.0,0.0,0.0,0.0,1.6381,1.6924,1.6949,1.6324,1.6903,1.693,0.0,0.0,0.0,0.0,0.0,0.0,0.0,0.0,0.0,0.0,0.0,0.0,0.0,0.0,0.0,0.0,0.0,0.0,0.0,0.0,0.0,0.0,0.0,0.0,0.0,0.0,0.0,0.0,0.0,0.0,0.0,0.0,0.0,0.0,0.0,0.0,0.0,0.0,0.0,0.0,0.0,0.0,0.0,0.0,0.0,0.0,0.0,0.0,0.0,0.0,0.0,0.0,0.0,0.0,0.0,0.0,0.0,0.0,0.0,0.0,0.0,0.0,0.0,0.0,0.0,0.0,0.0,0.0,0.0,0.0,0.0,0.0,0.0,0.0,0.0,0.0,0.0,0.0,0.0,0.0,0.0,0.0,0.0,0.0,0.0,0.0,0.0,0.0,0.0,0.0,0.0,0.0,0.0,0.0,0.0,0.0,0.0,0.0,0.0,0.0,0.0,0.0,0.0,0.0,0.0,0.0,0.0,0.0,1.6689,1.6706,1.7843,1.8192,1.7674,1.7814,1.765,0.0,0.0,0.0,0.0,0.0,0.0,0.0,0.0,0.0,0.0,0.0,0.0,0.0,0.0,0.0,0.0,0.0,0.0,0.0,0.0,0.0,0.0,0.0,0.0,0.0,0.0,0.0,0.0,0.0,0.0,0.0,0.0,0.0,0.0,0.0,0.0,0.0,0.0,0.0,0.0,0.0,0.0,0.0,0.0,0.0,0.0,0.0,0.0,0.0,0.0,0.0,0.0,0.0,0.0,0.0,0.0,0.0,0.0,0.0,0.0,0.0,0.0,0.0,0.0,0.0,0.0,0.0,0.0,0.0,0.0,0.0,0.0,0.0,0.0,0.0,0.0,0.0,0.0,0.0,0.0,0.0,0.0,0.0,0.0,0.0,0.0,0.0,0.0,0.0,0.0,0.0,0.0,0.0,0.0,0.0,0.0,0.0,0.0,0.0,0.0,0.0,0.0,0.0,0.0,0.0,0.0,0.0,0.0,1.6881,1.6979,1.8511,1.9304,1.9201,1.8528,1.8091,0.0,0.0,0.0,0.0,0.0,0.0,0.0,0.0,0.0,0.0,0.0,0.0,0.0,0.0,0.0,0.0,0.0,0.0,0.0,0.0,0.0,0.0,0.0,0.0,0.0,0.0,0.0,0.0,0.0,0.0,0.0,0.0,0.0,0.0,0.0,0.0,0.0,0.0,0.0,0.0,0.0,0.0,0.0,0.0,0.0,0.0,0.0,0.0,0.0,0.0,0.0,0.0,0.0,0.0,0.0,0.0,0.0,0.0,0.0,0.0,0.0,0.0,0.0,0.0,0.0,0.0,0.0,0.0,0.0,0.0,0.0,0.0,0.0,0.0,0.0,0.0,0.0,0.0,0.0,0.0,0.0,0.0,0.0,0.0,0.0,0.0,0.0,0.0,0.0,0.0,0.0,0.0,0.0,0.0,0.0,0.0,0.0,0.0,0.0,0.0,0.0,0.0,0.0,0.0,0.0,0.0,0.0,0.0,1.7975,1.8667,1.9634,2.0136,2.0121,1.9966,1.9554,0.0,0.0,0.0,0.0,0.0,0.0,0.0,0.0,0.0,0.0,0.0,0.0,0.0,0.0,0.0,0.0,0.0,0.0,0.0,0.0,0.0,0.0,0.0,0.0,0.0,0.0,0.0,0.0,0.0,0.0,0.0,0.0,0.0,0.0,0.0,0.0,0.0,0.0,0.0,0.0,0.0,0.0,0.0,0.0,0.0,0.0,0.0,0.0,1.9968,0.0,0.0,0.0,0.0,0.0,0.0,0.0,0.0,0.0,0.0,0.0,0.0,0.0,0.0,0.0,0.0,0.0,0.0,0.0,0.0,0.0,0.0,0.0,0.0,0.0,0.0,0.0,0.0,0.0,0.0,0.0,0.0,0.0,0.0,0.0,0.0,0.0,0.0,0.0,0.0,0.0,0.0,0.0,0.0,0.0,0.0,0.0,0.0,0.0,0.0,0.0,0.0,0.0,0.0,0.0,0.0,0.0,0.0,0.0,1.8317,1.9182,1.9978,2.0377,2.0386,2.0366,2.0141,0.0,0.0,0.0,0.0,0.0,0.0,0.0,0.0,0.0,0.0,0.0,0.0,0.0,0.0,0.0,0.0,0.0,0.0,0.0,0.0,0.0,0.0,0.0,0.0,0.0,0.0,0.0,0.0,0.0,0.0,0.0,0.0,0.0,0.0,0.0,0.0,0.0,0.0,0.0,0.0,0.0,0.0,0.0,0.0,0.0,0.0,0.0,0.0,0.0,0.0,0.0,0.0,0.0,0.0,0.0,0.0,0.0,0.0,0.0,0.0,0.0,0.0,0.0,0.0,0.0,0.0,0.0,0.0,0.0,0.0,0.0,0.0,0.0,0.0,0.0,0.0,0.0,0.0,0.0,0.0,0.0,0.0,0.0,0.0,0.0,0.0,0.0,0.0,0.0,0.0,0.0,0.0,0.0,0.0,0.0,0.0,0.0,0.0,0.0,0.0,0.0,0.0,0.0,0.0,0.0,0.0,0.0,1.7751,1.8528,1.9352,2.005,2.0396,2.0392,2.032,2.0306,2.0306,0.0,0.0,0.0,0.0,0.0,0.0,0.0,0.0,0.0,0.0,0.0,0.0,0.0,0.0,0.0,0.0,0.0,0.0,0.0,0.0,0.0,0.0,0.0,0.0,0.0,0.0,0.0,0.0,0.0,0.0,0.0,0.0,0.0,0.0,0.0,0.0,0.0,0.0,2.0411,2.0516,0.0,0.0,0.0,0.0,0.0,0.0,0.0,0.0,2.0601,0.0,0.0,0.0,0.0,0.0,0.0,0.0,0.0,0.0,0.0,0.0,0.0,0.0,0.0,0.0,0.0,0.0,0.0,0.0,0.0,0.0,0.0,0.0,0.0,0.0,0.0,0.0,0.0,0.0,0.0,0.0,0.0,0.0,0.0,0.0,0.0,0.0,0.0,0.0,0.0,0.0,0.0,0.0,0.0,0.0,0.0,0.0,0.0,0.0,0.0,0.0,0.0,0.0,0.0,0.0,0.0,1.8747,1.8935,1.9375,2.0186,2.0324,2.0372,2.0327,2.0304,2.0281,2.0227,0.0,0.0,0.0,0.0,0.0,0.0,0.0,0.0,0.0,0.0,0.0,0.0,0.0,0.0,0.0,0.0,0.0,0.0,0.0,0.0,0.0,0.0,0.0,0.0,0.0,0.0,0.0,0.0,0.0,0.0,0.0,0.0,0.0,0.0,0.0,0.0,0.0,0.0,0.0,2.0582,2.0584,0.0,0.0,0.0,0.0,0.0,0.0,0.0,0.0,2.0859,0.0,0.0,0.0,0.0,0.0,0.0,0.0,0.0,0.0,0.0,0.0,0.0,0.0,0.0,0.0,0.0,0.0,0.0,0.0,0.0,0.0,0.0,0.0,0.0,0.0,0.0,0.0,0.0,0.0,0.0,0.0,0.0,0.0,0.0,0.0,0.0,0.0,0.0,0.0,0.0,0.0,0.0,0.0,0.0,0.0,0.0,0.0,0.0,0.0,0.0,0.0,0.0,0.0,0.0,0.0,1.9114,1.9196,1.9603,2.0355,2.039,2.0379,2.0301,2.0289,2.0257,0.0,0.0,0.0,0.0,0.0,0.0,0.0,0.0,0.0,0.0,0.0,0.0,0.0,0.0,0.0,0.0,0.0,0.0,0.0,0.0,0.0,0.0,0.0,0.0,0.0,0.0,0.0,0.0,0.0,0.0,0.0,0.0,0.0,0.0,0.0,0.0,0.0,0.0,0.0,0.0,2.0605,2.0591,2.0598,0.0,0.0,0.0,0.0,0.0,0.0,2.191,2.2026,0.0,0.0,0.0,0.0,0.0,0.0,0.0,0.0,0.0,0.0,0.0,0.0,0.0,0.0,0.0,0.0,0.0,0.0,0.0,0.0,0.0,0.0,0.0,0.0,0.0,0.0,0.0,0.0,0.0,0.0,0.0,0.0,0.0,0.0,0.0,0.0,0.0,0.0,0.0,0.0,0.0,0.0,0.0,0.0,0.0,0.0,0.0,0.0,0.0,0.0,0.0,0.0,0.0,0.0,0.0,1.9425,1.9465,1.9769,2.0355,2.0379,2.036,2.0287,2.0289,2.0241,0.0,0.0,0.0,0.0,0.0,0.0,0.0,0.0,0.0,0.0,0.0,0.0,0.0,0.0,0.0,0.0,0.0,0.0,0.0,0.0,0.0,0.0,0.0,0.0,0.0,0.0,0.0,0.0,0.0,0.0,0.0,0.0,0.0,0.0,0.0,0.0,0.0,0.0,0.0,0.0,0.0,2.1105,2.1111,2.1094,0.0,0.0,0.0,0.0,2.2995,2.3111,0.0,0.0,0.0,0.0,0.0,0.0,0.0,0.0,0.0,0.0,0.0,0.0,0.0,0.0,0.0,0.0,0.0,0.0,0.0,0.0,0.0,0.0,0.0,0.0,0.0,0.0,0.0,0.0,0.0,0.0,0.0,0.0,0.0,0.0,0.0,0.0,0.0,0.0,0.0,0.0,0.0,0.0,0.0,0.0,0.0,0.0,0.0,0.0,0.0,0.0,0.0,0.0,0.0,0.0,0.0,0.0,2.0294,2.0366,2.0362,2.0394,2.0353,2.0308,2.0292,2.023,2.018,0.0,0.0,0.0,0.0,0.0,0.0,0.0,0.0,0.0,0.0,0.0,0.0,0.0,0.0,0.0,0.0,0.0,0.0,0.0,0.0,0.0,0.0,0.0,0.0,0.0,0.0,0.0,0.0,0.0,0.0,0.0,0.0,0.0,0.0,0.0,0.0,0.0,0.0,0.0,0.0,0.0,2.2807,2.2812,2.2828,2.2857,0.0,0.0,2.2995,2.3091,2.3107,0.0,0.0,0.0,0.0,0.0,0.0,0.0,0.0,0.0,0.0,0.0,0.0,0.0,0.0,0.0,0.0,0.0,0.0,0.0,0.0,0.0,0.0,0.0,0.0,0.0,0.0,0.0,0.0,0.0,0.0,0.0,0.0,0.0,0.0,0.0,0.0,0.0,0.0,0.0,0.0,0.0,0.0,0.0,0.0,0.0,0.0,0.0,0.0,0.0,0.0,0.0,0.0,0.0,0.0,0.0,2.0117,2.0488,2.0458,2.041,2.0402,2.0334,2.0287,2.0289,2.0241,2.0171,0.0,0.0,0.0,0.0,0.0,0.0,0.0,0.0,0.0,0.0,0.0,0.0,0.0,0.0,0.0,0.0,0.0,0.0,0.0,0.0,0.0,0.0,0.0,0.0,0.0,0.0,0.0,0.0,0.0,0.0,0.0,0.0,0.0,0.0,0.0,0.0,0.0,0.0,0.0,0.0,0.0,0.0,2.31,2.3095,0.0,0.0,0.0,2.4022,2.4512,0.0,0.0,0.0,0.0,0.0,0.0,0.0,0.0,0.0,0.0,0.0,0.0,0.0,0.0,0.0,0.0,0.0,0.0,0.0,0.0,0.0,0.0,0.0,0.0,0.0,0.0,0.0,0.0,0.0,0.0,0.0,0.0,0.0,0.0,0.0,0.0,0.0,0.0,0.0,0.0,0.0,0.0,0.0,0.0,0.0,0.0,0.0,0.0,0.0,0.0,0.0,0.0,0.0,0.0,0.0,0.0,0.0,2.0519,2.0663,2.0704,2.0714,2.0862,2.0928,2.09,2.0839,0.0,0.0,0.0,0.0,0.0,0.0,0.0,0.0,0.0,0.0,0.0,0.0,0.0,0.0,0.0,0.0,0.0,0.0,0.0,0.0,0.0,0.0,0.0,0.0,0.0,0.0,0.0,1.8587,0.0,0.0,0.0,0.0,0.0,0.0,0.0,0.0,0.0,0.0,0.0,0.0,0.0,0.0,2.3765,2.3755,2.3735,2.397,0.0,0.0,2.4957,2.5601,2.569,2.5704,0.0,0.0,0.0,0.0,0.0,0.0,0.0,0.0,0.0,0.0,0.0,0.0,0.0,0.0,0.0,0.0,0.0,0.0,0.0,0.0,0.0,0.0,0.0,0.0,0.0,0.0,0.0,0.0,0.0,0.0,0.0,0.0,0.0,0.0,0.0,0.0,0.0,0.0,0.0,0.0,0.0,0.0,0.0,0.0,0.0,0.0,0.0,0.0,0.0,0.0,0.0,0.0,0.0,0.0,0.0,2.0531,2.1238,2.1597,2.1559,2.2303,2.2681,2.2555,2.2527,2.2478,0.0,0.0,0.0,0.0,0.0,0.0,0.0,0.0,0.0,0.0,0.0,0.0,0.0,0.0,0.0,0.0,0.0,0.0,0.0,0.0,0.0,0.0,0.0,0.0,0.0,0.0,0.0,0.0,0.0,0.0,0.0,0.0,0.0,0.0,0.0,0.0,0.0,0.0,0.0,0.0,0.0,2.5514,2.5531,2.5512,2.5529,0.0,0.0,2.564,2.569,2.5701,2.5694,2.5694,0.0,0.0,0.0,0.0,0.0,0.0,0.0,0.0,0.0,0.0,0.0,0.0,0.0,0.0,0.0,0.0,0.0,0.0,0.0,0.0,0.0,0.0,0.0,0.0,0.0,0.0,0.0,0.0,0.0,0.0,0.0,0.0,0.0,0.0,0.0,0.0,0.0,0.0,0.0,0.0,0.0,0.0,0.0,0.0,0.0,0.0,0.0,0.0,0.0,0.0,0.0,0.0,0.0,2.1545,2.2041,2.2344,2.2469,2.2422,2.2721,2.2827,2.27,2.271,2.267,0.0,0.0,0.0,0.0,0.0,0.0,0.0,0.0,0.0,0.0,0.0,0.0,0.0,0.0,0.0,0.0,0.0,0.0,0.0,0.0,0.0,0.0,0.0,0.0,0.0,0.0,0.0,0.0,2.0401,2.0815,2.1348,0.0,0.0,0.0,0.0,0.0,0.0,0.0,0.0,0.0,0.0,2.5687,2.5687,2.5705,0.0,0.0,2.569,2.5701,2.5701,2.5691,2.5707,2.5703,2.5699,0.0,0.0,0.0,0.0,0.0,0.0,0.0,0.0,0.0,0.0,0.0,0.0,0.0,0.0,0.0,0.0,0.0,0.0,0.0,0.0,0.0,0.0,0.0,0.0,0.0,0.0,0.0,0.0,0.0,0.0,0.0,0.0,0.0,0.0,0.0,0.0,0.0,0.0,0.0,0.0,0.0,0.0,0.0,0.0,0.0,0.0,0.0,0.0,0.0,0.0,0.0,0.0,2.2435,2.3001,2.3236,2.3334,2.3269,2.3523,2.358,2.3458,2.3438,2.3405,0.0,0.0,0.0,0.0,0.0,0.0,0.0,0.0,0.0,0.0,0.0,0.0,0.0,0.0,0.0,0.0,0.0,0.0,0.0,0.0,0.0,0.0,0.0,0.0,0.0,0.0,0.0,0.0,2.1196,2.169,2.2557,0.0,0.0,0.0,0.0,0.0,0.0,0.0,0.0,0.0,0.0,2.5687,2.5687,2.5703,2.5698,2.5696,2.5704,2.5691,2.5691,2.5703,2.5699,2.5699,0.0,0.0,0.0,0.0,0.0,0.0,0.0,0.0,0.0,0.0,0.0,0.0,0.0,0.0,0.0,0.0,0.0,0.0,0.0,0.0,0.0,0.0,0.0,0.0,0.0,0.0,0.0,0.0,0.0,0.0,1.9167,0.0,0.0,0.0,0.0,0.0,0.0,0.0,0.0,0.0,0.0,0.0,0.0,0.0,0.0,0.0,0.0,0.0,0.0,0.0,0.0,0.0,0.0,2.2998,2.3036,2.3806,2.414,2.4102,2.4906,2.5226,2.5097,2.5152,2.5115,2.5025,0.0,0.0,0.0,0.0,0.0,0.0,0.0,0.0,0.0,0.0,0.0,0.0,0.0,0.0,0.0,0.0,0.0,0.0,0.0,0.0,0.0,0.0,0.0,0.0,0.0,0.0,2.1701,2.2537,2.3365,0.0,0.0,0.0,0.0,0.0,0.0,0.0,0.0,0.0,0.0,2.5687,2.5687,2.5726,2.5703,2.5735,2.5749,2.574,2.5726,2.5757,2.5738,2.5699,0.0,0.0,0.0,0.0,0.0,0.0,0.0,0.0,0.0,0.0,0.0,0.0,0.0,0.0,0.0,0.0,0.0,0.0,0.0,0.0,0.0,0.0,0.0,0.0,0.0,0.0,0.0,1.8918,1.9484,0.0,0.0,0.0,0.0,0.0,0.0,0.0,0.0,0.0,0.0,0.0,2.2168,2.2192,0.0,0.0,0.0,0.0,0.0,0.0,0.0,0.0,0.0,0.0,0.0,0.0,2.4114,2.4646,2.4922,2.502,2.4971,2.5216,2.5293,2.5212,2.5209,2.5172,2.5101,0.0,0.0,0.0,0.0,0.0,0.0,0.0,0.0,0.0,0.0,0.0,0.0,0.0,0.0,0.0,0.0,0.0,0.0,0.0,0.0,0.0,0.0,0.0,0.0,0.0,2.2325,0.0,0.0,0.0,0.0,0.0,0.0,0.0,0.0,0.0,0.0,0.0,2.5694,2.5689,2.5687,2.592,2.6481,2.6554,2.6763,0.0,0.0,0.0,0.0,0.0,0.0,0.0,0.0,0.0,0.0,0.0,0.0,0.0,0.0,2.718,2.6599,2.6502,2.6658,2.7266,0.0,0.0,0.0,0.0,0.0,0.0,0.0,0.0,0.0,0.0,0.0,0.0,0.0,0.0,0.0,0.0,2.0287,0.0,0.0,0.0,0.0,0.0,0.0,0.0,0.0,2.2737,2.3014,2.3014,2.3038,2.3232,0.0,2.3524,2.3679,0.0,0.0,0.0,0.0,0.0,0.0,0.0,0.0,2.4994,2.5499,2.5515,2.5468,2.5406,2.5332,2.5273,2.5212,2.5176,2.5156,2.5082,2.5018,2.4991,0.0,0.0,0.0,0.0,0.0,0.0,0.0,0.0,0.0,0.0,0.0,0.0,0.0,0.0,0.0,0.0,0.0,0.0,0.0,0.0,0.0,0.0,0.0,2.3548,0.0,0.0,0.0,0.0,0.0,0.0,0.0,0.0,0.0,2.5754,2.5964,2.6154,2.6154,2.6405,2.6813,2.7354,0.0,0.0,0.0,0.0,0.0,0.0,0.0,2.8188,2.8188,2.8188,2.8188,2.8188,2.8188,2.8188,2.8188,0.0,0.0,2.7448,2.7355,2.753,2.8095,2.8188,2.8286,2.8602,2.8656,2.8753,0.0,0.0,0.0,0.0,0.0,0.0,0.0,0.0,2.0208,2.0291,0.0,2.0408,0.0,0.0,0.0,0.0,0.0,2.3023,0.0,0.0,2.3109,2.3076,2.3115,2.3134,2.3542,2.4313,2.4339,2.476,2.5504,2.4729,0.0,0.0,0.0,0.0,0.0,0.0,2.5551,2.5518,2.5488,2.5448,2.5395,2.5332,2.5252,2.5182,2.5137,2.5101,2.5082,2.5018,2.4991,2.4991,2.4991,0.0,0.0,0.0,0.0,0.0,0.0,0.0,0.0,0.0,0.0,0.0,0.0,0.0,0.0,0.0,0.0,0.0,0.0,0.0,0.0,2.3898,0.0,0.0,0.0,0.0,0.0,0.0,0.0,0.0,0.0,0.0,2.5939,2.6544,2.703,2.7025,0.0,0.0,0.0,0.0,2.8267,2.8306,2.8294,2.8305,2.8325,2.8305,2.8305,2.8305,0.0,0.0,2.8286,2.8286,2.8344,2.8286,2.8368,2.8286,2.831,2.8271,2.8271,2.8349,2.8407,2.8598,2.9318,2.9533,2.9766,1.9898,0.0,0.0,0.0,0.0,2.005,2.0088,2.0155,2.0795,2.1081,2.1203,2.1805,0.0,0.0,0.0,0.0,0.0,0.0,2.3857,2.3889,2.4548,2.4865,2.4845,2.4857,2.4999,2.5232,2.5226,2.5349,2.5582,2.5354,2.5218,2.5238,0.0,0.0,0.0,0.0,2.5518,2.5492,2.5445,2.5423,2.5387,2.5293,2.5209,2.513,2.5107,2.5089,2.5025,2.5004,2.4991,2.4991,2.4991,0.0,0.0,0.0,0.0,0.0,0.0,0.0,0.0,0.0,0.0,0.0,0.0,0.0,0.0,0.0,0.0,0.0,0.0,0.0,2.4846,2.508,2.5254,0.0,0.0,0.0,0.0,0.0,0.0,0.0,0.0,0.0,2.7527,2.7702,2.7855,0.0,0.0,2.8457,2.9032,2.9125,2.9355,2.997,0.0,0.0,0.0,3.0039,3.0059,3.0059,3.0059,3.0059,3.0059,3.0059,3.0059,3.0039,3.0044,3.0059,3.002,2.9533,2.9377,2.9883,3.0059,3.0117,3.0351,3.0424,3.0497,2.0171,2.0446,2.0134,2.0202,2.0496,2.0515,2.0707,2.1089,2.1604,2.1864,2.1972,2.2499,2.2921,2.3295,2.3667,0.0,0.0,0.0,2.4721,2.4728,2.5305,2.5551,2.557,2.5577,2.557,2.5609,2.5609,2.5595,2.5601,2.5601,2.5595,2.5609,0.0,0.0,2.5609,2.5525,2.5511,2.551,2.5429,2.5397,2.536,2.5243,2.5176,2.5094,2.5076,2.507,2.5012,2.5004,2.4991,2.4991,2.4991,2.4991,0.0,0.0,0.0,0.0,0.0,0.0,0.0,0.0,0.0,0.0,0.0,2.548,0.0,0.0,0.0,0.0,2.5609,2.5607,2.5609,2.5595,0.0,0.0,0.0,0.0,0.0,0.0,0.0,2.7472,2.8213,2.8716,2.8716,2.9008,2.911,2.8762,2.9016,2.9441,2.9959,0.0,3.0204,3.0726,3.0799,3.0799,3.0799,3.0799,3.0799,3.0799,3.0799,3.0799,3.0799,3.0799,3.0799,3.0799,3.0799,3.0799,3.0799,3.0628,3.0531,3.0779,3.1096,3.1286,3.1281,3.1529,3.1796,2.0508,2.1149,2.0484,2.0657,2.1371,2.138,2.1817,2.2509,2.2566,2.2639,2.2683,2.277,2.3291,2.4138,2.4937,0.0,2.5406,2.5448,2.5464,2.5484,2.551,2.5511,2.5511,2.557,2.5641,2.5693,2.5771,2.5796,2.5828,2.5828,2.5803,2.581,2.5803,2.5744,2.5596,2.5583,2.5587,2.5588,2.5625,2.5591,2.5514,2.5442,2.5344,2.5215,2.519,2.5127,2.5012,2.5004,2.4991,2.4991,2.4991,2.4991,2.4991,0.0,0.0,0.0,0.0,0.0,0.0,0.0,0.0,0.0,0.0,0.0,0.0,0.0,0.0,0.0,2.5609,0.0,2.5701,2.5701,0.0,0.0,0.0,2.7011,2.702,2.7779,2.8305,2.8305,0.0,0.0,2.9611,0.0,3.0511,2.9687,3.0291,3.0793,3.0804,3.0843,3.0896,3.0959,3.0979,3.1018,3.1193,3.1154,3.1169,3.1169,3.1018,3.1091,3.1115,3.1096,3.1033,3.1111,3.1018,3.1052,3.1013,3.1675,3.1934,3.1208,3.1656,3.2182,3.2141,3.2667,3.3128,2.1017,2.1244,2.1692,2.2026,2.2216,2.2216,2.2322,2.2543,2.3201,2.3498,2.3564,2.4289,2.4698,2.4943,2.5187,2.5293,2.5332,2.5387,2.5423,2.5432,2.5484,2.5507,2.5526,2.6176,2.6481,2.6565,2.7186,2.7489,2.7516,2.7496,2.7496,2.7508,2.7516,2.6856,2.5596,2.6164,2.6444,2.6412,2.6996,2.7277,2.7209,2.7132,2.6765,2.6047,2.6015,2.5703,2.5029,2.4991,2.4991,2.4991,2.4991,2.4991,2.4991,2.4991,0.0,0.0,0.0,0.0,0.0,0.0,0.0,0.0,0.0,2.5421,2.5418,0.0,2.551,0.0,2.5583,2.5873,2.6514,2.6584,0.0,0.0,2.7765,2.7887,2.7887,2.8651,2.9177,2.9192,2.9951,3.0482,3.0507,3.0662,3.0726,3.0531,3.0672,3.0784,3.0818,3.1388,3.1778,3.1836,3.2304,3.2771,3.2713,3.2791,3.2732,3.2771,3.2752,3.2771,3.2771,3.2791,3.2791,3.2771,3.2791,3.2766,3.2658,3.2892,3.2925,3.2758,3.2881,3.3003,3.2999,3.3168,3.331,2.1983,2.2362,2.2836,2.3253,2.3588,2.3196,2.3247,2.3638,2.4132,2.4347,2.4353,2.4903,2.5172,2.5236,2.5653,2.5838,2.5849,2.6284,2.6468,2.6468,2.6534,2.658,2.658,2.7097,2.7334,2.7361,2.7834,2.8074,2.8102,2.8102,2.8082,2.8055,2.8059,2.7586,2.6668,2.7094,2.731,2.7237,2.7653,2.7819,2.7757,2.7701,2.744,2.689,2.6877,2.664,2.6148,2.611,2.6129,2.611,2.611,2.611,2.6129,2.611,2.6124,0.0,0.0,0.0,0.0,0.0,0.0,0.0,0.0,0.0,0.0,0.0,2.6204,2.6616,2.6702,2.6916,2.7388,2.7453,2.7634,2.8151,2.8526,2.8752,2.8757,2.9536,3.0022,3.0014,3.0442,3.0759,3.0764,3.112,3.1359,3.1348,3.1665,3.1768,3.1525,3.2129,3.2655,3.2669,3.3059,3.3345,3.3354,3.3354,3.3334,3.3354,3.3354,3.3354,3.3334,3.3354,3.3354,3.3354,3.3354,3.3334,3.3303,3.3634,3.3881,3.392,3.4199,3.4276,3.3978,3.4151,3.4408,2.3063,2.3708,2.3821,2.4295,2.494,2.4182,2.4295,2.4991,2.4991,2.5061,2.5164,2.5235,2.5335,2.5562,2.6293,2.6642,2.6696,2.7451,2.7811,2.7811,2.7864,2.7884,2.7894,2.8068,2.8144,2.8143,2.8266,2.8341,2.8415,2.8396,2.8388,2.8313,2.8315,2.8308,2.8309,2.8318,2.827,2.8213,2.8145,2.8083,2.8007,2.8007,2.7929,2.7766,2.7752,2.7666,2.7513,2.7494,2.7494,2.7494,2.7494,2.7494,2.7494,2.7494,2.7509,0.0,2.7561,0.0,0.0,0.0,0.0,0.0,0.0,0.0,0.0,2.6869,2.7213,2.8012,2.8105,2.8145,2.8243,2.8282,2.8327,2.8534,2.9142,2.9596,2.9666,3.0289,3.0697,3.0697,3.0794,3.0853,3.0936,3.1688,3.2219,3.2246,3.2894,3.3159,3.2649,3.3078,3.3521,3.3471,3.3568,3.3854,3.3822,3.3712,3.3738,3.3693,3.3777,3.3634,3.3732,3.3732,3.3693,3.3693,3.3758,3.3712,3.3615,3.4276,3.4717,3.4773,3.5271,3.5504,3.4979,3.5197,3.5763,2.3556,2.3765,2.4447,2.4858,2.4991,2.4826,2.4845,2.4991,2.4991,2.5384,2.6056,2.607,2.6485,2.7128,2.7377,2.7478,2.7484,2.7704,2.7792,2.7804,2.7811,2.7813,2.7871,2.8607,2.8965,2.9004,2.9689,3.0028,3.0047,3.0047,3.0047,3.0018,3.0018,3.0018,3.0027,0.0,0.0,0.0,2.9826,2.9742,2.9729,2.9674,2.9294,2.8617,2.8574,0.0,2.7551,2.7494,2.7494,2.7494,2.7494,0.0,0.0,0.0,0.0,0.0,0.0,0.0,0.0,0.0,0.0,0.0,2.7508,2.7428,2.7644,2.7707,2.7818,2.7989,2.8078,2.839,2.907,2.9168,2.9447,3.0134,3.0367,3.0464,3.049,3.0626,3.0704,3.0717,3.13,3.1754,3.1806,3.2532,3.3057,3.3109,3.3797,3.4251,3.414,3.4257,3.4354,3.4387,3.4854,3.534,3.5412,3.5334,3.5236,3.5412,3.5412,3.5353,3.5314,3.5334,3.5373,3.5334,3.5412,3.5346,3.5286,3.5465,3.5507,3.5568,3.5706,3.5775,3.5618,3.5696,3.5794,2.4333,0.0,2.4807,2.4991,0.0,2.4991,2.5237,2.5584,2.5584,2.6091,2.6878,2.6892,2.7129,2.7575,2.8055,2.8273,2.8313,2.8772,2.8989,2.8983,2.9001,2.9044,2.9044,2.9525,2.9751,2.98,3.0235,3.0469,3.0479,3.049,3.049,3.049,3.0458,3.0455,3.0455,3.0355,3.0305,3.0299,3.0234,3.0194,3.0166,3.0123,2.9889,2.9425,0.0,0.0,0.0,0.0,0.0,0.0,0.0,0.0,0.0,0.0,0.0,2.8692,2.8772,2.8817,2.8831,2.8916,2.8964,2.9027,2.9068,2.8931,2.857,2.8994,2.9289,2.9279,2.9303,2.9532,2.9974,3.0047,3.0217,3.0651,3.1079,3.1331,3.137,3.1739,3.1972,3.1999,3.2375,3.2654,3.2661,3.3388,3.3893,3.3944,3.4652,3.5177,3.5196,3.5223,3.5236,3.5203,3.5507,3.583,3.585,3.585,3.585,3.583,3.585,3.5869,3.5834,3.5834,3.5834,3.5807,3.5779,3.5799,3.5763,3.5745,3.5736,3.5747,3.5757,3.5747,3.5747,3.5747,3.5737,2.4964,2.4964,2.4964,2.4964,2.4983,2.5115,2.5754,2.6626,0.0,0.0,0.0,2.7717,2.7789,2.7994,2.8707,2.9036,2.9141,2.9851,3.0185,3.0194,3.0253,3.0299,3.0279,3.0299,3.0323,3.0386,3.0371,3.0425,3.0466,3.0477,3.0458,3.0447,3.039,3.0463,3.0566,3.0477,3.048,3.0595,3.0347,3.0147,3.009,3.0094,3.0049,3.0007,3.0007,2.9956,2.9907,2.9907,2.9907,2.9907,2.9907,2.9907,2.9907,2.9907,2.9907,2.9907,3.001,3.0076,3.0102,3.0142,3.0303,3.0509,3.0725,3.0436,2.9515,3.0134,3.0656,3.078,3.0808,3.0903,3.1111,3.1138,3.1146,3.1149,3.179,3.2198,3.2283,3.2846,3.3215,3.3313,3.339,3.3507,3.3553,3.428,3.4793,3.4816,3.531,3.5795,3.5818,3.5784,3.5779,3.5737,3.576,3.581,3.5782,3.5782,3.5782,3.5782,3.5782,3.5773,3.5784,3.5794,3.5766,3.5718,3.5708,3.5708,3.5708,3.5708,3.5699,3.5699,3.5718,3.5708,3.5678,3.5678,3.5678,2.4827,2.4827,2.4808,2.4827,2.4865,2.5626,2.6866,2.8275,2.7612,2.7763,2.8521,2.854,2.895,2.9665,2.9779,2.9867,2.995,3.006,3.0117,0.0,3.0171,3.0199,3.0213,3.0266,3.0305,3.0305,3.0305,3.0318,3.0318,3.0337,3.0318,3.0337,3.0305,3.0657,3.1268,3.1264,3.1584,3.2206,3.0833,3.0109,3.0075,3.0053,3.0022,3.0007,2.9959,2.9905,2.9907,2.9907,2.9907,2.9907,2.9907,2.9907,2.9907,2.9907,2.9907,2.9907,2.9972,3.0053,3.0102,3.0104,3.0494,3.1366,3.2103,3.1927,3.0479,3.0433,3.082,3.1526,3.1681,3.2009,3.2657,3.2753,3.2732,3.2796,3.2931,3.3037,3.3091,3.3293,3.341,3.3448,3.3915,3.4323,3.442,3.5061,3.5546,3.5605,3.5655,3.5791,3.5793,3.5791,3.581,3.5793,3.5793,3.5775,3.5747,3.5718,3.5718,3.5718,3.5718,3.5718,3.5737,3.5728,3.5708,3.5708,3.5699,3.5679,3.5699,3.5708,3.5688,3.5688,3.5687,3.5695,3.5701,3.5728,3.5709,2.4813,2.4813,2.4813,2.5077,2.5586,2.6899,2.7897,2.865,2.8758,2.8998,2.932,2.9339,2.9564,2.9921,2.9937,2.9972,3.0038,3.0038,3.0053,3.0122,3.0594,3.0799,3.0837,3.1306,3.1312,3.0934,3.0896,3.0694,3.0331,3.0312,3.0312,3.0331,3.0694,3.1073,3.1431,3.1844,3.2232,3.2559,3.1854,3.142,3.1404,3.1371,3.113,3.0658,3.0625,3.0362,2.9926,2.9907,2.9907,2.9907,2.9907,2.9907,2.9907,2.9907,2.9907,2.9926,3.0408,3.0722,3.0734,3.1259,3.1771,3.2229,3.2647,3.2634,3.1926,3.189,3.2076,3.2464,3.2522,3.2687,3.3064,3.3131,3.3149,3.3197,3.3591,3.3899,3.3996,3.4392,3.4653,3.4672,3.4983,3.5197,3.5197,3.5546,3.5791,3.5801,3.5773,3.5756,3.5766,3.5756,3.5736,3.5747,3.5747,3.5737,3.5708,3.5708,3.5708,3.5708,3.5708,3.5699,3.5708,3.5708,3.5688,3.5648,3.5657,3.5637,3.5665,3.5654,3.5643,3.5643,3.5631,3.5743,3.6118,3.6556,3.6749,2.4749,2.4768,2.4956,2.5649,2.6736,2.8018,2.8678,2.894,2.9559,2.9876,2.9872,2.9888,2.9907,2.9907,2.9907,3.0035,3.0257,3.0276,3.0386,3.0665,3.1274,3.1559,3.1635,3.2298,3.2254,3.1726,3.1684,3.1369,3.0858,3.0833,3.0814,3.0877,3.1393,3.1749,3.1962,3.2561,3.2947,3.3118,3.3137,3.293,3.2514,3.2477,3.2157,3.1535,3.1459,3.1156,3.0513,3.0457,3.0379,3.0229,3.0343,3.0381,3.021,3.0362,3.0457,3.053,3.1149,3.1559,3.1629,3.2504,3.3072,3.3091,3.3311,3.3461,3.3562,3.3635,3.3572,3.343,3.3402,3.347,3.3713,3.3752,3.3703,3.3799,3.4339,3.4736,3.4833,3.5385,3.5782,3.5782,3.5763,3.5763,3.5763,3.5763,3.5773,3.5756,3.5718,3.5708,3.5699,3.5699,3.5689,3.5679,3.5689,3.5689,3.5689,3.5679,3.5679,3.5679,3.5669,3.5678,3.5695,3.5792,3.5936,3.5968,3.613,3.6284,3.6221,3.6228,3.6279,3.6337,3.6376,3.646,3.6967,3.7693,3.807,2.4613,2.4743,2.5431,2.6773,2.8175,2.8438,2.8964,2.9621,2.9789,2.9808,2.9863,2.9874,2.9926,2.9907,2.9945,3.0379,3.1061,3.1099,3.1459,3.2083,3.2326,3.2381,3.2381,3.2566,3.2564,3.2504,3.2485,3.2409,3.2254,3.2292,3.2368,3.239,3.2466,3.2828,3.3475,3.3631,3.4033,3.4755,3.4718,3.3978,3.2609,3.2441,3.2368,3.2312,3.2293,3.2255,3.2084,3.2179,3.1819,3.1231,3.1743,3.1819,3.125,3.1762,3.216,3.2141,3.2248,3.2352,3.254,3.3296,3.3853,3.4016,3.4606,3.5048,3.5175,3.527,3.5048,3.4475,3.4272,3.4582,3.5347,3.5386,3.528,3.5243,3.5408,3.5592,3.5553,3.565,3.5708,3.5718,3.5718,3.5708,3.5718,3.5718,3.5718,3.5708,3.5699,3.5708,3.5688,3.5764,3.5742,3.5693,3.5695,3.5745,3.5712,3.5612,3.5767,3.5724,3.5674,3.5801,3.6014,3.6369,3.6691,3.6761,3.7231,3.7565,3.7681,3.7855,3.7739,3.7546,3.7604,3.7841,3.7987,3.8575,3.8999,2.4599,2.469,2.5493,2.6837,2.8333,2.8933,2.9363,2.9682,2.9718,3.0018,3.0489,3.0524,3.054,3.0596,3.1088,3.1504,3.1844,3.1899,3.2069,3.2446,3.2937,3.32,3.3257,3.3731,3.3748,3.3329,3.331,3.3061,3.2678,3.2602,3.2602,3.2659,3.3061,3.3479,3.3821,3.4224,3.4623,3.4926,3.4927,3.4567,3.4017,3.3903,3.3657,3.3221,3.3183,3.29,3.2465,3.2409,3.2239,3.19,3.2184,3.224,3.1936,3.222,3.2409,3.2444,3.2933,3.3477,3.4044,3.4459,3.4716,3.4791,3.5109,3.5345,3.5501,3.5541,3.5399,3.5187,3.5132,3.5336,3.5646,3.5704,3.5715,3.5706,3.5707,3.5698,3.5698,3.5699,3.5708,3.5708,3.5708,3.5708,3.5708,3.5708,3.5679,3.5639,3.5648,3.5684,3.5662,3.6006,3.6291,3.6369,3.6728,3.6825,3.6465,3.6298,3.6511,3.6903,3.7096,3.7077,3.7077,3.7289,3.7565,3.7519,3.7905,3.8122,3.7954,3.8031,3.8031,3.8185,3.8609,3.8801,3.8787,3.9446,3.9908,2.4715,2.5032,2.6021,2.7289,2.867,2.9288,2.9588,2.9569,2.9645,3.0133,3.0941,3.1205,3.145,3.1714,3.2128,3.2392,3.2619,3.2694,3.2845,3.3091,3.3753,3.4036,3.4093,3.4605,3.4623,3.4186,3.4091,3.3805,3.3272,3.3234,3.3234,3.3329,3.3824,3.4091,3.4148,3.4661,3.4908,3.4908,3.4908,3.4908,3.4889,3.4888,3.4604,3.4093,3.4036,3.3715,3.3091,3.3053,3.2921,3.2657,3.2845,3.2883,3.2694,3.2921,3.3053,3.3108,3.3731,3.4393,3.5034,3.5127,3.5198,3.5261,3.5289,3.535,3.546,3.5482,3.5534,3.5534,3.5639,3.5643,3.5704,3.5704,3.5704,3.5704,3.5706,3.5697,3.5697,3.5718,3.5708,3.5708,3.5688,3.5649,3.5688,3.5687,3.5646,3.5623,3.5794,3.5925,3.6035,3.6601,3.7128,3.7147,3.7687,3.7712,3.7244,3.7128,3.7475,3.7751,3.7943,3.7924,3.8136,3.8194,3.8425,3.8397,3.8513,3.8729,3.9018,3.8869,3.8661,3.8796,3.9142,3.9565,3.9619,4.0177,4.0392,2.4946,2.5838,2.74,2.8519,2.9436,2.9474,2.9492,2.9492,2.9588,3.0094,3.0938,3.1709,3.2499,3.3195,3.2693,3.275,3.3373,3.3468,3.3845,3.4525,3.4716,3.485,3.485,3.4889,3.4889,3.4775,3.4756,3.4737,3.468,3.4718,3.4794,3.4775,3.4775,3.4813,3.4794,3.4851,3.4908,3.4927,3.4907,3.4887,3.4887,3.4829,3.481,3.4774,3.4812,3.4697,3.462,3.4637,3.4279,3.3487,3.4147,3.426,3.3638,3.4204,3.4622,3.4699,3.4794,3.487,3.4982,3.5075,3.5127,3.5193,3.5277,3.5324,3.5398,3.546,3.5488,3.5501,3.5566,3.5628,3.5673,3.5693,3.5693,3.5684,3.5704,3.5704,3.5704,3.5684,3.5704,3.5684,3.5654,3.5612,3.5616,3.5623,3.5654,3.5797,3.6267,3.6717,3.6839,3.7442,3.7872,3.7954,3.8055,3.8022,3.7973,3.7968,3.7993,3.8344,3.8575,3.8234,3.8354,3.8565,3.8984,3.9369,3.9696,3.9985,4.0273,4.0296,4.0142,4.0104,4.0046,4.0258,4.0123,4.0335,4.0489,2.5134,2.643,2.7601,2.8567,2.9351,2.9412,2.9414,2.9509,3.0053,3.0803,3.1667,3.2512,3.3339,3.417,3.3911,3.3932,3.4196,3.4256,3.4446,3.4728,3.4848,3.4906,3.4926,3.4908,3.4908,3.4908,3.4908,3.4908,3.4908,3.4908,3.4908,3.4908,3.4908,3.4908,3.4908,3.4907,3.4926,3.4888,3.4849,3.481,3.4771,3.479,3.4788,3.4768,3.4809,3.4809,3.4728,3.4728,3.4557,3.4214,3.4496,3.4555,3.4331,3.4598,3.4829,3.4888,3.4926,3.4946,3.4982,3.5039,3.5092,3.5198,3.5229,3.5296,3.5324,3.5403,3.546,3.5526,3.5528,3.5572,3.5616,3.5628,3.5628,3.5628,3.5628,3.5628,3.5628,3.5628,3.5628,3.5647,3.5616,3.5616,3.5662,3.5623,3.5804,3.6299,3.6633,3.7024,3.7588,3.8286,3.8811,3.8896,3.9246,3.9596,3.9525,3.9089,3.8965,3.9427,3.9642,3.9642,3.97,3.9642,3.9931,3.9892,4.0373,4.0431,4.0431,4.0431,4.0489,4.0489,4.0489,4.0489,4.0489,4.0489,4.0489,2.5872,2.7147,2.8038,2.8725,2.9225,2.9328,2.937,2.9483,3.0309,3.1211,3.2094,3.2898,3.3746,3.4467,3.4561,3.4561,3.4602,3.4645,3.4666,3.4687,3.4788,3.4829,3.4868,3.4888,3.4908,3.4908,3.4908,3.4908,3.4908,3.4908,3.4908,3.4908,3.4888,3.4888,3.485,3.4868,3.4868,3.4868,3.4788,3.473,3.4711,3.4728,3.4727,3.4687,3.4727,3.4708,3.4666,3.4666,3.4645,3.4623,3.4602,3.4623,3.4685,3.4747,3.4788,3.4848,3.4887,3.4926,3.4965,3.5002,3.502,3.515,3.5429,3.5611,3.5682,3.5975,3.6189,3.6253,3.6281,3.6309,3.6323,3.6375,3.6138,3.5753,3.5623,3.5623,3.5623,3.5623,3.5591,3.556,3.556,3.5675,3.5901,3.5945,3.6356,3.7046,3.732,3.78,3.8324,3.9077,3.9653,3.964,3.9989,4.0238,4.0183,3.9775,3.9615,4.0018,4.0134,4.038,4.0476,4.0476,4.0476,4.0492,4.0492,4.0508,4.0508,4.0489,4.0489,4.0489,4.0489,4.0489,4.0489,4.0489,4.07,2.7163,2.7994,2.8846,2.9144,2.92,2.9262,2.9302,2.9453,3.0355,3.1238,3.1986,3.287,3.3773,3.4383,3.4495,3.4539,3.4602,3.4602,3.4623,3.4623,3.4687,3.4728,3.4827,3.4868,3.4888,3.4908,3.4908,3.4889,3.4889,3.4888,3.4887,3.4887,3.4829,3.4809,3.4809,3.4809,3.4845,3.492,3.4917,3.4819,3.4743,3.487,3.483,3.4736,3.4717,3.4698,3.462,3.4602,3.4623,3.4602,3.4602,3.4602,3.4623,3.4666,3.4706,3.4708,3.4809,3.4906,3.4906,3.504,3.5135,3.5287,3.5874,3.6401,3.6568,3.7135,3.7568,3.7581,3.7635,3.7747,3.7709,3.767,3.7194,3.5952,3.5875,3.5894,3.581,3.5688,3.5618,3.5714,3.5811,3.5919,3.6479,3.6714,3.7045,3.7782,3.8399,3.8879,3.9109,3.978,4.0262,4.0319,4.0302,4.036,4.0398,4.0396,4.0377,4.0396,4.0339,4.0413,4.043,4.043,4.0466,4.0463,4.0499,4.0515,4.0492,4.0492,4.0489,4.0489,4.0489,4.0604,4.0781,4.0934,4.1223,2.7632,2.7963,2.8798,2.9112,2.9134,2.9218,2.9222,2.9407,3.0732,3.1559,3.205,3.3324,3.4157,3.4371,3.4431,3.4473,3.4517,3.4517,3.4558,3.4583,3.4666,3.4708,3.4747,3.4788,3.4829,3.483,3.4849,3.483,3.483,3.481,3.4848,3.4809,3.4809,3.4788,3.4788,3.4787,3.5068,3.5803,3.5663,3.5942,3.6754,3.6483,3.6066,3.5559,3.5484,3.524,3.4658,3.4602,3.4602,3.4602,3.4602,3.4602,3.4623,3.4623,3.4663,3.4687,3.4728,3.4807,3.4962,3.5418,3.5779,3.6026,3.6673,3.7129,3.7261,3.7581,3.7806,3.7823,3.7855,3.7904,3.7904,3.7904,3.7709,3.7237,3.7175,3.7098,3.7055,3.7098,3.7179,3.716,3.716,3.7298,3.7456,3.7536,3.7862,3.8556,3.898,3.9287,3.9881,4.0149,4.036,4.0325,4.0325,4.0326,4.0364,4.0364,4.0364,4.0364,4.0363,4.0381,4.0381,4.0381,4.0398,4.0432,4.0468,4.0502,4.0479,4.0495,4.0492,4.0527,4.0566,4.0819,4.119,4.1517,4.1788,2.797,2.8301,2.8842,2.9062,2.9067,2.9134,2.9341,2.9765,3.1048,3.1834,3.2423,3.3603,3.4269,3.4335,3.434,3.4404,3.4454,3.4495,3.4517,3.4561,3.4645,3.4666,3.4687,3.4768,3.4788,3.4788,3.4788,3.4788,3.4788,3.4768,3.4768,3.4749,3.4747,3.4727,3.4783,3.5044,3.555,3.6133,3.6295,3.6765,3.737,3.7272,3.6855,3.6366,3.6066,3.5634,3.5108,3.4789,3.4602,3.4602,3.4602,3.4602,3.4602,3.4602,3.4623,3.4626,3.4724,3.4858,3.5258,3.5771,3.6266,3.6685,3.7447,3.7964,3.8099,3.829,3.8575,3.8613,3.8726,3.8722,3.8778,3.8759,3.8776,3.8776,3.8175,3.7961,3.7904,3.7904,3.7865,3.7808,3.7827,3.8022,3.8254,3.8369,3.8676,3.9329,3.9559,3.9635,4.0229,4.0326,4.0327,4.0327,4.0309,4.031,4.031,4.0329,4.0329,4.0329,4.0328,4.0327,4.0327,4.0327,4.0364,4.0362,4.0396,4.0432,4.0447,4.0447,4.0463,4.0518,4.0707,4.1154,4.1581,4.2023,4.2406,2.8319,2.8957,2.8975,2.9017,2.9017,2.9067,2.9513,3.0328,3.1204,3.2022,3.2798,3.3685,3.4124,3.4197,3.4245,3.4335,3.4404,3.4473,3.4495,3.4517,3.458,3.4645,3.4687,3.4879,3.4994,3.4956,3.5032,3.4994,3.4994,3.4934,3.4781,3.4875,3.4851,3.4792,3.5093,3.5615,3.6047,3.6366,3.6855,3.723,3.7441,3.7385,3.7249,3.7155,3.6554,3.6085,3.5709,3.5033,3.4602,3.4602,3.4602,3.4602,3.4602,3.4602,3.4602,3.4623,3.4703,3.5171,3.5713,3.6252,3.6635,3.7354,3.8199,3.8795,3.8893,3.9372,3.9755,3.9793,3.9889,3.9985,4.0005,3.9986,4.0024,4.0043,3.9045,3.835,3.8098,3.8175,3.8331,3.8235,3.8118,3.8312,3.9084,3.9141,3.9506,3.9966,4.0195,4.0214,4.0252,4.0329,4.031,4.031,4.0329,4.031,4.0329,4.0329,4.0329,4.031,4.031,4.031,4.031,4.031,4.031,4.0327,4.0362,4.0379,4.0415,4.0413,4.0586,4.0814,4.114,4.1566,4.2122,4.2679,4.3177,2.8792,2.8975,2.8975,2.8975,2.8975,2.8998,2.948,3.0289,3.1151,3.1986,3.2803,3.3647,3.4023,3.4074,3.4124,3.4197,3.4269,3.4363,3.4473,3.4495,3.458,3.4602,3.4792,3.5302,3.5603,3.5678,3.6076,3.6186,3.5641,3.5584,3.5581,3.5581,3.5581,3.5841,3.6404,3.6629,3.7117,3.7606,3.7831,3.83,3.8812,3.8888,3.8601,3.8,3.7737,3.7005,3.5991,3.5071,3.4602,3.4602,3.4602,3.4602,3.4602,3.4639,3.4677,3.4773,3.5281,3.5675,3.6104,3.7055,3.7811,3.8206,3.8924,3.9504,3.9545,3.9802,4.0015,4.0036,4.0057,4.0117,4.0137,4.0137,4.0137,4.0118,3.9738,3.9525,3.9563,3.9697,3.9678,3.9678,3.9621,3.9716,3.9813,3.9947,4.0023,4.0234,4.0329,4.0329,4.0329,4.0329,4.0329,4.0329,4.031,4.031,4.0329,4.0329,4.0329,4.0329,4.031,4.031,4.031,4.031,4.031,4.0329,4.0327,4.0363,4.0381,4.0381,4.0705,4.1088,4.1625,4.2124,4.3063,4.3771,4.4116,2.8975,2.8975,2.8975,2.8975,2.8975,2.8975,2.9641,3.0674,3.1232,3.2139,3.3096,3.37,3.3965,3.3991,3.4023,3.4099,3.4154,3.4269,3.4363,3.4529,3.4933,3.5165,3.5296,3.5728,3.6066,3.6441,3.6873,3.6798,3.646,3.6404,3.6404,3.6404,3.6404,3.6667,3.6986,3.7474,3.7756,3.8169,3.8563,3.9107,3.9583,3.962,3.937,3.8801,3.8458,3.7483,3.5979,3.5323,3.4952,3.4695,3.4602,3.4602,3.4639,3.4958,3.5127,3.5184,3.5953,3.6517,3.7005,3.7878,3.8522,3.8954,3.9534,3.9693,3.9758,3.9848,3.9933,3.9914,3.9994,4.0036,4.0076,4.0077,4.0096,4.0098,4.0176,4.0234,4.0253,4.0196,4.0272,4.0291,4.0329,4.031,4.031,4.031,4.0329,4.0329,4.0329,4.0329,4.0329,4.0329,4.0329,4.0329,4.0329,4.0329,4.0329,4.0329,4.0329,4.0329,4.0329,4.0329,4.0329,4.0329,4.0329,4.031,4.031,4.0347,4.0442,4.0632,4.1035,4.1513,4.2087,4.2814,4.3732,4.4402,4.4803,2.8975,2.8975,2.8975,2.8975,2.9012,2.9104,2.9984,3.1201,3.1549,3.2368,3.3532,3.3842,3.3887,3.385,3.3947,3.4042,3.4099,3.4173,3.4293,3.4629,3.5225,3.5799,3.6025,3.631,3.6723,3.7192,3.7286,3.7343,3.7268,3.723,3.723,3.723,3.723,3.7305,3.7681,3.815,3.8281,3.8407,3.9027,3.9402,3.9552,3.9571,3.9471,3.927,3.854,3.7617,3.6483,3.5885,3.5572,3.4918,3.4692,3.4677,3.4808,3.554,3.5897,3.6141,3.6761,3.7512,3.8112,3.8343,3.8799,3.9462,3.9645,3.9707,3.9727,3.9777,3.9781,3.9804,3.9867,3.9933,3.9994,4.0017,4.0057,4.0057,4.0077,4.0098,4.0157,4.0176,4.0215,4.0273,4.0291,4.0272,4.0272,4.0291,4.0329,4.0329,4.0329,4.0329,4.0329,4.0329,4.0329,4.0329,4.0329,4.0329,4.0329,4.0329,4.0329,4.0329,4.0329,4.0329,4.0329,4.0329,4.0329,4.031,4.0329,4.0463,4.0692,4.0979,4.1437,4.2183,4.2929,4.3559,4.4208,4.4725,4.5165,2.8975,2.8975,2.8975,2.8975,2.9085,2.9677,3.0479,3.1345,3.2005,3.2765,3.3524,3.3744,3.3753,3.3753,3.3868,3.3972,3.4023,3.4148,3.4288,3.4517,3.5324,3.6119,3.6766,3.7376,3.785,3.8188,3.8751,3.8657,3.8206,3.8056,3.8056,3.8056,3.8094,3.8357,3.8939,3.9032,3.9276,3.9258,3.9452,3.9502,3.952,3.9469,3.9425,3.9324,3.8614,3.8028,3.758,3.6982,3.6571,3.6171,3.5356,3.4967,3.5496,3.5837,3.6273,3.6873,3.7568,3.815,3.8375,3.8901,3.9376,3.9564,3.9658,3.9701,3.9693,3.9722,3.9727,3.9731,3.9781,3.9848,3.9911,3.9933,3.9954,3.9954,3.9954,3.9994,4.0036,4.0098,4.0137,4.0157,4.0196,4.0215,4.0215,4.0291,4.0291,4.0311,4.0329,4.0329,4.0329,4.031,4.0329,4.0329,4.0329,4.0329,4.0329,4.0329,4.0329,4.0329,4.0329,4.054,4.052,4.052,4.0578,4.0482,4.0329,4.0597,4.1132,4.1514,4.1991,4.2889,4.3711,4.4208,4.4685,4.5125,4.5277,2.8975,2.8975,2.8975,2.8975,2.9122,2.9861,3.0619,3.1375,3.218,3.2912,3.3478,3.3661,3.3671,3.3698,3.378,3.3842,3.3972,3.4142,3.4506,3.5067,3.5875,3.6708,3.7536,3.8353,3.8846,3.8952,3.9295,3.9239,3.8995,3.8882,3.8901,3.892,3.8882,3.907,3.9521,3.962,3.9514,3.9471,3.952,3.9469,3.9406,3.9399,3.9346,3.9264,3.8809,3.8447,3.7944,3.7627,3.718,3.6721,3.6061,3.5797,3.6349,3.6728,3.7207,3.7662,3.8432,3.8863,3.907,3.9295,3.9602,3.962,3.9639,3.9639,3.9664,3.9669,3.9712,3.9703,3.9731,3.9781,3.9826,3.9889,3.9889,3.9889,3.9889,3.9911,3.9954,4.0015,4.0057,4.0096,4.0137,4.0176,4.0196,4.0234,4.0273,4.0291,4.0291,4.0291,4.031,4.031,4.031,4.0329,4.0329,4.0329,4.0329,4.0329,4.0329,4.0329,4.0329,4.0673,4.096,4.0941,4.0941,4.0903,4.096,4.1399,4.1896,4.224,4.2698,4.3463,4.4169,4.4704,4.5048,4.522,4.5297,2.8975,2.8975,2.8975,2.8975,2.9122,3.0008,3.0748,3.1331,3.2281,3.3068,3.3468,3.3577,3.3633,3.3661,3.3698,3.378,3.3939,3.4129,3.4569,3.546,3.6286,3.7138,3.8003,3.8775,3.9294,3.9552,3.9552,3.9502,3.9521,3.962,3.9451,3.9564,3.9583,3.9545,3.9602,3.9596,3.9552,3.9483,3.9432,3.938,3.929,3.9309,3.9275,3.9165,3.9082,3.8775,3.8348,3.8106,3.7827,3.7113,3.7128,3.7212,3.7436,3.7772,3.8359,3.8445,3.9126,3.9414,3.9451,3.9583,3.962,3.962,3.962,3.962,3.962,3.9639,3.9664,3.9693,3.9703,3.9731,3.9762,3.9826,3.9889,3.9889,3.987,3.9889,3.9911,3.9954,4.0015,4.0055,4.0076,4.0098,4.0118,4.0176,4.0215,4.0253,4.0253,4.0291,4.0272,4.0253,4.0273,4.0253,4.0234,4.0215,4.0215,4.0712,4.0654,4.075,4.0673,4.1132,4.159,4.1667,4.1724,4.1705,4.1858,4.2259,4.2679,4.3119,4.3615,4.4169,4.4571,4.501,4.5201,4.5277,4.5275,2.8975,2.8975,2.8975,2.8975,2.9232,3.0558,3.1181,3.148,3.2776,3.3403,3.3433,3.3462,3.352,3.3549,3.3643,3.378,3.3895,3.4035,3.4574,3.5521,3.6345,3.7151,3.8167,3.8856,3.9283,3.9399,3.9495,3.9546,3.9577,3.962,3.962,3.962,3.962,3.962,3.9596,3.9546,3.952,3.9432,3.9354,3.9237,3.921,3.9183,3.9175,3.911,3.9082,3.899,3.8915,3.8859,3.8822,3.8711,3.872,3.871,3.8603,3.8408,3.8615,3.9089,3.9383,3.9602,3.9602,3.962,3.962,3.962,3.962,3.962,3.962,3.962,3.962,3.9645,3.9674,3.9703,3.9702,3.9785,3.9807,3.9829,3.987,3.987,3.9889,3.9911,3.9933,3.9973,3.9994,4.0036,4.0077,4.0098,4.0137,4.0157,4.0195,4.0195,4.0176,4.0157,4.0157,4.0137,4.0137,4.0117,4.0117,4.0824,4.1226,4.1473,4.1608,4.2086,4.243,4.2545,4.2603,4.2755,4.2793,4.2985,4.3443,4.3959,4.4302,4.4683,4.501,4.5277,4.5275,4.5233,4.5233,2.8975,2.8975,2.8975,2.9232,2.9787,3.087,3.1565,3.1982,3.3076,3.352,3.3452,3.3422,3.3481,3.3491,3.3549,3.3698,3.3815,3.3939,3.4718,3.5824,3.6435,3.7322,3.8349,3.8943,3.9119,3.9275,3.9328,3.9425,3.9527,3.9596,3.9596,3.962,3.962,3.9596,3.9527,3.952,3.9444,3.9354,3.9256,3.9183,3.9137,3.9101,3.9101,3.9101,3.9101,3.9101,3.9101,3.9101,3.9082,3.9064,3.9082,3.9129,3.9053,3.8976,3.8932,3.9401,3.9533,3.9539,3.9602,3.962,3.962,3.962,3.962,3.962,3.962,3.962,3.962,3.962,3.9669,3.9717,3.9708,3.9735,3.9739,3.9743,3.9762,3.9804,3.9826,3.9848,3.9848,3.987,3.9933,3.9975,4.0036,4.0057,4.0057,4.0077,4.0096,4.0096,4.0096,4.0077,4.0057,4.0077,4.0115,4.0323,4.0437,4.1068,4.1814,4.2119,4.2502,4.298,4.3248,4.3344,4.3704,4.4026,4.4031,4.3767,4.4246,4.4762,4.4989,4.5101,4.5197,4.5233,4.5211,4.5189,4.5186,2.8975,2.8975,2.8975,2.9475,3.0265,3.1054,3.1785,3.2475,3.324,3.352,3.3393,3.3393,3.3422,3.3462,3.352,3.3587,3.3762,3.3834,3.4833,3.6104,3.65,3.7359,3.858,3.9026,3.9064,3.9147,3.9229,3.9328,3.9495,3.9546,3.9577,3.9577,3.9596,3.9571,3.9539,3.9425,3.9328,3.9256,3.9183,3.9156,3.9129,3.9101,3.9101,3.9101,3.9101,3.9101,3.9101,3.9101,3.9101,3.9101,3.9101,3.9101,3.9101,3.9175,3.9256,3.9406,3.9471,3.9539,3.9577,3.962,3.962,3.962,3.962,3.962,3.962,3.962,3.962,3.962,3.9645,3.9669,3.9674,3.9698,3.9708,3.9708,3.9712,3.9712,3.9758,3.9781,3.9804,3.9826,3.9867,3.9911,3.9954,3.9994,3.9994,3.9994,4.0015,4.0015,4.0015,4.0015,3.9996,4.0017,4.015,4.053,4.0872,4.1407,4.2189,4.2854,4.3295,4.3814,4.3983,4.4097,4.4478,4.4687,4.4598,4.4431,4.4987,4.5275,4.5175,4.5154,4.5211,4.5208,4.5167,4.5201,4.5213,2.8975,2.8975,2.8994,2.9452,3.0283,3.1091,3.1821,3.2511,3.3295,3.352,3.3393,3.3393,3.3393,3.3422,3.3481,3.353,3.3615,3.379,3.4679,3.6111,3.6407,3.7274,3.8707,3.896,3.8979,3.9064,3.9129,3.9328,3.9444,3.9495,3.9546,3.9571,3.9546,3.9495,3.9469,3.9328,3.921,3.9183,3.9129,3.9101,3.9101,3.9101,3.9101,3.9101,3.9101,3.9101,3.9101,3.9101,3.9101,3.9101,3.9101,3.9101,3.9101,3.9101,3.9156,3.9264,3.9395,3.9477,3.9502,3.9571,3.9596,3.9596,3.9577,3.962,3.9639,3.9714,3.9752,3.962,3.9695,3.9846,3.9946,3.9801,3.9755,3.9811,3.9929,3.9835,3.9807,3.9731,3.9754,3.9758,3.98,3.9845,3.9889,3.9911,3.993,3.9911,3.9911,3.9933,3.9951,3.9954,3.9954,3.9954,4.0127,4.0507,4.1285,4.1819,4.2598,4.3434,4.395,4.4471,4.4505,4.4562,4.4756,4.4912,4.4821,4.4782,4.5011,4.5125,4.5125,4.5125,4.5125,4.5125,4.5103,4.5194,4.5432,2.8947,2.9049,2.947,3.0155,3.0944,3.1751,3.2462,3.3068,3.3441,3.352,3.3422,3.3393,3.3393,3.3422,3.3462,3.352,3.3549,3.3633,3.4566,3.5868,3.6329,3.7187,3.849,3.8881,3.891,3.9007,3.9064,3.9147,3.932,3.9418,3.9469,3.9495,3.9451,3.9399,3.9354,3.9237,3.9183,3.9156,3.9129,3.9101,3.9101,3.9101,3.912,3.912,3.9138,3.9157,3.9138,3.9101,3.9101,3.9101,3.9101,3.9101,3.9101,3.9101,3.9129,3.9156,3.9264,3.9362,3.9444,3.9514,3.9546,3.9571,3.9571,3.962,3.9695,4.0009,4.0272,4.029,4.0722,4.0872,4.0891,4.0992,4.0992,4.0904,4.0497,4.039,4.0244,3.9774,3.9722,3.9727,3.975,3.9834,3.9879,3.9867,3.9886,3.9889,3.9911,3.9911,3.9911,3.9911,3.9911,3.9911,4.0138,4.0423,4.1411,4.2227,4.308,4.3862,4.4336,4.474,4.4834,4.4929,4.4991,4.4991,4.4896,4.4896,4.4991,4.5057,4.508,4.5061,4.5019,4.5152,4.5318,4.596,4.6252,2.8852,2.902,2.9837,3.065,3.1439,3.2265,3.2975,3.355,3.3587,3.352,3.3422,3.3393,3.3393,3.3393,3.3452,3.3481,3.3481,3.3549,3.4444,3.5378,3.615,3.7008,3.8051,3.8552,3.8851,3.8968,3.9026,3.9082,3.9147,3.9275,3.9346,3.9391,3.9373,3.9301,3.921,3.9183,3.9156,3.9147,3.938,3.9491,3.9528,3.9714,3.9788,3.9788,3.9714,3.9621,3.9454,3.9454,3.9454,3.9491,3.951,3.964,3.9863,3.9974,3.9955,4.0002,4.0077,4.0086,3.9973,3.9848,3.9582,3.9551,3.9846,4.0096,4.0403,4.0816,4.1098,4.1098,4.1473,4.183,4.198,4.1924,4.1792,4.1586,4.1379,4.1255,4.1073,4.0704,4.0309,4.0201,4.015,3.991,3.992,3.9857,3.9845,3.9867,3.9889,3.9889,3.9889,3.9889,3.9889,3.9889,4.0003,4.0476,4.1651,4.264,4.3531,4.4189,4.4662,4.4895,4.4938,4.4919,4.4919,4.4919,4.4895,4.4919,4.4943,4.4991,4.5057,4.5067,4.5138,4.5323,4.5664,4.6398,4.7119,2.8761,2.8883,2.9765,3.0619,3.1476,3.2265,3.3012,3.3587,3.3605,3.3538,3.3393,3.3393,3.3393,3.3393,3.3393,3.3422,3.3422,3.3462,3.412,3.4925,3.5725,3.6589,3.7539,3.829,3.8737,3.8833,3.8939,3.8997,3.9054,3.9092,3.9248,3.9346,3.9275,3.9229,3.9183,3.9156,3.924,3.938,3.9807,4.0197,4.0438,4.0791,4.1181,4.1237,4.1274,4.1089,4.0364,4.029,4.029,4.0308,4.029,4.0513,4.0866,4.0996,4.0977,4.0977,4.1043,4.1025,4.0933,4.029,3.9597,3.9705,4.0162,4.0896,4.1327,4.171,4.1924,4.198,4.2318,4.231,4.2216,4.2055,4.2412,4.2374,4.2299,4.2055,4.1912,4.168,4.1311,4.0898,4.0679,4.0553,4.0282,4.0273,3.9891,3.9857,3.9845,3.9826,3.9845,3.9845,3.9867,3.9867,3.9889,4.0571,4.1954,4.2806,4.3275,4.4045,4.4726,4.487,4.4914,4.4895,4.487,4.4895,4.4895,4.4895,4.4971,4.5171,4.5309,4.5223,4.5331,4.5792,4.6493,4.7346,4.7991,2.8687,2.8889,3.0152,3.0958,3.1444,3.2692,3.3369,3.355,3.3549,3.3462,3.3393,3.3393,3.3393,3.3393,3.3393,3.3393,3.3393,3.3422,3.3971,3.452,3.5198,3.609,3.7009,3.7759,3.8187,3.8645,3.8862,3.891,3.895,3.8979,3.9007,3.9064,3.912,3.9129,3.911,3.9166,3.938,3.9863,4.0253,4.0568,4.1163,4.1349,4.159,4.159,4.159,4.1479,4.1181,4.1144,4.1144,4.1126,4.1126,4.1386,4.1664,4.172,4.1739,4.1739,4.1757,4.1757,4.1712,4.1129,4.0858,4.0918,4.1263,4.1611,4.2117,4.2433,4.275,4.2938,4.3219,4.3313,4.352,4.3557,4.3632,4.3444,4.3182,4.29,4.2712,4.2517,4.2168,4.168,4.1548,4.148,4.113,4.0779,4.0287,3.9844,3.9815,3.9781,3.9781,3.98,3.9823,3.9917,3.9955,4.0636,4.1978,4.2545,4.2937,4.3863,4.4815,4.4815,4.484,4.484,4.4821,4.487,4.4908,4.4946,4.5098,4.5445,4.5596,4.5634,4.6013,4.6525,4.7321,4.8249,4.8678,2.8612,2.8844,3.0394,3.1146,3.1469,3.2958,3.3577,3.3549,3.352,3.3452,3.3393,3.3393,3.3393,3.3393,3.3393,3.3393,3.3393,3.3429,3.3767,3.4207,3.472,3.5453,3.6383,3.7223,3.7796,3.8345,3.8737,3.8851,3.8881,3.8862,3.8921,3.895,3.8989,3.9017,3.9073,3.9157,3.9528,4.0215,4.0736,4.1144,4.185,4.2259,4.2407,4.2426,4.2463,4.2222,4.2073,4.1943,4.1943,4.1962,4.198,4.2092,4.224,4.2314,4.2314,4.2296,4.2296,4.2296,4.227,4.1835,4.1865,4.1959,4.2099,4.2343,4.2726,4.3231,4.3558,4.3688,4.4158,4.4496,4.4496,4.4308,4.4233,4.3989,4.3876,4.3651,4.3557,4.3407,4.2919,4.2468,4.2393,4.228,4.1755,4.1292,4.0672,4.0118,3.9769,3.9735,3.9735,3.9754,3.9754,3.9905,4.0094,4.0939,4.1938,4.2605,4.3284,4.402,4.4764,4.4764,4.4764,4.4789,4.4789,4.4789,4.4852,4.4972,4.5294,4.5729,4.5963,4.6127,4.6746,4.7496,4.8207,4.9012,4.9191,2.851,2.8717,3.0296,3.1048,3.1354,3.2931,3.3549,3.3538,3.3509,3.3452,3.3411,3.3393,3.3393,3.3393,3.3393,3.3393,3.3393,3.3393,3.3484,3.3712,3.4207,3.4684,3.5453,3.6364,3.7302,3.7619,3.823,3.8732,3.8792,3.8773,3.8851,3.8881,3.8892,3.8968,3.9007,3.9073,3.9547,4.0401,4.1163,4.1869,4.2723,4.3336,4.3522,4.3559,4.3522,4.3206,4.289,4.2779,4.2779,4.2779,4.2779,4.302,4.3485,4.3578,4.3633,4.367,4.3726,4.3782,4.3801,4.2445,4.23,4.2779,4.292,4.3173,4.3952,4.4327,4.4243,4.4168,4.4439,4.4496,4.4496,4.4496,4.4496,4.4458,4.4308,4.4233,4.412,4.4064,4.3576,4.3286,4.32,4.3013,4.2404,4.1811,4.1111,4.0502,3.991,3.9746,3.9854,3.9929,3.9981,4.0207,4.0508,4.1393,4.2316,4.297,4.363,4.4327,4.4685,4.4685,4.4685,4.4712,4.4712,4.4731,4.5002,4.5299,4.5651,4.604,4.6577,4.7254,4.7916,4.8626,4.9297,4.9608,4.9618,2.844,2.8601,2.9674,3.0514,3.1266,3.2791,3.3481,3.3509,3.3452,3.3422,3.3411,3.3393,3.3393,3.3393,3.3393,3.3393,3.3393,3.3393,3.3393,3.3447,3.3767,3.4225,3.492,3.5818,3.6705,3.7369,3.8071,3.8559,3.8528,3.859,3.8603,3.8634,3.8773,3.8881,3.8921,3.909,3.9589,4.0889,4.1519,4.2143,4.341,4.3838,4.4005,4.4005,4.4005,4.3838,4.354,4.3503,4.3503,4.3503,4.3485,4.3689,4.3986,4.4005,4.4005,4.4005,4.4005,4.4005,4.3968,4.341,4.3336,4.3565,4.3651,4.3811,4.4244,4.4373,4.4401,4.444,4.4487,4.4468,4.4496,4.4496,4.4496,4.4496,4.4421,4.4439,4.4383,4.4402,4.4214,4.4111,4.4018,4.3531,4.2978,4.2716,4.2115,4.1485,4.0973,4.0547,4.0528,4.0509,4.0566,4.0791,4.1167,4.1976,4.2754,4.3326,4.3796,4.438,4.4578,4.4578,4.4605,4.4632,4.4753,4.4836,4.5232,4.5674,4.6232,4.6873,4.7796,4.8541,4.8881,4.9117,4.9447,4.9636,4.9665,2.8362,2.8522,2.9332,3.0152,3.112,3.2415,3.3132,3.3397,3.3422,3.3393,3.3393,3.3393,3.3393,3.3393,3.3393,3.3393,3.3393,3.3393,3.3393,3.3393,3.3393,3.3749,3.4407,3.5345,3.617,3.6966,3.7817,3.8415,3.8415,3.8415,3.8446,3.851,3.859,3.8683,3.8743,3.8999,3.9531,4.0633,4.1237,4.2026,4.3126,4.3751,4.3974,4.4005,4.4005,4.3968,4.4005,4.4005,4.4005,4.4005,4.4005,4.4005,4.4005,4.4005,4.4005,4.4005,4.4005,4.4005,4.3968,4.3968,4.3838,4.3912,4.4085,4.4141,4.4197,4.4263,4.4344,4.4401,4.4458,4.4487,4.4487,4.4487,4.4496,4.4496,4.4515,4.4515,4.4496,4.4496,4.4468,4.444,4.4355,4.3905,4.3557,4.3529,4.324,4.2642,4.2089,4.1649,4.1226,4.1196,4.1215,4.1402,4.1785,4.2543,4.3144,4.3603,4.4054,4.4439,4.4515,4.4515,4.4542,4.457,4.4756,4.4982,4.5434,4.6064,4.6949,4.774,4.8539,4.9047,4.9311,4.951,4.9604,4.9634,4.9634,2.8282,2.8434,2.9188,3.0025,3.091,3.1862,3.2687,3.3393,3.3393,3.3393,3.3393,3.3393,3.3393,3.3393,3.3393,3.3393,3.3393,3.3393,3.3393,3.3393,3.3393,3.3502,3.4039,3.5097,3.5836,3.6503,3.7389,3.8336,3.8382,3.8368,3.8401,3.8401,3.8465,3.851,3.8603,3.8805,3.9386,4.0228,4.1052,4.1872,4.2841,4.3564,4.3855,4.3961,4.3992,4.3974,4.4005,4.4005,4.4005,4.4005,4.4005,4.4005,4.4005,4.4005,4.4005,4.4005,4.4005,4.4005,4.4005,4.4005,4.4005,4.4005,4.4005,4.4079,4.4129,4.4202,4.4274,4.4344,4.4383,4.443,4.4458,4.4468,4.4449,4.4468,4.4487,4.4515,4.4496,4.4468,4.444,4.4411,4.4383,4.4157,4.4031,4.3964,4.3759,4.3535,4.2976,4.2648,4.2258,4.1903,4.1968,4.2098,4.251,4.31,4.3596,4.3933,4.4121,4.443,4.4505,4.4505,4.4533,4.4796,4.52,4.5566,4.5782,4.6477,4.7728,4.8555,4.9183,4.9521,4.9551,4.9551,4.9563,4.9551,4.9551,2.8264,2.8318,2.8578,2.917,3.0134,3.1524,3.2593,3.3339,3.3393,3.3393,3.3393,3.3393,3.3393,3.3393,3.3393,3.3393,3.3393,3.3393,3.3393,3.3393,3.3393,3.3393,3.3954,3.4963,3.5616,3.6359,3.7261,3.8274,3.8256,3.8289,3.8322,3.8322,3.8368,3.8382,3.8446,3.8554,3.9197,3.9933,4.0756,4.163,4.2543,4.3356,4.3717,4.3897,4.3929,4.3961,4.3974,4.3974,4.4005,4.4005,4.4005,4.4005,4.4005,4.4005,4.4005,4.4005,4.4005,4.4005,4.4005,4.4005,4.4005,4.4005,4.4005,4.4005,4.4073,4.4123,4.4195,4.4255,4.4314,4.4344,4.4401,4.4401,4.4411,4.444,4.4458,4.4487,4.4487,4.4468,4.444,4.4383,4.4325,4.4218,4.4147,4.4079,4.3881,4.3937,4.3794,4.3429,4.3162,4.2776,4.2677,4.2791,4.3081,4.3604,4.3876,4.4204,4.425,4.4344,4.4514,4.4805,4.518,4.5527,4.5856,4.6317,4.6824,4.7725,4.8833,4.9377,4.949,4.9509,4.9521,4.949,4.9509,4.9509,4.9509,2.8237,2.8264,2.8264,2.8748,2.9709,3.1016,3.1921,3.2448,3.3074,3.3393,3.3393,3.3393,3.3393,3.3393,3.3393,3.3393,3.3393,3.3393,3.3393,3.3393,3.3393,3.3393,3.3936,3.4932,3.5657,3.6381,3.7214,3.8225,3.8225,3.8207,3.8274,3.8274,3.8322,3.8336,3.8368,3.8437,3.8716,3.9557,4.0441,4.1351,4.2193,4.3092,4.3638,4.3851,4.3851,4.3915,4.3961,4.3942,4.3974,4.4005,4.4005,4.4005,4.4005,4.4005,4.4005,4.4005,4.4005,4.4005,4.4005,4.4005,4.4005,4.4005,4.4005,4.4005,4.4005,4.4055,4.4116,4.4195,4.4226,4.4255,4.4304,4.4362,4.4373,4.4401,4.443,4.4458,4.4487,4.4496,4.4411,4.4325,4.4237,4.4097,4.4036,4.3992,4.3961,4.3923,4.3892,4.3767,4.3582,4.3391,4.3348,4.3409,4.3711,4.4076,4.4226,4.4349,4.4547,4.4677,4.4961,4.5279,4.5795,4.6225,4.6555,4.729,4.807,4.8802,4.9358,4.9415,4.9509,4.9509,4.9509,4.9509,4.9509,4.9509,4.9509,2.8182,2.8209,2.82,2.8629,2.9446,3.0302,3.0736,3.088,3.2365,3.3146,3.3074,3.323,3.3194,3.314,3.3284,3.3375,3.3393,3.3393,3.3393,3.3393,3.3393,3.3393,3.3864,3.495,3.5675,3.6345,3.7196,3.8192,3.8192,3.8225,3.8225,3.8192,3.8225,3.8241,3.8307,3.834,3.8514,3.8816,3.9932,4.0983,4.1581,4.2551,4.3579,4.3753,4.3786,4.3818,4.3883,4.3897,4.391,4.3974,4.4005,4.4005,4.4005,4.4005,4.4005,4.4005,4.4005,4.4005,4.4005,4.4005,4.4005,4.4005,4.4005,4.4005,4.4005,4.4005,4.4085,4.4116,4.4165,4.4165,4.4214,4.4293,4.4304,4.4362,4.4373,4.443,4.4458,4.4458,4.4401,4.4314,4.4177,4.4036,4.4005,4.3974,4.3929,4.3897,4.38,4.3786,4.3734,4.3675,4.3735,4.3775,4.3899,4.4061,4.4197,4.4377,4.4773,4.5028,4.5345,4.5985,4.662,4.6956,4.7249,4.7985,4.8703,4.9015,4.9421,4.9459,4.949,4.9509,4.9509,4.9509,4.9509,4.9509,4.9509,2.8154,2.8182,2.8182,2.8334,2.8629,2.9446,2.9797,2.9914,3.0934,3.1441,3.1606,3.2151,3.2524,3.2614,3.3194,3.3393,3.3393,3.3393,3.3393,3.3393,3.3393,3.3393,3.3719,3.4987,3.5693,3.6327,3.7196,3.8192,3.8192,3.8192,3.8192,3.8192,3.8192,3.8225,3.8259,3.8274,3.8325,3.8394,3.9239,4.0324,4.1064,4.1886,4.2782,4.3324,4.3649,4.3719,4.3767,4.3883,4.3897,4.3929,4.3974,4.4005,4.4005,4.4005,4.4005,4.4005,4.4005,4.4005,4.4005,4.4005,4.4005,4.4005,4.4005,4.4005,4.4005,4.4005,4.4005,4.4055,4.4055,4.4073,4.4123,4.4202,4.4233,4.4274,4.4333,4.4373,4.4411,4.4401,4.4344,4.4255,4.4116,4.4036,4.4005,4.3942,4.3897,4.3832,4.3682,4.3634,4.3634,4.3597,4.3631,4.3712,4.3763,4.3939,4.4133,4.4517,4.5008,4.5491,4.5913,4.6597,4.7369,4.7788,4.8138,4.8632,4.9182,4.9308,4.9409,4.944,4.944,4.9459,4.9509,4.9509,4.9509,4.9509,4.9509,2.8126,2.8154,2.82,2.8182,2.8298,2.8746,2.8925,2.9042,2.9456,2.9691,3.0034,3.1289,3.2169,3.2306,3.3031,3.3375,3.3375,3.3393,3.3393,3.3393,3.3393,3.3393,3.4063,3.5005,3.5548,3.6218,3.7413,3.8192,3.8192,3.8192,3.8192,3.8192,3.8192,3.8192,3.8192,3.8241,3.8241,3.8277,3.8816,3.9465,4.0422,4.1405,4.2258,4.291,4.3293,4.3474,4.3701,4.3786,4.3883,4.3897,4.3974,4.4005,4.4005,4.4005,4.4005,4.4005,4.4005,4.4005,4.4005,4.4005,4.4005,4.4005,4.4005,4.4005,4.4005,4.4005,4.4005,4.4055,4.4055,4.4055,4.4055,4.4104,4.4184,4.4214,4.4255,4.4285,4.4344,4.4344,4.4285,4.4226,4.4085,4.4005,4.3974,4.3915,4.3851,4.3818,4.3667,4.36,4.3566,4.3532,4.355,4.3584,4.3671,4.4103,4.4554,4.4924,4.533,4.5864,4.649,4.7191,4.7911,4.8531,4.9061,4.9094,4.9127,4.9244,4.9295,4.9358,4.939,4.939,4.944,4.9509,4.949,4.949,4.9509,2.8099,2.8109,2.82,2.8182,2.8182,2.82,2.8217,2.8245,2.83,2.8354,2.8703,3.0736,3.1733,3.2278,3.285,3.3176,3.3375,3.3375,3.3393,3.3393,3.3393,3.3393,3.3973,3.495,3.5765,3.6616,3.7649,3.8047,3.8192,3.8192,3.8192,3.8192,3.8192,3.8174,3.8174,3.8174,3.8174,3.814,3.8409,3.8642,3.9688,4.0903,4.1718,4.2335,4.2935,4.3373,4.3566,4.3701,4.3786,4.3897,4.3942,4.3974,4.4005,4.4005,4.4005,4.4005,4.4005,4.4005,4.4005,4.4005,4.4005,4.4005,4.4005,4.4005,4.4005,4.4005,4.4005,4.4005,4.4005,4.4005,4.4005,4.4005,4.4085,4.4135,4.4165,4.4226,4.4255,4.4304,4.4244,4.4184,4.4104,4.4023,4.3961,4.3883,4.3837,4.3753,4.3686,4.3566,4.3497,4.3481,4.3481,4.3481,4.3481,4.4007,4.4699,4.5234,4.5621,4.6485,4.7129,4.7811,4.8365,4.8674,4.889,4.8943,4.9012,4.9113,4.9197,4.9262,4.9295,4.9276,4.9358,4.9409,4.9459,4.9459,4.949,2.8081,2.82,2.8182,2.8182,2.8182,2.8182,2.8182,2.8182,2.8209,2.8246,2.8569,2.9331,3.0366,3.1209,3.2043,3.2687,3.3364,3.3393,3.3393,3.3393,3.3393,3.3393,3.3864,3.5041,3.6453,3.7377,3.7957,3.8101,3.8192,3.8192,3.8192,3.8192,3.8192,3.814,3.8018,3.8036,3.8054,3.8038,3.8003,3.82,3.8719,3.991,4.1212,4.2064,4.2902,4.323,4.3481,4.3566,4.3686,4.38,4.3929,4.3974,4.4005,4.4005,4.4005,4.4005,4.4005,4.4005,4.4005,4.4005,4.4005,4.4005,4.4005,4.4005,4.4005,4.4005,4.4005,4.4005,4.4005,4.4005,4.4005,4.4005,4.4055,4.4085,4.4116,4.4177,4.4255,4.4226,4.4214,4.4135,4.4104,4.4023,4.4005,4.3929,4.3851,4.3786,4.3667,4.36,4.3497,4.3446,4.3394,4.3376,4.3322,4.378,4.4382,4.5297,4.5902,4.6875,4.7666,4.8071,4.8366,4.8532,4.8714,4.8768,4.8874,4.8978,4.9064,4.9131,4.9197,4.9211,4.9257,4.934,4.9358,4.9409,4.9409]},{"header":{"parameterUnit":"m.s-1","parameterCategory":1,"la1":31.0,"la2":29.5877,"lo1":-88.7671,"lo2":-86.6584,"dy":0.0162,"dx":0.0185,"nx":115,"ny":88,"refTime":"2023-04-15T06:00:00:Z","depth":0,"parameterNumber":3,"parameterNumberName":"V-component_of_WINDS"},"data":[0.0,0.0,0.0,0.0,0.0,0.0,0.0,0.0,0.0,0.0,0.0,0.0,0.0,0.0,0.0,0.0,0.0,0.0,0.0,0.0,0.0,0.0,0.0,0.0,0.0,0.0,0.0,0.0,0.0,0.0,0.0,0.0,0.0,0.0,0.0,0.0,0.0,0.0,0.0,0.0,0.0,0.0,0.0,0.0,0.0,0.0,0.0,0.0,0.0,0.0,0.0,0.0,0.0,0.0,0.0,0.0,0.0,0.0,0.0,0.0,0.0,0.0,0.0,0.0,0.0,0.0,0.0,0.0,0.0,0.0,0.0,0.0,0.0,0.0,0.0,0.0,0.0,0.0,0.0,0.0,0.0,0.0,0.0,0.0,0.0,0.0,0.0,0.0,0.0,0.0,0.0,0.0,0.0,0.0,0.0,0.0,0.0,0.0,0.0,0.0,0.0,0.0,0.0,0.0,0.0,0.0,0.0,0.0,0.0,0.0,0.0,0.0,0.0,0.0,0.0,0.0,0.0,0.0,0.0,0.0,0.0,0.0,0.0,0.0,0.0,0.0,0.0,0.0,0.0,0.0,0.0,0.0,0.0,0.0,0.0,0.0,0.0,0.0,0.0,0.0,0.0,0.0,0.0,0.0,0.0,0.0,0.0,0.0,0.0,0.0,0.0,0.0,0.0,0.0,0.0,0.0,0.0,0.0,0.0,0.0,0.0,0.0,0.0,0.0,0.0,0.0,0.0,0.0,0.0,0.0,0.0,0.0,0.0,0.0,0.0,0.0,0.0,0.0,0.0,0.0,0.0,0.0,0.0,0.0,0.0,0.0,0.0,0.0,0.0,0.0,0.0,0.0,0.0,0.0,0.0,0.0,0.0,0.0,0.0,0.0,0.0,0.0,0.0,0.0,0.0,0.0,0.0,0.0,0.0,0.0,0.0,0.0,0.0,0.0,0.0,0.0,0.0,0.0,0.0,0.0,0.0,0.0,0.0,0.0,0.0,0.0,0.0,0.0,0.0,0.0,0.0,0.0,0.0,0.0,0.0,0.0,0.0,0.0,0.0,0.0,0.0,0.0,0.0,0.0,0.0,0.0,0.0,0.0,0.0,0.0,0.0,0.0,0.0,0.0,0.0,0.0,0.0,0.0,0.0,0.0,0.0,0.0,0.0,0.0,0.0,0.0,0.0,0.0,0.0,0.0,0.0,0.0,0.0,0.0,0.0,0.0,0.0,0.0,0.0,0.0,0.0,0.0,0.0,0.0,0.0,0.0,0.0,0.0,0.0,0.0,0.0,0.0,0.0,0.0,0.0,0.0,0.0,0.0,0.0,0.0,0.0,0.0,0.0,0.0,0.0,0.0,0.0,0.0,0.0,0.0,0.0,0.0,0.0,0.0,0.0,0.0,0.0,0.0,0.0,0.0,0.0,0.0,0.0,0.0,0.0,0.0,0.0,0.0,0.0,0.0,0.0,0.0,0.0,0.0,0.0,0.0,0.0,0.0,0.0,0.0,0.0,0.0,0.0,0.0,0.0,0.0,0.0,0.0,0.0,0.0,0.0,0.0,0.0,0.0,0.0,0.0,0.0,0.0,0.0,0.0,0.0,0.0,0.0,0.0,0.0,0.0,0.0,0.0,0.0,0.0,0.0,0.0,0.0,0.0,0.0,0.0,0.0,0.0,0.0,0.0,0.0,0.0,0.0,0.0,0.0,0.0,0.0,0.0,0.0,0.0,0.0,0.0,0.0,0.0,0.0,0.0,0.0,0.0,0.0,0.0,0.0,0.0,0.0,0.0,0.0,0.0,0.0,0.0,0.0,0.0,0.0,0.0,0.0,0.0,0.0,0.0,0.0,0.0,0.0,0.0,0.0,0.0,0.0,0.0,0.0,0.0,0.0,0.0,0.0,0.0,0.0,0.0,0.0,0.0,0.0,0.0,0.0,0.0,0.0,0.0,0.0,0.0,0.0,0.0,0.0,0.0,0.0,0.0,0.0,0.0,0.0,0.0,0.0,0.0,0.0,0.0,0.0,0.0,0.0,0.0,0.0,0.0,0.0,0.0,0.0,0.0,0.0,0.0,0.0,0.0,0.0,0.0,0.0,0.0,0.0,0.0,0.0,0.0,0.0,0.0,0.0,0.0,0.0,0.0,0.0,0.0,0.0,0.0,0.0,0.0,0.0,0.0,0.0,0.0,0.0,0.0,0.0,0.0,0.0,0.0,0.0,0.0,0.0,0.0,0.0,0.0,0.0,0.0,0.0,0.0,0.0,0.0,0.0,0.0,0.0,0.0,0.0,0.0,0.0,0.0,0.0,0.0,0.0,0.0,0.0,0.0,0.0,0.0,0.0,0.0,0.0,0.0,0.0,0.0,0.0,0.0,0.0,0.0,0.0,0.0,0.0,0.0,0.0,0.0,0.0,0.0,0.0,0.0,0.0,0.0,0.0,0.0,0.0,0.0,0.0,0.0,0.0,0.0,0.0,0.0,0.0,0.0,0.0,0.0,0.0,0.0,0.0,0.0,0.0,0.0,0.0,0.0,0.0,0.0,0.0,0.0,0.0,0.0,0.0,0.0,0.0,0.0,0.0,0.0,0.0,0.0,0.0,0.0,0.0,0.0,0.0,0.0,0.0,0.0,0.0,0.0,0.0,0.0,0.0,0.0,0.0,0.0,0.0,0.0,0.0,0.0,0.0,0.0,0.0,0.0,0.0,0.0,0.0,0.0,0.0,0.0,0.0,0.0,0.0,0.0,0.0,0.0,0.0,0.0,0.0,0.0,0.0,0.0,0.0,0.0,0.0,0.0,0.0,0.0,0.0,0.0,0.0,0.0,0.0,0.0,0.0,0.0,0.0,0.0,0.0,0.0,0.0,0.0,0.0,0.0,0.0,0.0,0.0,0.0,0.0,0.0,0.0,0.0,0.0,0.0,0.0,0.0,0.0,0.0,0.0,0.0,0.0,0.0,0.0,0.0,0.0,0.0,0.0,0.0,0.0,0.0,0.0,0.0,0.0,0.0,0.0,0.0,0.0,0.0,0.0,0.0,0.0,0.0,0.0,0.0,0.0,0.0,0.0,0.0,0.0,0.0,0.0,0.0,0.0,0.0,0.0,0.0,0.0,0.0,0.0,0.0,0.0,0.0,0.0,0.0,0.0,0.0,0.0,0.0,0.0,0.0,0.0,0.0,0.0,0.0,0.0,0.0,0.0,0.0,0.0,0.0,0.0,0.0,0.0,0.0,0.0,0.0,0.0,0.0,0.0,0.0,0.0,0.0,0.0,0.0,0.0,0.0,0.0,0.0,0.0,0.0,0.0,0.0,0.0,0.0,0.0,0.0,0.0,0.0,0.0,0.0,0.0,0.0,0.0,0.0,0.0,0.0,0.0,0.0,0.0,0.0,0.0,0.0,0.0,0.0,0.0,0.0,0.0,0.0,0.0,0.0,0.0,0.0,0.0,0.0,0.0,0.0,0.0,0.0,0.0,0.0,0.0,0.0,0.0,0.0,0.0,0.0,0.0,0.0,0.0,0.0,0.0,0.0,0.0,0.0,0.0,0.0,0.0,0.0,0.0,0.0,0.0,0.0,0.0,0.0,0.0,0.0,0.0,0.0,0.0,0.0,0.0,0.0,0.0,0.0,0.0,0.0,0.0,0.0,0.0,0.0,0.0,0.0,0.0,0.0,0.0,0.0,0.0,0.0,0.0,0.0,0.0,0.0,0.0,0.0,0.0,0.0,0.0,0.0,0.0,0.0,0.0,0.0,0.0,0.0,0.0,0.0,0.0,0.0,0.0,0.0,0.0,0.0,0.0,0.0,0.0,0.0,0.0,0.0,0.0,0.0,0.0,0.0,0.0,0.0,0.0,0.0,0.0,0.0,0.0,0.0,0.0,0.0,0.0,0.0,0.0,0.0,0.0,0.0,0.0,0.0,0.0,0.0,0.0,0.0,0.0,0.0,0.0,0.0,0.0,0.0,0.0,0.0,0.0,0.0,0.0,0.0,0.0,0.0,0.0,0.0,0.0,0.0,0.0,0.0,0.0,0.0,0.0,0.0,0.0,0.0,0.0,0.0,0.0,0.0,0.0,0.0,0.0,0.0,0.0,0.0,0.0,0.0,0.0,0.0,0.0,0.0,0.0,0.0,0.0,0.0,0.0,0.0,0.0,0.0,0.0,0.0,0.0,0.0,0.0,0.0,0.0,0.0,0.0,0.0,0.0,0.0,0.0,0.0,0.0,0.0,0.0,0.0,0.0,0.0,0.0,0.0,0.0,0.0,0.0,0.0,-0.0518,0.0,0.0,0.0,0.0,0.0,0.0,0.0,0.0,0.0,0.0,0.0,0.0,0.0,0.0,0.0,0.0,0.0,0.0,0.0,0.0,0.0,0.0,0.0,0.0,0.0,0.0,0.0,0.0,0.0,0.0,0.0,0.0,0.0,0.0,0.0,0.0,0.0,0.0,0.0,0.0,0.0,0.0,0.0,0.0,0.0,0.0,0.0,0.0,0.0,0.0,0.0,0.0,0.0,0.0,0.0,0.0,0.0,0.0,0.0,0.0,0.0,0.0,0.0,0.0,0.0,0.0,0.0,0.0,0.0,0.0,0.0,0.0,0.0,0.0,0.0,0.0,0.0,0.0,0.0,0.0,0.0,0.0,0.0,0.0,0.0,0.0,0.0,0.0,0.0,0.0,0.0,0.0,0.0,0.0,0.0,0.0,0.0,0.0,0.0,0.0,0.0,0.0,0.0,0.0,0.0,0.0,0.0,0.0,0.0,0.0,-0.0962,-0.0761,-0.063,-0.0473,-0.0225,0.0,0.0,0.0,0.0,0.0,0.0,0.0,0.0,0.0,0.0,0.0,0.0,0.0,0.0,0.0,0.0,0.0,0.0,0.0,0.0,0.0,0.0,0.0,0.0,0.0,0.0,0.0,0.0,0.0,0.0,0.0,0.0,0.0,0.0,0.0,0.0,0.0,0.0,0.0,0.0,0.0,0.0,0.0,0.0,0.0,0.0,0.0,0.0,0.0,0.0,0.0,0.0,0.0,0.0,0.0,0.0,0.0,0.0,0.0,0.0,0.0,0.0,0.0,0.0,0.0,0.0,0.0,0.0,0.0,0.0,0.0,0.0,0.0,0.0,0.0,0.0,0.0,0.0,0.0,0.0,0.0,0.0,0.0,0.0,0.0,0.0,0.0,0.0,0.0,0.0,0.0,0.0,0.0,0.0,0.0,0.0,0.0,0.0,0.0,0.0,0.0,0.0,0.0,0.0,0.0,0.0,0.0,0.0,0.0,0.0,0.0,0.0,-0.0496,-0.0252,0.0142,0.0,0.0,0.0,0.0,0.0,0.0,0.0,0.0,0.0,0.0,0.0,0.0,0.0,0.0,0.0,0.0,0.0,0.0,0.0,0.0,0.0,0.0,0.0,0.0,0.0,0.0,0.0,0.0,0.0,0.0,0.0,0.0,0.0,0.0,0.0,0.0,0.0,0.0,0.0,0.0,0.0,0.0,0.0,0.0,0.0,0.0,0.0,0.0,0.0,0.0,0.0,0.0,0.0,0.0,0.0,0.0,0.0,0.0,0.0,0.0,0.0,0.0,0.0,0.0,0.0,0.0,0.0,0.0,0.0,0.0,0.0,0.0,0.0,0.0,0.0,0.0,0.0,0.0,0.0,0.0,0.0,0.0,0.0,0.0,0.0,0.0,0.0,0.0,0.0,0.0,0.0,0.0,0.0,0.0,0.0,0.0,0.0,0.0,0.0,0.0,0.0,0.0,0.0,0.0,0.0,0.0,0.0,0.0,0.0,0.0,-0.0719,-0.0518,-0.0337,0.0,0.0598,0.0,0.0,0.0,0.0,0.0,0.0,0.0,0.0,0.0,0.0,0.0,0.0,0.0,0.0,0.0,0.0,0.0,0.0,0.0,0.0,0.0,0.0,0.0,0.0,0.0,0.0,0.0,0.0,0.0,0.0,0.0,0.0,0.0,0.0,0.0,0.0,0.0,0.0,0.0,0.0,0.0,0.0,0.0,0.0,0.0,0.0,0.0,0.0,0.0,0.0,0.0,0.0,0.0,0.0,0.0,0.0,0.0,0.0,0.0,0.0,0.0,0.0,0.0,0.0,0.0,0.0,0.0,0.0,0.0,0.0,0.0,0.0,0.0,0.0,0.0,0.0,0.0,0.0,0.0,0.0,0.0,0.0,0.0,0.0,0.0,0.0,0.0,0.0,0.0,0.0,0.0,0.0,0.0,0.0,0.0,0.0,0.0,0.0,0.0,0.0,0.0,0.0,0.0,0.0,0.0,0.0,0.0,0.0,0.0,0.0,-0.0586,-0.027,0.0045,0.0387,0.0,0.0,0.0,0.0,0.0,0.0,0.0,0.0,0.0,0.0,0.0,0.0,0.0,0.0,0.0,0.0,0.0,0.0,0.0,0.0,0.0,0.0,0.0,0.0,0.0,0.0,0.0,0.0,0.0,0.0,0.0,0.0,0.0,0.0,0.0,0.0,0.0,0.0,0.0,0.0,0.0,0.0,0.0,0.0,0.0,0.0,0.0,0.0,0.0,0.0,0.0,0.0,0.0,0.0,0.0,0.0,0.0,0.0,0.0,0.0,0.0,0.0,0.0,0.0,0.0,0.0,0.0,0.0,0.0,0.0,0.0,0.0,0.0,0.0,0.0,0.0,0.0,0.0,0.0,0.0,0.0,0.0,0.0,0.0,0.0,0.0,0.0,0.0,0.0,0.0,0.0,0.0,0.0,0.0,0.0,0.0,0.0,0.0,0.0,0.0,0.0,0.0,0.0,0.0,0.0,0.0,0.0,0.0,0.0,0.0,-0.0653,-0.0406,0.0068,0.0368,0.0643,0.0808,0.0,0.0,0.0,0.0,0.0,0.0,0.0,0.0,0.0,0.0,0.0,0.0,0.0,0.0,0.0,0.0,0.0,0.0,0.0,0.0,0.0,0.0,0.0,0.0,0.0,0.0,0.0,0.0,0.0,0.0,0.0,0.0,0.0,0.0,0.0,0.0,0.0,0.0,0.0,0.0,0.0,0.0,0.0,0.0,0.0,0.0,0.0,0.0,0.0,0.0,0.0,0.0,0.0,0.0,0.0,0.0,0.0,0.0,0.0,0.0,0.0,0.0,0.0,0.0,0.0,0.0,0.0,0.0,0.0,0.0,0.0,0.0,0.0,0.0,0.0,0.0,0.0,0.0,0.0,0.0,0.0,0.0,0.0,0.0,0.0,0.0,0.0,0.0,0.0,0.0,0.0,0.0,0.0,0.0,0.0,0.0,0.0,0.0,0.0,0.0,0.0,0.0,0.0,0.0,0.0,0.0,0.0,0.0,-0.0701,-0.0565,-0.018,0.0452,0.0606,0.0757,0.0,0.0,0.0,0.0,0.0,0.0,0.0,0.0,0.0,0.0,0.0,0.0,0.0,0.0,0.0,0.0,0.0,0.0,0.0,0.0,0.0,0.0,0.0,0.0,0.0,0.0,0.0,0.0,0.0,0.0,0.0,0.0,0.0,0.0,0.0,0.0,0.0,0.0,0.0,0.0,0.0,0.0,0.0,0.0,0.0,0.0,0.0,0.0,0.0,0.0,0.0,0.0,0.0,0.0,0.0,0.0,0.0,0.0,0.0,0.0,0.0,0.0,0.0,0.0,0.0,0.0,0.0,0.0,0.0,0.0,0.0,0.0,0.0,0.0,0.0,0.0,0.0,0.0,0.0,0.0,0.0,0.0,0.0,0.0,0.0,0.0,0.0,0.0,0.0,0.0,0.0,0.0,0.0,0.0,0.0,0.0,0.0,0.0,0.0,0.0,0.0,0.0,0.0,0.0,0.0,0.0,0.0,0.0,0.0,-0.0548,-0.0234,0.0156,0.0625,0.0746,0.0892,0.0,0.0,0.0,0.0,0.0,0.0,0.0,0.0,0.0,0.0,0.0,0.0,0.0,0.0,0.0,0.0,0.0,0.0,0.0,0.0,0.0,0.0,0.0,0.0,0.0,0.0,0.0,0.0,0.0,0.0,0.0,0.0,0.0,0.0,0.0,0.0,0.0,0.0,0.0,0.0,0.0,0.0,0.0,0.0,0.0,0.0,0.0,0.0,0.0,0.0,0.0,0.0,0.0,0.0,0.0,0.0,0.0,0.0,0.0,0.0,0.0,0.0,0.0,0.0,0.0,0.0,0.0,0.0,0.0,0.0,0.0,0.0,0.0,0.0,0.0,0.0,0.0,0.0,0.0,0.0,0.0,0.0,0.0,0.0,0.0,0.0,0.0,0.0,0.0,0.0,0.0,0.0,0.0,0.0,0.0,0.0,0.0,0.0,0.0,0.0,0.0,0.0,0.0,0.0,0.0,0.0,0.0,0.0,0.0,-0.031,0.0,0.0474,0.0783,0.0884,0.0974,0.0,0.0,0.0,0.0,0.0,0.0,0.0,0.0,0.0,0.0,0.0,0.0,0.0,0.0,0.0,0.0,0.0,0.0,0.0,0.0,0.0,0.0,0.0,0.0,0.0,0.0,0.0,0.0,0.0,0.0,0.0,0.0,0.0,0.0,0.0,0.0,0.0,0.0,0.0,0.0,0.0,0.0,0.0,0.0,0.0,0.0,0.0,0.0,0.0,0.0,0.0,0.0,0.0,0.0,0.0,0.0,0.0,0.0,0.0,0.0,0.0,0.0,0.0,0.0,0.0,0.0,0.0,0.0,0.0,0.0,0.0,0.0,0.0,0.0,0.0,0.0,0.0,0.0,0.0,0.0,0.0,0.0,0.0,0.0,0.0,0.0,0.0,0.0,0.0,0.0,0.0,0.0,0.0,0.0,0.0,0.0,0.0,0.0,0.0,0.0,0.0,0.0,0.0,0.0,0.0,0.0,0.0,0.0,-0.0283,0.0085,0.0479,0.0791,0.1011,0.0986,0.1142,0.0,0.0,0.0,0.0,0.0,0.0,0.0,0.0,0.0,0.0,0.0,0.0,0.0,0.0,0.0,0.0,0.0,0.0,0.0,0.0,0.0,0.0,0.0,0.0,0.0,0.0,0.0,0.0,0.0,0.0,0.0,0.0,0.0,0.0,0.0,0.0,0.0,0.0,0.0,0.0,0.0,0.0,0.0,0.0,0.0,0.0,0.0,0.0,0.0,0.0,0.0,0.0,0.0,0.0,0.0,0.0,0.0,0.0,0.0,0.0,0.0,0.0,0.0,0.0,0.0,0.0,0.0,0.0,0.0,0.0,0.0,0.0,0.0,0.0,0.0,0.0,0.0,0.0,0.0,0.0,0.0,0.0,0.0,0.0,0.0,0.0,0.0,0.0,0.0,0.0,0.0,0.0,0.0,0.0,0.0,0.0,0.0,0.0,0.0,0.0,0.0,0.0,0.0,0.0,0.0,0.0,0.0,0.0,0.0,0.0319,0.0669,0.0892,0.1052,0.1169,0.1311,0.0,0.0,0.0,0.0,0.0,0.0,0.0,0.0,0.0,0.0,0.0,0.0,0.0,0.0,0.0,0.0,0.0,0.0,0.0,0.0,0.0,0.0,0.0,0.0,0.0,0.0,0.0,0.0,0.0,0.0,0.0,0.0,0.0,0.0,0.0,0.0,0.0,0.0,0.0,0.0,0.0,0.0,0.0,0.0,0.0,0.0,0.0,0.0,0.0,0.0,0.0,0.0,0.0,0.0,0.0,0.0,0.0,0.0,0.0,0.0,0.0,0.0,0.0,0.0,0.0,0.0,0.0,0.0,0.0,0.0,0.0,0.0,0.0,0.0,0.0,0.0,0.0,0.0,0.0,0.0,0.0,0.0,0.0,0.0,0.0,0.0,0.0,0.0,0.0,0.0,0.0,0.0,0.0,0.0,0.0,0.0,0.0,0.0,0.0,0.0,0.0,0.0,0.0,0.0,0.0,0.0,0.0,0.0,0.0,0.0707,0.0908,0.101,0.1111,0.1281,0.1447,0.1579,0.0,0.0,0.0,0.0,0.0,0.0,0.0,0.0,0.0,0.0,0.0,0.0,0.0,0.0,0.0,0.0,0.0,0.0,0.0,0.0,0.0,0.0,0.0,0.0,0.0,0.0,0.0,0.0,0.0,0.0,0.0,0.0,0.0,0.0,0.0,0.0,0.0,0.0,0.0,0.0,0.0,0.0,0.0,0.0,0.0,0.0,0.0,0.0,0.0,0.0,0.0,0.0,0.0,0.0,0.0,0.0,0.0,0.0,0.0,0.0,0.0,0.0,0.0,0.0,0.0,0.0,0.0,0.0,0.0,0.0,0.0,0.0,0.0,0.0,0.0,0.0,0.0,0.0,0.0,0.0,0.0,0.0,0.0,0.0,0.0,0.0,0.0,0.0,0.0,0.0,0.0,0.0,0.0,0.0,0.0,0.0,0.0,0.0,0.0,0.0,0.0,0.0,0.0,0.0,0.0,0.0,0.0,0.0,0.1286,0.1187,0.1189,0.1254,0.1428,0.1591,0.0,0.0,0.0,0.0,0.0,0.0,0.0,0.0,0.0,0.0,0.0,0.0,0.0,0.0,0.0,0.0,0.0,0.0,0.0,0.0,0.0,0.0,0.0,0.0,0.0,0.0,0.0,0.0,0.0,0.0,0.0,0.0,0.0,0.0,0.0,0.0,0.0,0.0,0.0,0.0,0.0,0.0,0.0,0.0,0.0,0.0,0.0,0.0,0.0,0.0,0.0,0.0,0.0,0.0,0.0,0.0,0.0,0.0,0.0,0.0,0.0,0.0,0.0,0.0,0.0,0.0,0.0,0.0,0.0,0.0,0.0,0.0,0.0,0.0,0.0,0.0,0.0,0.0,0.0,0.0,0.0,0.0,0.0,0.0,0.0,0.0,0.0,0.0,0.0,0.0,0.0,0.0,0.0,0.0,0.0,0.0,0.0,0.0,0.0,0.0,0.0,0.0,0.0,0.0,0.0,0.0,0.0,0.0,0.0,0.1217,0.1518,0.1669,0.1644,0.1739,0.1854,0.0,0.0,0.0,0.0,0.0,0.0,0.0,0.0,0.0,0.0,0.0,0.0,0.0,0.0,0.0,0.0,0.0,0.0,0.0,0.0,0.0,0.0,0.0,0.0,0.0,0.0,0.0,0.0,0.0,0.0,0.0,0.0,0.0,0.0,0.0,0.0,0.0,0.0,0.0,0.0,0.0,0.0,0.0,0.0,0.0,0.0,0.0,0.0,0.0,0.0,0.0,0.0,0.0,0.0,0.0,0.0,0.0,0.0,0.0,0.0,0.0,0.0,0.0,0.0,0.0,0.0,0.0,0.0,0.0,0.0,0.0,0.0,0.0,0.0,0.0,0.0,0.0,0.0,0.0,0.0,0.0,0.0,0.0,0.0,0.0,0.0,0.0,0.0,0.0,0.0,0.0,0.0,0.0,0.0,0.0,0.0,0.0,0.0,0.0,0.0,0.0,0.0,0.0,0.0,0.0,0.0,0.0,0.0,0.1277,0.1315,0.1757,0.1992,0.2053,0.203,0.2089,0.0,0.0,0.0,0.0,0.0,0.0,0.0,0.0,0.0,0.0,0.0,0.0,0.0,0.0,0.0,0.0,0.0,0.0,0.0,0.0,0.0,0.0,0.0,0.0,0.0,0.0,0.0,0.0,0.0,0.0,0.0,0.0,0.0,0.0,0.0,0.0,0.0,0.0,0.0,0.0,0.0,0.0,0.0,0.0,0.0,0.0,0.0,0.0,0.0,0.0,0.0,0.0,0.0,0.0,0.0,0.0,0.0,0.0,0.0,0.0,0.0,0.0,0.0,0.0,0.0,0.0,0.0,0.0,0.0,0.0,0.0,0.0,0.0,0.0,0.0,0.0,0.0,0.0,0.0,0.0,0.0,0.0,0.0,0.0,0.0,0.0,0.0,0.0,0.0,0.0,0.0,0.0,0.0,0.0,0.0,0.0,0.0,0.0,0.0,0.0,0.0,0.0,0.0,0.0,0.0,0.0,0.0,0.0,0.1329,0.156,0.1946,0.2242,0.2443,0.2316,0.2342,0.0,0.0,0.0,0.0,0.0,0.0,0.0,0.0,0.0,0.0,0.0,0.0,0.0,0.0,0.0,0.0,0.0,0.0,0.0,0.0,0.0,0.0,0.0,0.0,0.0,0.0,0.0,0.0,0.0,0.0,0.0,0.0,0.0,0.0,0.0,0.0,0.0,0.0,0.0,0.0,0.0,0.0,0.0,0.0,0.0,0.0,0.0,0.0,0.0,0.0,0.0,0.0,0.0,0.0,0.0,0.0,0.0,0.0,0.0,0.0,0.0,0.0,0.0,0.0,0.0,0.0,0.0,0.0,0.0,0.0,0.0,0.0,0.0,0.0,0.0,0.0,0.0,0.0,0.0,0.0,0.0,0.0,0.0,0.0,0.0,0.0,0.0,0.0,0.0,0.0,0.0,0.0,0.0,0.0,0.0,0.0,0.0,0.0,0.0,0.0,0.0,0.0,0.0,0.0,0.0,0.0,0.0,0.0,0.1612,0.1962,0.228,0.2517,0.2783,0.2762,0.2748,0.0,0.0,0.0,0.0,0.0,0.0,0.0,0.0,0.0,0.0,0.0,0.0,0.0,0.0,0.0,0.0,0.0,0.0,0.0,0.0,0.0,0.0,0.0,0.0,0.0,0.0,0.0,0.0,0.0,0.0,0.0,0.0,0.0,0.0,0.0,0.0,0.0,0.0,0.0,0.0,0.0,0.0,0.0,0.0,0.0,0.0,0.0,0.0,-0.1134,0.0,0.0,0.0,0.0,0.0,0.0,0.0,0.0,0.0,0.0,0.0,0.0,0.0,0.0,0.0,0.0,0.0,0.0,0.0,0.0,0.0,0.0,0.0,0.0,0.0,0.0,0.0,0.0,0.0,0.0,0.0,0.0,0.0,0.0,0.0,0.0,0.0,0.0,0.0,0.0,0.0,0.0,0.0,0.0,0.0,0.0,0.0,0.0,0.0,0.0,0.0,0.0,0.0,0.0,0.0,0.0,0.0,0.0,0.0,0.1723,0.2101,0.2365,0.2637,0.2865,0.2998,0.3055,0.0,0.0,0.0,0.0,0.0,0.0,0.0,0.0,0.0,0.0,0.0,0.0,0.0,0.0,0.0,0.0,0.0,0.0,0.0,0.0,0.0,0.0,0.0,0.0,0.0,0.0,0.0,0.0,0.0,0.0,0.0,0.0,0.0,0.0,0.0,0.0,0.0,0.0,0.0,0.0,0.0,0.0,0.0,0.0,0.0,0.0,0.0,0.0,0.0,0.0,0.0,0.0,0.0,0.0,0.0,0.0,0.0,0.0,0.0,0.0,0.0,0.0,0.0,0.0,0.0,0.0,0.0,0.0,0.0,0.0,0.0,0.0,0.0,0.0,0.0,0.0,0.0,0.0,0.0,0.0,0.0,0.0,0.0,0.0,0.0,0.0,0.0,0.0,0.0,0.0,0.0,0.0,0.0,0.0,0.0,0.0,0.0,0.0,0.0,0.0,0.0,0.0,0.0,0.0,0.0,0.0,0.0,0.1475,0.1784,0.2162,0.2417,0.264,0.2957,0.3173,0.3262,0.3262,0.0,0.0,0.0,0.0,0.0,0.0,0.0,0.0,0.0,0.0,0.0,0.0,0.0,0.0,0.0,0.0,0.0,0.0,0.0,0.0,0.0,0.0,0.0,0.0,0.0,0.0,0.0,0.0,0.0,0.0,0.0,0.0,0.0,0.0,0.0,0.0,0.0,0.0,-0.1248,-0.112,0.0,0.0,0.0,0.0,0.0,0.0,0.0,0.0,-0.045,0.0,0.0,0.0,0.0,0.0,0.0,0.0,0.0,0.0,0.0,0.0,0.0,0.0,0.0,0.0,0.0,0.0,0.0,0.0,0.0,0.0,0.0,0.0,0.0,0.0,0.0,0.0,0.0,0.0,0.0,0.0,0.0,0.0,0.0,0.0,0.0,0.0,0.0,0.0,0.0,0.0,0.0,0.0,0.0,0.0,0.0,0.0,0.0,0.0,0.0,0.0,0.0,0.0,0.0,0.0,0.0,0.1517,0.1615,0.1951,0.2434,0.2586,0.2818,0.3129,0.3398,0.353,0.3612,0.0,0.0,0.0,0.0,0.0,0.0,0.0,0.0,0.0,0.0,0.0,0.0,0.0,0.0,0.0,0.0,0.0,0.0,0.0,0.0,0.0,0.0,0.0,0.0,0.0,0.0,0.0,0.0,0.0,0.0,0.0,0.0,0.0,0.0,0.0,0.0,0.0,0.0,0.0,-0.0989,-0.0944,0.0,0.0,0.0,0.0,0.0,0.0,0.0,0.0,-0.0,0.0,0.0,0.0,0.0,0.0,0.0,0.0,0.0,0.0,0.0,0.0,0.0,0.0,0.0,0.0,0.0,0.0,0.0,0.0,0.0,0.0,0.0,0.0,0.0,0.0,0.0,0.0,0.0,0.0,0.0,0.0,0.0,0.0,0.0,0.0,0.0,0.0,0.0,0.0,0.0,0.0,0.0,0.0,0.0,0.0,0.0,0.0,0.0,0.0,0.0,0.0,0.0,0.0,0.0,0.0,0.1588,0.1764,0.2017,0.2499,0.2684,0.2909,0.317,0.3486,0.3663,0.0,0.0,0.0,0.0,0.0,0.0,0.0,0.0,0.0,0.0,0.0,0.0,0.0,0.0,0.0,0.0,0.0,0.0,0.0,0.0,0.0,0.0,0.0,0.0,0.0,0.0,0.0,0.0,0.0,0.0,0.0,0.0,0.0,0.0,0.0,0.0,0.0,0.0,0.0,0.0,-0.09,-0.0764,-0.0539,0.0,0.0,0.0,0.0,0.0,0.0,0.043,0.0481,0.0,0.0,0.0,0.0,0.0,0.0,0.0,0.0,0.0,0.0,0.0,0.0,0.0,0.0,0.0,0.0,0.0,0.0,0.0,0.0,0.0,0.0,0.0,0.0,0.0,0.0,0.0,0.0,0.0,0.0,0.0,0.0,0.0,0.0,0.0,0.0,0.0,0.0,0.0,0.0,0.0,0.0,0.0,0.0,0.0,0.0,0.0,0.0,0.0,0.0,0.0,0.0,0.0,0.0,0.0,0.1614,0.1831,0.2121,0.2499,0.2773,0.3043,0.3258,0.3486,0.3751,0.0,0.0,0.0,0.0,0.0,0.0,0.0,0.0,0.0,0.0,0.0,0.0,0.0,0.0,0.0,0.0,0.0,0.0,0.0,0.0,0.0,0.0,0.0,0.0,0.0,0.0,0.0,0.0,0.0,0.0,0.0,0.0,0.0,0.0,0.0,0.0,0.0,0.0,0.0,0.0,0.0,-0.0599,-0.0322,-0.0046,0.0,0.0,0.0,0.0,0.0753,0.0807,0.0,0.0,0.0,0.0,0.0,0.0,0.0,0.0,0.0,0.0,0.0,0.0,0.0,0.0,0.0,0.0,0.0,0.0,0.0,0.0,0.0,0.0,0.0,0.0,0.0,0.0,0.0,0.0,0.0,0.0,0.0,0.0,0.0,0.0,0.0,0.0,0.0,0.0,0.0,0.0,0.0,0.0,0.0,0.0,0.0,0.0,0.0,0.0,0.0,0.0,0.0,0.0,0.0,0.0,0.0,0.0,0.1775,0.2051,0.2275,0.2504,0.2815,0.3126,0.335,0.3704,0.3968,0.0,0.0,0.0,0.0,0.0,0.0,0.0,0.0,0.0,0.0,0.0,0.0,0.0,0.0,0.0,0.0,0.0,0.0,0.0,0.0,0.0,0.0,0.0,0.0,0.0,0.0,0.0,0.0,0.0,0.0,0.0,0.0,0.0,0.0,0.0,0.0,0.0,0.0,0.0,0.0,0.0,-0.0498,-0.005,0.0448,0.0798,0.0,0.0,0.0753,0.0806,0.0908,0.0,0.0,0.0,0.0,0.0,0.0,0.0,0.0,0.0,0.0,0.0,0.0,0.0,0.0,0.0,0.0,0.0,0.0,0.0,0.0,0.0,0.0,0.0,0.0,0.0,0.0,0.0,0.0,0.0,0.0,0.0,0.0,0.0,0.0,0.0,0.0,0.0,0.0,0.0,0.0,0.0,0.0,0.0,0.0,0.0,0.0,0.0,0.0,0.0,0.0,0.0,0.0,0.0,0.0,0.0,0.1539,0.1792,0.2105,0.237,0.2595,0.2948,0.3258,0.3486,0.3751,0.4012,0.0,0.0,0.0,0.0,0.0,0.0,0.0,0.0,0.0,0.0,0.0,0.0,0.0,0.0,0.0,0.0,0.0,0.0,0.0,0.0,0.0,0.0,0.0,0.0,0.0,0.0,0.0,0.0,0.0,0.0,0.0,0.0,0.0,0.0,0.0,0.0,0.0,0.0,0.0,0.0,0.0,0.0,0.0504,0.0706,0.0,0.0,0.0,0.0996,0.0963,0.0,0.0,0.0,0.0,0.0,0.0,0.0,0.0,0.0,0.0,0.0,0.0,0.0,0.0,0.0,0.0,0.0,0.0,0.0,0.0,0.0,0.0,0.0,0.0,0.0,0.0,0.0,0.0,0.0,0.0,0.0,0.0,0.0,0.0,0.0,0.0,0.0,0.0,0.0,0.0,0.0,0.0,0.0,0.0,0.0,0.0,0.0,0.0,0.0,0.0,0.0,0.0,0.0,0.0,0.0,0.0,0.0,0.1885,0.2217,0.2542,0.2773,0.3118,0.3455,0.3732,0.3956,0.0,0.0,0.0,0.0,0.0,0.0,0.0,0.0,0.0,0.0,0.0,0.0,0.0,0.0,0.0,0.0,0.0,0.0,0.0,0.0,0.0,0.0,0.0,0.0,0.0,0.0,0.0,0.0487,0.0,0.0,0.0,0.0,0.0,0.0,0.0,0.0,0.0,0.0,0.0,0.0,0.0,0.0,0.0467,0.083,0.0829,0.0837,0.0,0.0,0.109,0.1118,0.129,0.1403,0.0,0.0,0.0,0.0,0.0,0.0,0.0,0.0,0.0,0.0,0.0,0.0,0.0,0.0,0.0,0.0,0.0,0.0,0.0,0.0,0.0,0.0,0.0,0.0,0.0,0.0,0.0,0.0,0.0,0.0,0.0,0.0,0.0,0.0,0.0,0.0,0.0,0.0,0.0,0.0,0.0,0.0,0.0,0.0,0.0,0.0,0.0,0.0,0.0,0.0,0.0,0.0,0.0,0.0,0.0,0.2158,0.2514,0.2795,0.3078,0.3383,0.3745,0.4129,0.4277,0.4624,0.0,0.0,0.0,0.0,0.0,0.0,0.0,0.0,0.0,0.0,0.0,0.0,0.0,0.0,0.0,0.0,0.0,0.0,0.0,0.0,0.0,0.0,0.0,0.0,0.0,0.0,0.0,0.0,0.0,0.0,0.0,0.0,0.0,0.0,0.0,0.0,0.0,0.0,0.0,0.0,0.0,0.0835,0.0892,0.0891,0.0947,0.0,0.0,0.1119,0.129,0.1459,0.1572,0.1572,0.0,0.0,0.0,0.0,0.0,0.0,0.0,0.0,0.0,0.0,0.0,0.0,0.0,0.0,0.0,0.0,0.0,0.0,0.0,0.0,0.0,0.0,0.0,0.0,0.0,0.0,0.0,0.0,0.0,0.0,0.0,0.0,0.0,0.0,0.0,0.0,0.0,0.0,0.0,0.0,0.0,0.0,0.0,0.0,0.0,0.0,0.0,0.0,0.0,0.0,0.0,0.0,0.0,0.2027,0.2365,0.2645,0.2908,0.3251,0.3497,0.382,0.431,0.4363,0.4664,0.0,0.0,0.0,0.0,0.0,0.0,0.0,0.0,0.0,0.0,0.0,0.0,0.0,0.0,0.0,0.0,0.0,0.0,0.0,0.0,0.0,0.0,0.0,0.0,0.0,0.0,0.0,0.0,0.0623,0.0454,0.0047,0.0,0.0,0.0,0.0,0.0,0.0,0.0,0.0,0.0,0.0,0.0897,0.0897,0.0954,0.0,0.0,0.129,0.1459,0.1459,0.1628,0.1685,0.1741,0.1797,0.0,0.0,0.0,0.0,0.0,0.0,0.0,0.0,0.0,0.0,0.0,0.0,0.0,0.0,0.0,0.0,0.0,0.0,0.0,0.0,0.0,0.0,0.0,0.0,0.0,0.0,0.0,0.0,0.0,0.0,0.0,0.0,0.0,0.0,0.0,0.0,0.0,0.0,0.0,0.0,0.0,0.0,0.0,0.0,0.0,0.0,0.0,0.0,0.0,0.0,0.0,0.0,0.216,0.257,0.275,0.3072,0.3529,0.3673,0.4052,0.4507,0.4609,0.4868,0.0,0.0,0.0,0.0,0.0,0.0,0.0,0.0,0.0,0.0,0.0,0.0,0.0,0.0,0.0,0.0,0.0,0.0,0.0,0.0,0.0,0.0,0.0,0.0,0.0,0.0,0.0,0.0,0.0786,0.0615,0.0295,0.0,0.0,0.0,0.0,0.0,0.0,0.0,0.0,0.0,0.0,0.0897,0.0897,0.101,0.1122,0.1178,0.1403,0.1628,0.1628,0.1741,0.1797,0.1797,0.0,0.0,0.0,0.0,0.0,0.0,0.0,0.0,0.0,0.0,0.0,0.0,0.0,0.0,0.0,0.0,0.0,0.0,0.0,0.0,0.0,0.0,0.0,0.0,0.0,0.0,0.0,0.0,0.0,0.0,0.2396,0.0,0.0,0.0,0.0,0.0,0.0,0.0,0.0,0.0,0.0,0.0,0.0,0.0,0.0,0.0,0.0,0.0,0.0,0.0,0.0,0.0,0.0,0.2417,0.2777,0.2923,0.3232,0.3764,0.4056,0.4391,0.4878,0.5003,0.5281,0.5778,0.0,0.0,0.0,0.0,0.0,0.0,0.0,0.0,0.0,0.0,0.0,0.0,0.0,0.0,0.0,0.0,0.0,0.0,0.0,0.0,0.0,0.0,0.0,0.0,0.0,0.0,0.128,0.0984,0.0816,0.0,0.0,0.0,0.0,0.0,0.0,0.0,0.0,0.0,0.0,0.0897,0.0897,0.0898,0.101,0.118,0.1293,0.1462,0.1686,0.1801,0.18,0.1797,0.0,0.0,0.0,0.0,0.0,0.0,0.0,0.0,0.0,0.0,0.0,0.0,0.0,0.0,0.0,0.0,0.0,0.0,0.0,0.0,0.0,0.0,0.0,0.0,0.0,0.0,0.0,0.3039,0.2955,0.0,0.0,0.0,0.0,0.0,0.0,0.0,0.0,0.0,0.0,0.0,0.2086,0.2039,0.0,0.0,0.0,0.0,0.0,0.0,0.0,0.0,0.0,0.0,0.0,0.0,0.2641,0.2972,0.3281,0.3572,0.3899,0.422,0.4574,0.4901,0.5014,0.5293,0.5795,0.0,0.0,0.0,0.0,0.0,0.0,0.0,0.0,0.0,0.0,0.0,0.0,0.0,0.0,0.0,0.0,0.0,0.0,0.0,0.0,0.0,0.0,0.0,0.0,0.0,0.161,0.0,0.0,0.0,0.0,0.0,0.0,0.0,0.0,0.0,0.0,0.0,0.0673,0.0841,0.0897,0.0962,0.1098,0.1217,0.1344,0.0,0.0,0.0,0.0,0.0,0.0,0.0,0.0,0.0,0.0,0.0,0.0,0.0,0.0,0.1901,0.1802,0.1795,0.1806,0.1787,0.0,0.0,0.0,0.0,0.0,0.0,0.0,0.0,0.0,0.0,0.0,0.0,0.0,0.0,0.0,0.0,0.3258,0.0,0.0,0.0,0.0,0.0,0.0,0.0,0.0,0.2289,0.2267,0.2267,0.2218,0.2237,0.0,0.2265,0.228,0.0,0.0,0.0,0.0,0.0,0.0,0.0,0.0,0.2848,0.3074,0.3416,0.3749,0.4024,0.4353,0.4684,0.4901,0.5179,0.5462,0.5791,0.6064,0.6173,0.0,0.0,0.0,0.0,0.0,0.0,0.0,0.0,0.0,0.0,0.0,0.0,0.0,0.0,0.0,0.0,0.0,0.0,0.0,0.0,0.0,0.0,0.0,0.175,0.0,0.0,0.0,0.0,0.0,0.0,0.0,0.0,0.0,0.0618,0.0793,0.097,0.097,0.1037,0.1112,0.1254,0.0,0.0,0.0,0.0,0.0,0.0,0.0,0.2033,0.2033,0.2033,0.2033,0.2033,0.2033,0.2033,0.2033,0.0,0.0,0.198,0.1913,0.1925,0.1965,0.2033,0.204,0.2,0.2067,0.2074,0.0,0.0,0.0,0.0,0.0,0.0,0.0,0.0,0.3928,0.3806,0.0,0.3598,0.0,0.0,0.0,0.0,0.0,0.2725,0.0,0.0,0.248,0.2425,0.2429,0.2432,0.2474,0.2609,0.2558,0.2657,0.2681,0.2381,0.0,0.0,0.0,0.0,0.0,0.0,0.2968,0.3077,0.3469,0.3747,0.3965,0.4467,0.4794,0.4952,0.5458,0.5795,0.5791,0.6064,0.6173,0.6173,0.6173,0.0,0.0,0.0,0.0,0.0,0.0,0.0,0.0,0.0,0.0,0.0,0.0,0.0,0.0,0.0,0.0,0.0,0.0,0.0,0.0,0.2038,0.0,0.0,0.0,0.0,0.0,0.0,0.0,0.0,0.0,0.0,0.0962,0.0985,0.1062,0.118,0.0,0.0,0.0,0.0,0.1729,0.1731,0.1917,0.2041,0.2043,0.2041,0.2041,0.2041,0.0,0.0,0.204,0.204,0.2044,0.204,0.1984,0.204,0.198,0.1977,0.1977,0.1982,0.1986,0.2062,0.2114,0.213,0.2147,0.4457,0.0,0.0,0.0,0.0,0.4399,0.4316,0.4192,0.4278,0.4241,0.4026,0.3992,0.0,0.0,0.0,0.0,0.0,0.0,0.2982,0.288,0.2797,0.2778,0.2776,0.2667,0.2627,0.2652,0.2707,0.2664,0.2689,0.2609,0.2595,0.2597,0.0,0.0,0.0,0.0,0.3077,0.313,0.3633,0.3913,0.4021,0.4574,0.5014,0.5399,0.5681,0.585,0.595,0.6119,0.6173,0.6173,0.6173,0.0,0.0,0.0,0.0,0.0,0.0,0.0,0.0,0.0,0.0,0.0,0.0,0.0,0.0,0.0,0.0,0.0,0.0,0.0,0.2392,0.2194,0.1988,0.0,0.0,0.0,0.0,0.0,0.0,0.0,0.0,0.0,0.1322,0.1331,0.1399,0.0,0.0,0.1491,0.1712,0.1781,0.186,0.203,0.0,0.0,0.0,0.2166,0.2168,0.2168,0.2168,0.2168,0.2168,0.2168,0.2168,0.2166,0.2101,0.2168,0.2165,0.213,0.2119,0.2155,0.2168,0.2172,0.2189,0.2261,0.2333,0.475,0.4861,0.4648,0.4618,0.4732,0.4736,0.4685,0.4675,0.479,0.4697,0.447,0.4424,0.4403,0.4317,0.412,0.0,0.0,0.0,0.3309,0.3255,0.3051,0.2968,0.297,0.2914,0.28,0.2805,0.2805,0.2747,0.2691,0.2691,0.2747,0.2805,0.0,0.0,0.2805,0.3021,0.3132,0.3302,0.3744,0.4079,0.4187,0.4736,0.5179,0.5563,0.5732,0.5845,0.6005,0.6119,0.6173,0.6173,0.6173,0.6173,0.0,0.0,0.0,0.0,0.0,0.0,0.0,0.0,0.0,0.0,0.0,0.3524,0.0,0.0,0.0,0.0,0.2805,0.2635,0.241,0.2352,0.0,0.0,0.0,0.0,0.0,0.0,0.0,0.162,0.1664,0.1756,0.1756,0.1774,0.1717,0.1633,0.1648,0.1736,0.1898,0.0,0.2046,0.2149,0.2221,0.2221,0.2221,0.2221,0.2221,0.2221,0.2221,0.2221,0.2221,0.2221,0.2221,0.2221,0.2221,0.2221,0.2221,0.2142,0.2135,0.222,0.2174,0.2256,0.2325,0.2412,0.2502,0.5018,0.5273,0.487,0.4816,0.4934,0.4985,0.5087,0.53,0.5314,0.5175,0.4977,0.4944,0.4844,0.4692,0.4566,0.0,0.4024,0.3747,0.3635,0.3638,0.3302,0.3132,0.3132,0.314,0.3035,0.2927,0.2936,0.2882,0.2772,0.2772,0.2826,0.2941,0.2826,0.2819,0.2916,0.3028,0.3312,0.3596,0.3887,0.4225,0.4556,0.4945,0.5329,0.5648,0.5758,0.5859,0.6005,0.6119,0.6173,0.6173,0.6173,0.6173,0.6173,0.0,0.0,0.0,0.0,0.0,0.0,0.0,0.0,0.0,0.0,0.0,0.0,0.0,0.0,0.0,0.2805,0.0,0.2475,0.2475,0.0,0.0,0.0,0.2067,0.1949,0.2003,0.2041,0.2041,0.0,0.0,0.2135,0.0,0.2134,0.1881,0.1919,0.2018,0.2154,0.2157,0.2228,0.2165,0.2166,0.2169,0.2181,0.2179,0.2248,0.2248,0.2169,0.2242,0.2176,0.2174,0.2238,0.2244,0.2169,0.2239,0.2237,0.2284,0.2233,0.2251,0.2283,0.2321,0.26,0.2643,0.2753,0.524,0.5297,0.5358,0.539,0.5436,0.5436,0.5411,0.5412,0.5517,0.5533,0.5332,0.5218,0.5081,0.4848,0.4611,0.446,0.4353,0.4021,0.3913,0.3858,0.3638,0.3471,0.3474,0.333,0.3251,0.3203,0.3278,0.3375,0.3318,0.3315,0.3315,0.3378,0.3318,0.3238,0.3086,0.327,0.354,0.3771,0.4095,0.4565,0.5166,0.5458,0.5689,0.5954,0.6006,0.6052,0.6182,0.6173,0.6173,0.6173,0.6173,0.6173,0.6173,0.6173,0.0,0.0,0.0,0.0,0.0,0.0,0.0,0.0,0.0,0.3799,0.3685,0.0,0.3302,0.0,0.2858,0.2719,0.2787,0.2677,0.0,0.0,0.2429,0.2378,0.2378,0.2381,0.2424,0.2233,0.2291,0.2265,0.22,0.2211,0.2149,0.2135,0.2078,0.2153,0.2223,0.2195,0.2222,0.2226,0.2259,0.2292,0.2288,0.2293,0.2289,0.2292,0.229,0.2292,0.2292,0.2293,0.2293,0.2292,0.2293,0.2363,0.2499,0.2516,0.2591,0.2722,0.266,0.2597,0.2887,0.2975,0.3134,0.5481,0.5576,0.5694,0.5798,0.5826,0.5783,0.5742,0.5784,0.5905,0.5845,0.5734,0.5521,0.5293,0.5077,0.4986,0.4847,0.4791,0.4576,0.4429,0.4429,0.4143,0.3972,0.3972,0.3808,0.3659,0.3602,0.3603,0.3572,0.3513,0.3513,0.351,0.3569,0.3694,0.3693,0.3629,0.3687,0.3838,0.4071,0.4566,0.5093,0.5521,0.5699,0.5895,0.6208,0.6267,0.6334,0.6459,0.6449,0.6454,0.6449,0.6449,0.6449,0.6454,0.6449,0.6392,0.0,0.0,0.0,0.0,0.0,0.0,0.0,0.0,0.0,0.0,0.0,0.3566,0.3268,0.3042,0.2888,0.2879,0.2825,0.2783,0.2711,0.2684,0.2579,0.2516,0.2584,0.2627,0.2494,0.253,0.2488,0.2421,0.2381,0.233,0.2467,0.2423,0.2361,0.2204,0.2247,0.2283,0.2356,0.2384,0.2478,0.2625,0.2625,0.2623,0.2625,0.2625,0.2625,0.2623,0.2625,0.2625,0.2625,0.2625,0.2623,0.2767,0.2795,0.289,0.3117,0.3067,0.3074,0.3122,0.3364,0.3541,0.575,0.5911,0.5939,0.6057,0.6218,0.6029,0.6057,0.6173,0.6173,0.6132,0.6041,0.5826,0.5559,0.5433,0.5469,0.542,0.525,0.515,0.5029,0.5029,0.4725,0.4604,0.4543,0.432,0.4206,0.4081,0.391,0.3794,0.3678,0.3675,0.3737,0.3853,0.3979,0.4168,0.4294,0.4232,0.4288,0.4532,0.5153,0.5586,0.5762,0.5953,0.6128,0.641,0.6471,0.6578,0.6796,0.6791,0.6791,0.6791,0.6791,0.6791,0.6791,0.6791,0.6731,0.0,0.6426,0.0,0.0,0.0,0.0,0.0,0.0,0.0,0.0,0.4016,0.3825,0.3439,0.3326,0.3145,0.2968,0.2973,0.2915,0.281,0.2806,0.2785,0.2661,0.2716,0.2753,0.2753,0.2762,0.2767,0.2707,0.2633,0.2606,0.275,0.2733,0.261,0.2355,0.2386,0.2491,0.2634,0.2642,0.2739,0.2885,0.3024,0.2952,0.3022,0.2955,0.3017,0.3025,0.3025,0.3022,0.3022,0.2953,0.3024,0.3015,0.3074,0.319,0.3425,0.3552,0.3575,0.3522,0.3699,0.3917,0.5873,0.5925,0.6095,0.614,0.6173,0.619,0.6195,0.6173,0.6173,0.6211,0.6256,0.6199,0.6054,0.5952,0.5819,0.5715,0.5592,0.5385,0.5339,0.5279,0.5029,0.4904,0.4914,0.4659,0.4523,0.4529,0.457,0.4555,0.4558,0.4558,0.4558,0.462,0.462,0.462,0.4689,0.0,0.0,0.0,0.573,0.6051,0.6116,0.6375,0.6561,0.6541,0.6728,0.0,0.6805,0.6791,0.6791,0.6791,0.6791,0.0,0.0,0.0,0.0,0.0,0.0,0.0,0.0,0.0,0.0,0.0,0.516,0.4836,0.4378,0.3956,0.3724,0.3623,0.3385,0.3235,0.3312,0.313,0.3095,0.3101,0.3125,0.3135,0.307,0.3084,0.3092,0.2958,0.3014,0.2988,0.2853,0.2846,0.2892,0.2969,0.2957,0.2921,0.2837,0.2847,0.2855,0.2933,0.2973,0.3014,0.3098,0.3091,0.3083,0.3098,0.3098,0.3093,0.309,0.3091,0.3095,0.3091,0.3098,0.317,0.3398,0.3571,0.3732,0.3895,0.4068,0.4155,0.3979,0.3988,0.4157,0.6067,0.0,0.6185,0.6173,0.0,0.6173,0.6234,0.6379,0.6379,0.6445,0.6515,0.6456,0.6388,0.6366,0.6284,0.6203,0.6018,0.5919,0.5832,0.5765,0.5572,0.5449,0.5449,0.5206,0.5045,0.4987,0.4992,0.4894,0.4827,0.4761,0.4761,0.4761,0.496,0.5096,0.5096,0.5557,0.5822,0.5752,0.6083,0.628,0.6412,0.6609,0.6763,0.6861,0.0,0.0,0.0,0.0,0.0,0.0,0.0,0.0,0.0,0.0,0.0,0.7154,0.6908,0.6719,0.6656,0.6278,0.5959,0.5642,0.5322,0.4971,0.4525,0.4204,0.3921,0.3855,0.3663,0.3561,0.3481,0.3357,0.3243,0.3222,0.3267,0.3293,0.3297,0.3336,0.336,0.3293,0.326,0.3216,0.3145,0.3141,0.3189,0.3268,0.326,0.331,0.3312,0.3237,0.3083,0.3235,0.3341,0.345,0.3452,0.3452,0.3452,0.345,0.3452,0.3454,0.3608,0.3608,0.3608,0.3684,0.3761,0.3763,0.3917,0.4073,0.4151,0.4231,0.4311,0.4389,0.4389,0.4389,0.4467,0.6282,0.6282,0.6282,0.6282,0.6287,0.632,0.6421,0.6639,0.0,0.0,0.0,0.6782,0.6736,0.6721,0.676,0.6637,0.6527,0.6481,0.6416,0.628,0.6086,0.5958,0.5954,0.5752,0.562,0.5495,0.5355,0.516,0.503,0.4964,0.496,0.5027,0.5359,0.5509,0.5596,0.6062,0.634,0.6364,0.6312,0.6408,0.6671,0.6741,0.6937,0.7204,0.7204,0.733,0.7526,0.7526,0.7526,0.7526,0.7526,0.7526,0.7526,0.7526,0.7526,0.7526,0.7274,0.7082,0.6881,0.6613,0.6234,0.6,0.5487,0.5093,0.4675,0.4504,0.4308,0.4121,0.4056,0.3931,0.3682,0.3617,0.3549,0.3343,0.3411,0.3455,0.3393,0.3452,0.3491,0.3501,0.3509,0.3522,0.3453,0.3452,0.3427,0.3583,0.3555,0.3604,0.3765,0.3524,0.3366,0.3599,0.3759,0.3843,0.3919,0.3919,0.3919,0.3919,0.3919,0.3997,0.4077,0.4157,0.4233,0.4307,0.4384,0.4384,0.4384,0.4384,0.4462,0.4462,0.4465,0.4543,0.4776,0.4776,0.4776,0.6652,0.6652,0.6647,0.6652,0.6663,0.6687,0.6886,0.705,0.6884,0.6922,0.7111,0.7116,0.7084,0.7122,0.7149,0.7033,0.6846,0.6802,0.6815,0.0,0.6482,0.635,0.6284,0.602,0.5822,0.5822,0.5822,0.5756,0.5756,0.576,0.5756,0.576,0.5822,0.5959,0.6291,0.6503,0.6785,0.714,0.6836,0.6675,0.6736,0.7007,0.7138,0.7204,0.74,0.7456,0.7526,0.7526,0.7526,0.7526,0.7526,0.7526,0.7526,0.7526,0.7526,0.7526,0.7265,0.7007,0.6881,0.6605,0.6273,0.6097,0.5878,0.5414,0.4827,0.4616,0.4537,0.4431,0.4312,0.4214,0.4227,0.4094,0.3946,0.3737,0.3752,0.3691,0.3551,0.3499,0.3511,0.3516,0.3565,0.3607,0.3618,0.3685,0.3736,0.3742,0.3826,0.3841,0.3999,0.3841,0.3843,0.3999,0.3999,0.4155,0.4231,0.4307,0.4307,0.4307,0.4307,0.4307,0.4309,0.4387,0.4384,0.4384,0.4462,0.446,0.4462,0.4543,0.4698,0.4698,0.4857,0.4937,0.5176,0.526,0.5257,0.6707,0.6707,0.6707,0.6778,0.6916,0.7145,0.7345,0.7476,0.737,0.7297,0.7378,0.7383,0.7371,0.7391,0.7326,0.7265,0.7073,0.7073,0.7007,0.6885,0.6923,0.6899,0.6907,0.6869,0.6656,0.6364,0.6356,0.6175,0.5896,0.5892,0.5892,0.5896,0.6175,0.6463,0.6753,0.706,0.7293,0.7442,0.7281,0.7254,0.7322,0.7459,0.7545,0.7502,0.7636,0.764,0.7531,0.7526,0.7526,0.7526,0.7526,0.7526,0.7526,0.7526,0.7526,0.7531,0.7371,0.7234,0.7096,0.6716,0.6464,0.6265,0.6051,0.5681,0.5057,0.4908,0.4722,0.4635,0.4498,0.4448,0.4426,0.4215,0.407,0.4003,0.3827,0.3713,0.3723,0.3691,0.3642,0.3644,0.3677,0.3699,0.3699,0.3736,0.3841,0.3921,0.3997,0.4153,0.4233,0.4153,0.4151,0.4231,0.4231,0.4309,0.4384,0.4384,0.4384,0.4384,0.4384,0.4462,0.4543,0.4543,0.4698,0.4851,0.4932,0.4929,0.5012,0.509,0.5168,0.5168,0.5246,0.5422,0.5559,0.579,0.582,0.6864,0.6869,0.6921,0.7053,0.7226,0.7573,0.7751,0.7754,0.7782,0.7727,0.7587,0.7521,0.7526,0.7526,0.7526,0.7419,0.7334,0.7338,0.7295,0.7221,0.7364,0.7431,0.7449,0.7531,0.7372,0.6961,0.6879,0.6668,0.6348,0.6273,0.6269,0.6352,0.6744,0.7038,0.7159,0.7517,0.7758,0.7798,0.7803,0.783,0.7806,0.7872,0.7869,0.7862,0.7844,0.7768,0.7679,0.7664,0.7574,0.7607,0.7636,0.7645,0.7602,0.764,0.7664,0.7612,0.755,0.7431,0.7302,0.7057,0.6729,0.6432,0.6324,0.6051,0.5466,0.5252,0.5017,0.4773,0.4694,0.463,0.4588,0.4443,0.4362,0.4225,0.3988,0.3958,0.3969,0.3953,0.3919,0.3919,0.3917,0.3917,0.3917,0.3917,0.3997,0.4153,0.4307,0.4384,0.4462,0.4462,0.454,0.4618,0.454,0.454,0.454,0.4618,0.4618,0.4618,0.4696,0.4776,0.4937,0.4951,0.505,0.5375,0.548,0.5504,0.5656,0.5738,0.5665,0.5674,0.568,0.5775,0.5938,0.6223,0.6456,0.7408,0.7447,0.7533,0.7677,0.7814,0.7887,0.7964,0.8006,0.7982,0.7987,0.7932,0.7657,0.7531,0.7526,0.7536,0.7574,0.7744,0.7754,0.7844,0.7925,0.7835,0.7774,0.7774,0.7668,0.7593,0.7504,0.75,0.7482,0.7372,0.7381,0.7398,0.7478,0.7495,0.7579,0.7728,0.7919,0.8171,0.8344,0.8495,0.8314,0.7829,0.7938,0.807,0.8056,0.8051,0.8042,0.7999,0.8023,0.7933,0.7787,0.7914,0.7933,0.7792,0.7919,0.8018,0.8014,0.7742,0.7469,0.7438,0.7458,0.7196,0.6689,0.6727,0.6496,0.5886,0.5665,0.5316,0.4922,0.4817,0.486,0.4889,0.4894,0.4801,0.464,0.4583,0.4528,0.4365,0.4377,0.4384,0.4307,0.4307,0.4384,0.4307,0.4307,0.4307,0.4384,0.4462,0.4543,0.4698,0.4867,0.5023,0.5096,0.4937,0.4865,0.5098,0.5243,0.5266,0.5419,0.5491,0.543,0.5463,0.5598,0.5811,0.574,0.5897,0.6034,0.6052,0.608,0.6062,0.6031,0.604,0.6163,0.6357,0.6628,0.6701,0.7521,0.749,0.7733,0.8013,0.8326,0.8433,0.842,0.8441,0.8242,0.8184,0.8312,0.8107,0.7969,0.7984,0.8112,0.8294,0.831,0.8175,0.8219,0.824,0.8212,0.8124,0.8138,0.8254,0.8102,0.7925,0.792,0.7785,0.7619,0.7602,0.7602,0.7615,0.7785,0.7883,0.7964,0.8295,0.8472,0.8546,0.8627,0.8618,0.8403,0.8374,0.8392,0.8283,0.8274,0.8279,0.8245,0.8306,0.8263,0.8324,0.8398,0.8338,0.8185,0.8258,0.8231,0.8089,0.7983,0.7806,0.7781,0.7718,0.7458,0.6999,0.6904,0.671,0.618,0.5948,0.5607,0.518,0.5016,0.4966,0.501,0.5018,0.494,0.4859,0.4701,0.4621,0.4621,0.4462,0.4384,0.4384,0.4384,0.4384,0.4384,0.4543,0.4618,0.4771,0.4851,0.5015,0.5171,0.5381,0.5586,0.5598,0.5571,0.5586,0.5613,0.5668,0.5701,0.5845,0.5875,0.5872,0.5872,0.5906,0.6034,0.6194,0.6258,0.6379,0.6436,0.645,0.645,0.6476,0.6548,0.658,0.6665,0.6867,0.6947,0.7674,0.7773,0.808,0.8408,0.8765,0.8815,0.8835,0.8829,0.8501,0.8498,0.8726,0.8581,0.8574,0.8646,0.8684,0.8755,0.874,0.8608,0.8571,0.8635,0.8572,0.8565,0.8579,0.8628,0.8552,0.8286,0.8263,0.8116,0.7911,0.7902,0.7902,0.7925,0.812,0.8263,0.8277,0.8562,0.8703,0.8703,0.8784,0.8784,0.878,0.8861,0.8788,0.8579,0.8565,0.8562,0.8635,0.8625,0.8667,0.875,0.8801,0.8811,0.8608,0.8591,0.8548,0.8332,0.8254,0.8178,0.8008,0.7949,0.7723,0.7334,0.7099,0.6791,0.6412,0.6177,0.5867,0.5628,0.5326,0.5168,0.5018,0.5018,0.5018,0.5018,0.4859,0.4779,0.4779,0.4623,0.4543,0.4543,0.4698,0.4693,0.4698,0.4857,0.501,0.5165,0.5349,0.5529,0.5707,0.5879,0.6047,0.605,0.6138,0.6226,0.6066,0.6047,0.6103,0.6233,0.6264,0.6261,0.6296,0.6306,0.6344,0.6512,0.6531,0.6655,0.6705,0.6766,0.6817,0.6841,0.6902,0.6976,0.6897,0.6994,0.7122,0.8045,0.8333,0.8705,0.8924,0.9,0.9011,0.9017,0.9017,0.8835,0.8914,0.9091,0.9167,0.9319,0.944,0.899,0.8852,0.8942,0.8968,0.9069,0.917,0.9059,0.8932,0.8932,0.878,0.8699,0.859,0.8585,0.858,0.8566,0.8656,0.8675,0.867,0.859,0.868,0.8675,0.8689,0.8703,0.8708,0.8865,0.9022,0.9022,0.917,0.9165,0.8993,0.9003,0.9054,0.9195,0.9281,0.9185,0.8973,0.915,0.918,0.9013,0.9165,0.9034,0.8732,0.8675,0.8533,0.8318,0.8178,0.7949,0.7561,0.7257,0.7026,0.6641,0.6412,0.6257,0.618,0.5792,0.5404,0.5093,0.5096,0.5096,0.5015,0.5018,0.5018,0.5018,0.5015,0.5018,0.5015,0.509,0.5243,0.5482,0.5562,0.5488,0.559,0.5744,0.5898,0.6,0.6182,0.6338,0.6436,0.6539,0.6619,0.644,0.6354,0.6443,0.6589,0.6628,0.6656,0.6763,0.68,0.6786,0.6853,0.691,0.696,0.7011,0.7105,0.7078,0.7071,0.7061,0.7099,0.7075,0.7112,0.7139,0.8471,0.8907,0.9101,0.9351,0.9466,0.9274,0.9204,0.9163,0.9188,0.9271,0.938,0.9553,0.9717,0.9798,0.9564,0.949,0.9564,0.942,0.9391,0.9468,0.9175,0.9027,0.8951,0.8784,0.8703,0.8703,0.8703,0.8703,0.8703,0.8703,0.8703,0.8703,0.8703,0.8703,0.8703,0.8865,0.887,0.8941,0.9094,0.9165,0.9236,0.9241,0.9322,0.9397,0.9246,0.9246,0.9468,0.9468,0.9502,0.9569,0.9648,0.9583,0.944,0.9352,0.917,0.8941,0.887,0.8713,0.8399,0.8331,0.8102,0.7723,0.7488,0.7261,0.7026,0.6721,0.6412,0.6264,0.6025,0.5634,0.5482,0.5404,0.5404,0.5404,0.5404,0.5404,0.5404,0.5404,0.5404,0.5407,0.5482,0.5482,0.5569,0.5562,0.5671,0.5912,0.6048,0.6196,0.6374,0.6579,0.6756,0.6946,0.7097,0.7249,0.7415,0.698,0.6783,0.6863,0.699,0.699,0.7,0.699,0.7041,0.7034,0.7119,0.7129,0.7129,0.7129,0.7139,0.7139,0.7139,0.7139,0.7139,0.7139,0.7139,0.8909,0.9347,0.9518,0.9681,0.9849,0.96,0.9472,0.9438,0.9484,0.9542,0.9659,0.9901,0.9996,0.9965,0.9992,0.9992,0.9922,0.9771,0.9695,0.962,0.9322,0.917,0.9099,0.8861,0.8784,0.8703,0.8703,0.8703,0.8703,0.8784,0.8784,0.8784,0.8861,0.8861,0.8932,0.9018,0.9099,0.9099,0.9322,0.9387,0.9382,0.9468,0.9549,0.962,0.9549,0.9544,0.9695,0.9695,0.9771,0.9846,0.9922,0.9846,0.97,0.9473,0.9322,0.9175,0.9022,0.887,0.8637,0.8484,0.8327,0.8115,0.7854,0.7569,0.7422,0.7156,0.6871,0.6637,0.6479,0.6321,0.6241,0.6169,0.6047,0.5743,0.5562,0.5562,0.5562,0.5562,0.5637,0.5712,0.5712,0.573,0.5927,0.6015,0.6165,0.6532,0.6664,0.675,0.693,0.7154,0.726,0.7436,0.7592,0.7639,0.772,0.7462,0.7253,0.7327,0.7348,0.7302,0.7319,0.7319,0.7319,0.7231,0.7231,0.7143,0.7143,0.7139,0.7139,0.7139,0.7139,0.7139,0.7139,0.7139,0.7177,0.9419,0.9707,0.9932,0.9964,0.9983,0.9862,0.9804,0.9783,0.979,0.9849,1.0009,1.0128,1.0245,1.0185,1.0218,1.0067,0.9922,0.9922,0.9846,0.9846,0.962,0.9468,0.9251,0.9099,0.8941,0.8784,0.8703,0.8699,0.878,0.8941,0.9022,0.9022,0.917,0.9246,0.9246,0.9246,0.9337,0.9357,0.9519,0.9656,0.9635,0.9834,0.9905,0.9878,0.9873,0.9868,0.9927,0.9922,0.9846,0.9922,0.9922,0.9922,0.9846,0.9695,0.9625,0.9544,0.9246,0.9027,0.9027,0.8655,0.8598,0.8553,0.8365,0.807,0.7856,0.7724,0.7558,0.739,0.7316,0.7252,0.7244,0.7237,0.681,0.5855,0.5843,0.5846,0.5752,0.5652,0.5721,0.5977,0.5993,0.6172,0.6596,0.6722,0.6866,0.7173,0.7377,0.7469,0.7513,0.7642,0.7826,0.7837,0.7925,0.7937,0.7944,0.7852,0.7848,0.7852,0.7841,0.7764,0.7676,0.7676,0.7591,0.7499,0.7415,0.7326,0.7231,0.7231,0.7139,0.7139,0.7139,0.716,0.7282,0.731,0.7361,0.9853,0.9971,1.0127,1.0238,1.0174,0.9989,0.9919,0.9982,1.0208,1.0254,1.0259,1.0507,1.0525,1.0426,1.0363,1.0293,1.0143,1.0143,1.0073,0.9916,0.9695,0.9544,0.9473,0.9322,0.917,0.9089,0.9094,0.9089,0.9089,0.9165,0.9175,0.9246,0.9246,0.9322,0.9322,0.9402,0.9561,0.9761,0.9974,1.0137,1.0279,1.0375,1.0342,1.0196,1.0175,1.0105,0.9938,0.9922,0.9922,0.9922,0.9922,0.9922,0.9846,0.9846,0.9776,0.962,0.9468,0.9327,0.9123,0.9077,0.9004,0.8982,0.8804,0.8657,0.8431,0.816,0.795,0.7867,0.7616,0.7368,0.7368,0.7368,0.7244,0.6901,0.6806,0.6792,0.6701,0.6792,0.6891,0.6887,0.6887,0.6997,0.7111,0.7211,0.7274,0.7494,0.7665,0.7726,0.7842,0.7895,0.7937,0.8113,0.8113,0.8204,0.8212,0.8212,0.8212,0.8212,0.812,0.8032,0.8032,0.8032,0.7944,0.7768,0.7683,0.7507,0.7411,0.7323,0.7231,0.7146,0.7153,0.7289,0.7541,0.7601,0.7745,1.018,1.0301,1.0355,1.0434,1.0364,1.0174,1.0174,1.0322,1.0615,1.0729,1.0692,1.0918,1.0887,1.0743,1.0663,1.0519,1.0288,1.0218,1.0143,0.9992,0.9771,0.9695,0.962,0.9397,0.9322,0.9322,0.9322,0.9322,0.9322,0.9397,0.9397,0.9392,0.9473,0.9549,0.9565,0.9719,0.9942,1.0105,1.0322,1.0455,1.0539,1.06,1.0568,1.0428,1.0342,1.0218,1.0067,0.9976,0.9922,0.9922,0.9922,0.9922,0.9922,0.9922,0.9846,0.9765,0.963,0.9585,0.953,0.9501,0.9463,0.9402,0.9337,0.9114,0.8883,0.8664,0.8552,0.8472,0.832,0.8054,0.7978,0.7974,0.7889,0.7889,0.7507,0.7379,0.7368,0.7368,0.736,0.7349,0.7353,0.7477,0.7609,0.7632,0.7693,0.7912,0.7959,0.7974,0.8093,0.8204,0.8296,0.8296,0.8384,0.8476,0.8568,0.8572,0.8572,0.848,0.8388,0.8296,0.8296,0.8296,0.8212,0.8028,0.7852,0.7768,0.7588,0.7588,0.7499,0.7418,0.7361,0.7628,0.7894,0.7978,0.8051,1.0307,1.0611,1.0618,1.0561,1.0561,1.0364,1.0451,1.0665,1.0821,1.1026,1.1293,1.1353,1.1335,1.1111,1.0962,1.0743,1.0519,1.0293,1.0218,1.0143,0.9997,0.9771,0.962,0.9509,0.9459,0.9448,0.9469,0.9459,0.9459,0.9606,0.9646,0.9672,0.9829,0.9894,0.998,1.0213,1.0336,1.0428,1.0568,1.0676,1.0648,1.0632,1.0681,1.0654,1.0482,1.0347,1.0239,1.0046,0.9922,0.9922,0.9922,0.9922,0.9922,0.9922,0.9922,0.9846,0.9706,0.9919,1.0156,0.9968,0.9902,1.0009,0.979,0.9583,0.9427,0.9271,0.9178,0.9187,0.9118,0.9048,0.8869,0.8865,0.8782,0.8603,0.8033,0.7628,0.7492,0.7507,0.7625,0.7605,0.7496,0.7621,0.8041,0.8052,0.8217,0.8404,0.8452,0.8456,0.8464,0.848,0.8568,0.8568,0.848,0.8568,0.8572,0.8572,0.8572,0.8568,0.8476,0.8476,0.8476,0.8476,0.8476,0.8296,0.8028,0.794,0.7856,0.7764,0.7797,0.7749,0.7811,0.808,0.8188,0.8393,0.8491,1.0551,1.0618,1.0618,1.0618,1.0618,1.0555,1.0657,1.0949,1.1031,1.1248,1.1455,1.1586,1.1632,1.1484,1.1335,1.1111,1.0887,1.0588,1.0293,1.0218,0.9997,0.9922,0.9894,0.9956,1.0041,1.0062,1.009,1.0206,1.0052,1.0036,1.0119,1.0119,1.0119,1.0277,1.0439,1.0503,1.0643,1.0783,1.0848,1.0982,1.1038,1.1059,1.1069,1.0896,1.0821,1.0611,1.032,1.0056,0.9922,0.9922,0.9922,0.9922,0.9922,0.9933,0.9943,0.9889,1.0033,1.0146,1.0353,1.0363,1.0486,1.0596,1.0339,1.0125,1.0043,0.974,0.9607,0.9519,0.9432,0.9262,0.9174,0.9174,0.9174,0.9078,0.8537,0.8221,0.8229,0.8257,0.8253,0.8253,0.8241,0.8261,0.8372,0.84,0.8416,0.8552,0.8572,0.8572,0.8572,0.8572,0.8572,0.8572,0.8568,0.8568,0.8572,0.8572,0.8572,0.8572,0.8568,0.8568,0.8568,0.8568,0.8568,0.848,0.8296,0.812,0.8032,0.8032,0.8004,0.808,0.8185,0.8379,0.8663,0.8806,0.8975,1.0618,1.0618,1.0618,1.0618,1.0618,1.0618,1.0788,1.1089,1.1213,1.146,1.1801,1.1851,1.1861,1.1787,1.1632,1.1409,1.118,1.0887,1.0588,1.031,1.0182,1.0083,1.0121,1.0245,1.0342,1.0449,1.0573,1.0552,1.0455,1.0439,1.0439,1.0439,1.0439,1.0514,1.0606,1.0746,1.0826,1.0945,1.1058,1.1214,1.1257,1.1267,1.1289,1.1218,1.121,1.0925,1.0572,1.0379,1.0188,0.9949,0.9922,0.9922,0.9933,1.0024,1.0073,1.0089,1.0309,1.0471,1.0611,1.0683,1.0774,1.0895,1.0778,1.0636,1.0467,1.012,0.9864,0.9859,0.9694,0.9519,0.9437,0.9345,0.9349,0.9257,0.9091,0.8828,0.874,0.8727,0.8652,0.8656,0.8572,0.8568,0.8568,0.8568,0.8572,0.8572,0.8572,0.8572,0.8572,0.8572,0.8572,0.8572,0.8572,0.8572,0.8572,0.8572,0.8572,0.8572,0.8572,0.8572,0.8572,0.8572,0.8572,0.8568,0.8476,0.8392,0.832,0.8267,0.8442,0.8446,0.8563,0.8711,0.8997,0.9135,0.9319,1.0618,1.0618,1.0618,1.0618,1.0631,1.0665,1.0987,1.1356,1.1483,1.1861,1.2204,1.215,1.2083,1.207,1.1855,1.1639,1.1409,1.1186,1.0812,1.0587,1.0434,1.035,1.0415,1.0412,1.053,1.0665,1.0692,1.0708,1.0686,1.0676,1.0676,1.0676,1.0676,1.0697,1.0805,1.0939,1.0977,1.1104,1.1283,1.1391,1.1435,1.144,1.1505,1.1632,1.1416,1.1232,1.1067,1.0886,1.0706,1.0095,1.003,0.9943,0.9981,1.0191,1.0293,1.0363,1.0541,1.0756,1.0929,1.0904,1.0942,1.1037,1.1181,1.1105,1.0738,1.0472,1.0381,1.0294,1.0125,0.9864,0.9694,0.9515,0.9432,0.9432,0.9345,0.9257,0.9087,0.8999,0.8915,0.8744,0.8656,0.8652,0.8652,0.8564,0.8572,0.8572,0.8572,0.8572,0.8572,0.8572,0.8572,0.8572,0.8572,0.8572,0.8572,0.8572,0.8572,0.8572,0.8572,0.8572,0.8572,0.8572,0.8572,0.8568,0.848,0.8508,0.8557,0.8617,0.8713,0.887,0.8929,0.9159,0.9397,0.9405,0.9497,1.0618,1.0618,1.0618,1.0618,1.0658,1.0802,1.1169,1.1642,1.1886,1.225,1.2618,1.2532,1.2452,1.2452,1.2077,1.1781,1.1632,1.126,1.0893,1.0553,1.0716,1.0785,1.0803,1.0806,1.0853,1.095,1.1112,1.1085,1.0955,1.0912,1.0912,1.0912,1.0923,1.0999,1.1165,1.1192,1.1262,1.1257,1.1499,1.1607,1.1613,1.1785,1.1866,1.1929,1.1713,1.1626,1.1489,1.1307,1.1181,1.0886,1.0473,1.0275,1.0346,1.0361,1.0401,1.0573,1.0772,1.0939,1.1004,1.1155,1.1198,1.1251,1.1278,1.1197,1.1008,1.0829,1.0738,1.0646,1.0381,1.012,0.9951,0.9864,0.9777,0.9777,0.9777,0.9694,0.9519,0.9257,0.9174,0.9087,0.8911,0.8823,0.8823,0.8656,0.8656,0.866,0.8572,0.8572,0.8572,0.8568,0.8572,0.8572,0.8572,0.8572,0.8572,0.8572,0.8572,0.8572,0.8572,0.8617,0.8613,0.8613,0.8625,0.8605,0.8572,0.8629,0.8743,0.8824,0.8926,0.9116,0.9291,0.9397,0.9498,0.9592,0.9624,1.0618,1.0618,1.0618,1.0618,1.0672,1.0868,1.1296,1.1731,1.2032,1.2469,1.2851,1.2753,1.2673,1.2599,1.2378,1.215,1.1781,1.1341,1.1045,1.0889,1.1054,1.1135,1.1297,1.1361,1.1415,1.1261,1.1268,1.1252,1.1182,1.1149,1.1155,1.116,1.1149,1.1203,1.1332,1.1267,1.1424,1.1505,1.1613,1.1785,1.186,1.1952,1.2123,1.2192,1.2143,1.2122,1.1964,1.1864,1.1723,1.149,1.1111,1.0774,1.0767,1.0792,1.0757,1.0799,1.102,1.1144,1.1203,1.1268,1.1262,1.1267,1.1273,1.1273,1.1186,1.1094,1.1013,1.0824,1.0646,1.0381,1.0207,1.0038,1.0038,1.0038,1.0038,0.9951,0.9777,0.9607,0.9432,0.9349,0.9174,0.8999,0.8911,0.8828,0.8744,0.8656,0.8656,0.8656,0.8568,0.8568,0.8568,0.8572,0.8572,0.8572,0.8572,0.8572,0.8572,0.8572,0.8572,0.8645,0.8706,0.8702,0.8702,0.8694,0.8706,0.88,0.8905,0.8978,0.9076,0.9238,0.9388,0.9502,0.9575,0.9612,0.9628,1.0618,1.0618,1.0618,1.0618,1.0672,1.0922,1.1343,1.1792,1.215,1.2611,1.2931,1.2973,1.2826,1.2753,1.2599,1.2378,1.1935,1.1502,1.1232,1.1266,1.1441,1.1532,1.1709,1.1855,1.1826,1.1435,1.1435,1.1327,1.1332,1.1267,1.1219,1.1251,1.1257,1.1246,1.1262,1.1354,1.1435,1.1602,1.1774,1.1946,1.2106,1.2112,1.2289,1.2443,1.251,1.2505,1.2368,1.229,1.22,1.2059,1.1885,1.1555,1.1356,1.1189,1.1271,1.1115,1.1219,1.1209,1.1219,1.1257,1.1267,1.1267,1.1267,1.1267,1.1267,1.1273,1.1186,1.1008,1.0824,1.0646,1.0376,1.0207,1.0038,1.0038,1.0033,1.0038,0.9951,0.9777,0.9607,0.9524,0.9437,0.9257,0.917,0.8999,0.8915,0.874,0.874,0.8656,0.8652,0.874,0.8744,0.8832,0.8828,0.8915,0.8915,0.8839,0.8827,0.8848,0.8738,0.8837,0.884,0.8857,0.8869,0.8865,0.8897,0.8982,0.9072,0.9165,0.9271,0.9388,0.9474,0.9567,0.9608,0.9624,0.9727,1.0618,1.0618,1.0618,1.0618,1.0712,1.1122,1.158,1.2005,1.2499,1.299,1.3339,1.3266,1.3119,1.3046,1.2746,1.2378,1.2003,1.1719,1.1652,1.1713,1.1897,1.2071,1.2034,1.2251,1.2198,1.1952,1.1699,1.1527,1.1348,1.1267,1.1267,1.1267,1.1267,1.1267,1.1354,1.1527,1.1613,1.1774,1.2032,1.2277,1.2363,1.2448,1.254,1.2613,1.2699,1.2668,1.2644,1.2626,1.2614,1.2578,1.2487,1.2391,1.2079,1.1651,1.1438,1.1486,1.1386,1.1262,1.1262,1.1267,1.1267,1.1267,1.1267,1.1267,1.1267,1.1267,1.1267,1.1181,1.1003,1.0824,1.0453,1.0289,1.0202,1.0115,1.0033,1.0033,1.0038,0.9951,0.9864,0.9781,0.9694,0.9519,0.9345,0.9257,0.9174,0.9087,0.9003,0.9003,0.8999,0.9087,0.9087,0.9174,0.9174,0.9262,0.9262,0.9144,0.9139,0.9194,0.9129,0.9138,0.9116,0.9043,0.9056,0.9185,0.9194,0.9137,0.9234,0.9344,0.9518,0.96,0.9567,0.9624,0.9727,0.9924,0.9924,1.0618,1.0618,1.0618,1.0712,1.0842,1.1236,1.1723,1.2277,1.2697,1.3119,1.3346,1.3419,1.3273,1.3193,1.3046,1.2599,1.2224,1.1935,1.1954,1.2161,1.2368,1.2488,1.2553,1.2747,1.2522,1.2289,1.2118,1.1866,1.1521,1.1354,1.1354,1.1267,1.1267,1.1354,1.1521,1.1613,1.1871,1.2032,1.2283,1.2448,1.2528,1.2705,1.2705,1.2705,1.2705,1.2705,1.2705,1.2705,1.2699,1.2693,1.2699,1.2619,1.2407,1.2196,1.181,1.1671,1.1429,1.1338,1.1262,1.1267,1.1267,1.1267,1.1267,1.1267,1.1267,1.1267,1.1267,1.1267,1.1094,1.0921,1.0733,1.0554,1.0463,1.0371,1.0376,1.0294,1.0207,1.012,1.012,1.0033,0.9864,0.9689,0.9519,0.9432,0.9432,0.9345,0.9349,0.9349,0.9349,0.9345,0.9432,0.9345,0.9354,0.9495,0.9522,0.9481,0.9462,0.953,0.952,0.9528,0.9489,0.951,0.9689,0.9861,0.9661,0.9403,0.9405,0.9514,0.9665,0.9792,0.9813,0.9924,1.0023,1.0122,1.0224,1.0618,1.0618,1.0618,1.0728,1.1015,1.1303,1.1805,1.2466,1.276,1.3119,1.3492,1.3492,1.3419,1.3266,1.3119,1.2893,1.2372,1.2231,1.2335,1.2608,1.2657,1.2864,1.3096,1.3058,1.2881,1.2625,1.2369,1.2118,1.1699,1.1527,1.1348,1.1348,1.1354,1.144,1.1618,1.1866,1.2118,1.2283,1.2448,1.2534,1.2619,1.2705,1.2705,1.2705,1.2705,1.2705,1.2705,1.2705,1.2705,1.2705,1.2705,1.2705,1.2705,1.254,1.2283,1.186,1.1505,1.1338,1.1348,1.1267,1.1267,1.1267,1.1267,1.1267,1.1267,1.1267,1.1267,1.1267,1.1181,1.1094,1.1003,1.0916,1.0733,1.0733,1.0641,1.0641,1.0467,1.0381,1.0294,1.0207,1.0125,0.9951,0.9777,0.9694,0.9694,0.9694,0.9607,0.9607,0.9607,0.9607,0.9602,0.9515,0.9547,0.9637,0.9718,0.975,0.9837,0.9992,0.9995,0.9914,1.0053,1.0079,1.0166,1.0214,0.9989,0.9749,0.9768,0.9727,0.9912,1.001,1.0023,1.0126,1.022,1.0332,1.0542,1.0618,1.0618,1.0624,1.0792,1.1022,1.1316,1.1818,1.248,1.2781,1.3119,1.3492,1.3492,1.3492,1.3419,1.3273,1.3039,1.282,1.2633,1.2708,1.3054,1.2982,1.3108,1.3328,1.313,1.3137,1.2881,1.2619,1.2118,1.1871,1.1699,1.1527,1.144,1.1527,1.1699,1.1785,1.2118,1.2363,1.2448,1.2619,1.2705,1.2705,1.2705,1.2705,1.2705,1.2705,1.2705,1.2705,1.2705,1.2705,1.2705,1.2705,1.2705,1.2705,1.2705,1.2534,1.2192,1.1763,1.1413,1.1607,1.144,1.1354,1.1354,1.1348,1.1267,1.1273,1.1294,1.1305,1.1267,1.1289,1.1332,1.1266,1.1131,1.0932,1.0947,1.0886,1.086,1.0666,1.0646,1.0559,1.0467,1.0386,1.0212,1.0038,0.9951,0.9956,0.9951,0.9951,0.9864,0.9868,0.9777,0.9777,0.9777,0.9726,0.9818,1.0007,1.004,1.0227,1.0428,1.045,1.0369,1.048,1.0493,1.0436,1.0369,1.0245,1.0236,1.0288,1.0314,1.0314,1.0314,1.0314,1.0314,1.0413,1.0538,1.0803,1.0751,1.0645,1.0799,1.0975,1.1263,1.1557,1.2056,1.2611,1.2837,1.3119,1.3419,1.3492,1.3492,1.3419,1.3266,1.3119,1.3046,1.2826,1.301,1.3321,1.3312,1.3352,1.3536,1.3483,1.3398,1.3052,1.2881,1.2625,1.2209,1.1957,1.1785,1.1699,1.178,1.1952,1.2032,1.2277,1.2448,1.2534,1.2619,1.2705,1.2705,1.2705,1.2711,1.2711,1.2717,1.2723,1.2717,1.2705,1.2705,1.2705,1.2705,1.2705,1.2705,1.2705,1.2619,1.2534,1.2192,1.194,1.1871,1.1705,1.1527,1.144,1.144,1.1267,1.1289,1.1472,1.1548,1.1553,1.1677,1.172,1.1725,1.1657,1.1657,1.1536,1.1326,1.1201,1.1066,1.0937,1.0829,1.0738,1.0651,1.0487,1.0313,1.0125,1.013,1.0038,0.9951,0.9951,0.9951,0.9951,0.9951,0.9951,1.0008,1.0078,1.0229,1.0431,1.0641,1.0733,1.0849,1.0844,1.0867,1.089,1.0801,1.0801,1.0779,1.0779,1.0801,1.0609,1.0511,1.0507,1.06,1.0632,1.0775,1.1034,1.1318,1.1003,1.0778,1.0934,1.1156,1.1443,1.1744,1.2247,1.2879,1.2893,1.3119,1.3419,1.3492,1.3492,1.3492,1.3346,1.3273,1.3273,1.3046,1.3222,1.3404,1.3516,1.3561,1.3662,1.3652,1.3568,1.3228,1.3058,1.2887,1.2625,1.2289,1.2123,1.2043,1.2037,1.2203,1.2363,1.2448,1.2534,1.2625,1.2795,1.2831,1.2843,1.2904,1.2928,1.2928,1.2904,1.2874,1.2819,1.2819,1.2819,1.2831,1.2837,1.288,1.2952,1.2988,1.2982,1.2901,1.2732,1.2639,1.2412,1.2088,1.1819,1.1716,1.1614,1.1592,1.1585,1.1704,1.1785,1.1785,1.1892,1.1995,1.2038,1.2021,1.1984,1.1925,1.1865,1.1732,1.1584,1.1384,1.1273,1.1149,1.104,1.0881,1.0696,1.04,1.0212,1.0125,1.0038,1.0038,1.0038,1.0038,1.0038,1.0038,1.0067,1.0186,1.0481,1.0631,1.0853,1.112,1.1239,1.1194,1.11,1.1096,1.1096,1.1096,1.1194,1.1096,1.0998,1.0801,1.0609,1.082,1.0941,1.109,1.1174,1.1461,1.1639,1.1185,1.1087,1.1129,1.1296,1.1456,1.1744,1.226,1.2893,1.29,1.3127,1.3492,1.3492,1.3492,1.3492,1.3492,1.3419,1.3419,1.3266,1.3354,1.3494,1.3535,1.368,1.3756,1.3748,1.3717,1.3561,1.3313,1.3143,1.2973,1.2796,1.2375,1.2123,1.2289,1.2369,1.2448,1.2534,1.2655,1.2795,1.2934,1.3061,1.3139,1.3254,1.3381,1.3399,1.3411,1.335,1.3115,1.3091,1.3091,1.3097,1.3091,1.3163,1.3278,1.332,1.3314,1.3314,1.3237,1.3231,1.3004,1.251,1.2106,1.195,1.1992,1.192,1.2046,1.2059,1.2021,1.2038,1.2134,1.2232,1.2205,1.2059,1.2161,1.2151,1.2129,1.2059,1.1919,1.1951,1.1748,1.1631,1.1473,1.1342,1.1077,1.0885,1.0502,1.04,1.0212,1.0207,1.0212,1.0212,1.0125,1.0125,1.0038,1.021,1.0557,1.0772,1.099,1.1288,1.1463,1.1292,1.1198,1.1194,1.1292,1.1194,1.1194,1.1194,1.1212,1.1053,1.0982,1.1171,1.1302,1.1311,1.1484,1.1695,1.1854,1.1373,1.1234,1.165,1.1729,1.16,1.2223,1.2642,1.2879,1.3046,1.3266,1.3492,1.3492,1.3492,1.3492,1.3492,1.3492,1.3492,1.3419,1.3467,1.3511,1.36,1.3673,1.3837,1.3837,1.3805,1.3685,1.3476,1.3398,1.3222,1.3137,1.3052,1.2881,1.2711,1.2619,1.2613,1.2631,1.2795,1.2952,1.3079,1.3181,1.3375,1.3435,1.3513,1.3513,1.3513,1.3477,1.3381,1.3369,1.3369,1.3363,1.3363,1.3447,1.3538,1.3556,1.3562,1.3562,1.3568,1.3568,1.3453,1.2968,1.2589,1.2121,1.2125,1.2326,1.2476,1.2368,1.2258,1.2312,1.2393,1.242,1.2479,1.249,1.2511,1.2457,1.2382,1.2301,1.2248,1.2292,1.2091,1.1951,1.1914,1.1796,1.16,1.1405,1.0984,1.0676,1.0482,1.0381,1.0381,1.0386,1.0299,1.0323,1.0333,1.0509,1.0856,1.1003,1.1204,1.1446,1.159,1.159,1.1492,1.1492,1.1487,1.1292,1.1301,1.1311,1.1349,1.1331,1.1368,1.1378,1.1472,1.16,1.1798,1.203,1.225,1.156,1.1508,1.2049,1.2112,1.1923,1.2569,1.2973,1.3046,1.3119,1.3346,1.3492,1.3492,1.3492,1.3492,1.3492,1.3492,1.3492,1.3506,1.3557,1.3561,1.3589,1.3698,1.3784,1.3824,1.385,1.3767,1.3717,1.3568,1.3483,1.3476,1.3307,1.3222,1.3045,1.296,1.279,1.2723,1.2843,1.3067,1.3236,1.3369,1.3598,1.3731,1.3779,1.3785,1.3797,1.3719,1.367,1.3628,1.3628,1.3634,1.364,1.3676,1.3725,1.3749,1.3749,1.3743,1.3743,1.3743,1.3632,1.3391,1.31,1.2728,1.267,1.2744,1.2757,1.2703,1.2696,1.2527,1.2662,1.2759,1.2759,1.2705,1.2684,1.2614,1.2581,1.2517,1.249,1.2447,1.2307,1.2178,1.2156,1.2124,1.1973,1.1743,1.1279,1.0937,1.0656,1.0554,1.0554,1.0559,1.0559,1.0599,1.0649,1.0969,1.1237,1.1316,1.1497,1.1692,1.1785,1.1785,1.1785,1.1688,1.1688,1.1688,1.16,1.1526,1.1608,1.172,1.1673,1.1501,1.1763,1.2062,1.2355,1.2675,1.2607,1.1809,1.1821,1.2241,1.2308,1.2114,1.2641,1.3046,1.3127,1.32,1.3346,1.3499,1.3492,1.3492,1.3492,1.3492,1.3492,1.3492,1.3492,1.3528,1.3535,1.3561,1.3575,1.3698,1.3777,1.3947,1.3878,1.3915,1.3906,1.3737,1.373,1.3568,1.3483,1.3392,1.3228,1.3052,1.279,1.285,1.3127,1.3375,1.3604,1.3882,1.4081,1.4141,1.4153,1.4141,1.4039,1.3936,1.39,1.39,1.39,1.39,1.3978,1.4129,1.4159,1.4177,1.4189,1.4208,1.4226,1.4232,1.3791,1.354,1.3386,1.3327,1.3302,1.3019,1.292,1.3,1.2769,1.2743,1.2759,1.2759,1.2759,1.2759,1.2748,1.2705,1.2684,1.2651,1.2635,1.2495,1.2514,1.2388,1.2334,1.2259,1.1989,1.1595,1.1232,1.0881,1.0743,1.0865,1.0886,1.0994,1.1056,1.1139,1.1382,1.1636,1.1614,1.1793,1.1981,1.2078,1.2078,1.2078,1.198,1.198,1.1986,1.1953,1.1821,1.2019,1.2229,1.2263,1.2221,1.2392,1.2689,1.2979,1.3176,1.3063,1.1926,1.1847,1.2216,1.2328,1.2395,1.2999,1.3273,1.32,1.3346,1.3419,1.3499,1.3492,1.3492,1.3492,1.3492,1.3492,1.3492,1.3492,1.3492,1.3514,1.3557,1.3568,1.3668,1.3839,1.409,1.4158,1.4234,1.4321,1.4405,1.4237,1.4146,1.4062,1.373,1.3483,1.3307,1.3174,1.3343,1.3582,1.3791,1.3897,1.4105,1.4244,1.4298,1.4298,1.4298,1.4244,1.4147,1.4135,1.4135,1.4135,1.4129,1.4195,1.4292,1.4298,1.4298,1.4298,1.4298,1.4298,1.4286,1.4105,1.4081,1.3945,1.3868,1.3814,1.3738,1.3249,1.3152,1.2953,1.2861,1.2856,1.2759,1.2759,1.2759,1.2759,1.2737,1.2743,1.2727,1.2732,1.2678,1.2753,1.2726,1.2791,1.2731,1.2653,1.2275,1.1994,1.1652,1.1435,1.143,1.1425,1.1441,1.1504,1.161,1.1838,1.1957,1.2015,1.2146,1.2308,1.2467,1.2467,1.237,1.2273,1.2201,1.2119,1.2226,1.2238,1.2496,1.2669,1.2919,1.3007,1.3098,1.3046,1.3249,1.33,1.3192,1.2112,1.2034,1.2225,1.249,1.2652,1.3097,1.3302,1.3324,1.3419,1.3492,1.3492,1.3492,1.3492,1.3492,1.3492,1.3492,1.3492,1.3492,1.3492,1.3492,1.3492,1.355,1.364,1.3923,1.4066,1.4282,1.4517,1.465,1.465,1.465,1.4566,1.4398,1.4237,1.3984,1.3815,1.3619,1.3515,1.3793,1.3898,1.4062,1.4221,1.4321,1.4394,1.4298,1.4298,1.4286,1.4298,1.4298,1.4298,1.4298,1.4298,1.4298,1.4298,1.4298,1.4298,1.4298,1.4298,1.4298,1.4286,1.4286,1.4244,1.4268,1.4112,1.413,1.4148,1.3744,1.3346,1.3152,1.2958,1.2861,1.2861,1.2861,1.2759,1.2759,1.2764,1.2764,1.2759,1.2759,1.2856,1.2953,1.3033,1.3109,1.3317,1.3205,1.3014,1.2834,1.2567,1.2337,1.2114,1.2007,1.2013,1.2068,1.208,1.2199,1.2371,1.24,1.2528,1.2743,1.2764,1.2764,1.2667,1.257,1.2412,1.2475,1.26,1.2666,1.291,1.3127,1.3461,1.3602,1.3675,1.3614,1.364,1.3532,1.3532,1.2297,1.229,1.2465,1.2591,1.2803,1.2954,1.3206,1.3492,1.3492,1.3492,1.3492,1.3492,1.3492,1.3492,1.3492,1.3492,1.3492,1.3492,1.3492,1.3492,1.3492,1.3536,1.3666,1.3913,1.4116,1.4287,1.454,1.4908,1.4734,1.4824,1.4741,1.4741,1.4573,1.4398,1.4146,1.3932,1.3754,1.395,1.4135,1.4214,1.4334,1.4576,1.4567,1.4496,1.44,1.4394,1.4298,1.4298,1.4298,1.4298,1.4298,1.4298,1.4298,1.4298,1.4298,1.4298,1.4298,1.4298,1.4298,1.4298,1.4298,1.4298,1.4298,1.4322,1.4232,1.3937,1.3642,1.3346,1.3147,1.3055,1.2958,1.2856,1.2851,1.2856,1.2861,1.2764,1.2759,1.2856,1.2953,1.305,1.3147,1.329,1.3567,1.3651,1.3588,1.3518,1.3344,1.3345,1.3021,1.2711,1.2631,1.247,1.2592,1.2664,1.2707,1.2805,1.286,1.3055,1.2867,1.2867,1.277,1.2845,1.2854,1.2851,1.302,1.3217,1.3461,1.3694,1.3987,1.4083,1.3975,1.3975,1.3862,1.3975,1.3975,1.2436,1.2313,1.2352,1.2457,1.2636,1.3058,1.3334,1.347,1.3492,1.3492,1.3492,1.3492,1.3492,1.3492,1.3492,1.3492,1.3492,1.3492,1.3492,1.3492,1.3492,1.3492,1.3718,1.4037,1.4299,1.4598,1.4866,1.5173,1.5166,1.5082,1.4999,1.4999,1.4824,1.4734,1.4566,1.4223,1.417,1.4141,1.4333,1.4436,1.4545,1.4823,1.4734,1.4688,1.4592,1.4496,1.4394,1.4394,1.4298,1.4298,1.4298,1.4298,1.4298,1.4298,1.4298,1.4298,1.4298,1.4298,1.4298,1.4298,1.4298,1.4298,1.4298,1.4298,1.4214,1.4124,1.3829,1.3636,1.3443,1.3346,1.3152,1.3152,1.305,1.2953,1.2958,1.2861,1.2861,1.2856,1.2953,1.3147,1.334,1.3624,1.3919,1.4004,1.4046,1.4064,1.4124,1.4111,1.392,1.359,1.3252,1.3082,1.3068,1.3227,1.3205,1.3199,1.3318,1.3346,1.3186,1.3166,1.3276,1.327,1.3257,1.3281,1.3427,1.3685,1.4003,1.4159,1.4191,1.4196,1.4083,1.4191,1.4196,1.4196,1.4196,1.2498,1.2436,1.2436,1.25,1.2687,1.3006,1.3222,1.3275,1.3447,1.3492,1.3492,1.3492,1.3492,1.3492,1.3492,1.3492,1.3492,1.3492,1.3492,1.3492,1.3492,1.3492,1.3711,1.4114,1.4406,1.4699,1.5035,1.5347,1.5347,1.534,1.5173,1.5173,1.4999,1.4908,1.4824,1.4755,1.4572,1.4495,1.452,1.4643,1.4838,1.5049,1.5026,1.4885,1.4885,1.4694,1.4496,1.449,1.4394,1.4298,1.4298,1.4298,1.4298,1.4298,1.4298,1.4298,1.4298,1.4298,1.4298,1.4298,1.4298,1.4298,1.4298,1.4298,1.4298,1.4208,1.4016,1.3829,1.3732,1.3636,1.3545,1.3352,1.3249,1.3152,1.3055,1.2958,1.2861,1.2759,1.305,1.334,1.363,1.401,1.4202,1.44,1.4496,1.4484,1.458,1.4644,1.4582,1.4413,1.398,1.3791,1.3677,1.3686,1.3732,1.3665,1.3619,1.3659,1.3532,1.3627,1.3674,1.3802,1.379,1.3784,1.3898,1.4109,1.4153,1.4169,1.4196,1.4196,1.4196,1.4196,1.4196,1.4196,1.4196,1.2621,1.256,1.2629,1.2672,1.2804,1.294,1.2967,1.3028,1.3323,1.3476,1.3447,1.3426,1.3411,1.3389,1.3448,1.3484,1.3492,1.3492,1.3492,1.3492,1.3492,1.3492,1.3682,1.4121,1.4414,1.4684,1.5028,1.5431,1.5431,1.5347,1.5347,1.5431,1.5347,1.5257,1.509,1.5006,1.4881,1.4803,1.4831,1.4917,1.4929,1.5173,1.5432,1.5172,1.5077,1.4981,1.479,1.4688,1.4586,1.4394,1.4298,1.4298,1.4298,1.4298,1.4298,1.4298,1.4298,1.4298,1.4298,1.4298,1.4298,1.4298,1.4298,1.4298,1.4298,1.4298,1.4112,1.4016,1.3925,1.3925,1.3835,1.3647,1.3545,1.3352,1.3249,1.3055,1.2958,1.2958,1.3152,1.3443,1.3823,1.4202,1.4298,1.4394,1.4592,1.4688,1.4975,1.5077,1.5166,1.5038,1.474,1.4435,1.437,1.4316,1.4148,1.4098,1.401,1.3981,1.408,1.4059,1.4253,1.4356,1.4333,1.4328,1.4311,1.4287,1.4288,1.4299,1.4191,1.4196,1.4196,1.4196,1.4196,1.4196,1.4196,1.2683,1.2621,1.2621,1.2615,1.2672,1.2804,1.2879,1.2852,1.3051,1.3104,1.3011,1.3072,1.314,1.3177,1.3411,1.3492,1.3492,1.3492,1.3492,1.3492,1.3492,1.3492,1.3623,1.4136,1.4421,1.4677,1.5028,1.5431,1.5431,1.5431,1.5431,1.5431,1.5431,1.5347,1.5264,1.5173,1.5097,1.5027,1.5063,1.5177,1.5149,1.5349,1.5571,1.5448,1.535,1.5267,1.507,1.479,1.4688,1.4592,1.4394,1.4298,1.4298,1.4298,1.4298,1.4298,1.4298,1.4298,1.4298,1.4298,1.4298,1.4298,1.4298,1.4298,1.4298,1.4298,1.4298,1.4208,1.4208,1.4214,1.4124,1.3937,1.3841,1.3642,1.3448,1.3249,1.305,1.3152,1.3346,1.3636,1.4016,1.4202,1.4298,1.449,1.4688,1.4879,1.5255,1.5452,1.5452,1.5439,1.5343,1.5051,1.4962,1.4808,1.466,1.468,1.4624,1.4781,1.4807,1.4916,1.4935,1.4839,1.4832,1.4752,1.4685,1.4606,1.4401,1.4293,1.4293,1.4299,1.4196,1.4196,1.4196,1.4196,1.4196,1.2744,1.2683,1.2629,1.2621,1.2599,1.2649,1.2727,1.2703,1.2732,1.268,1.2671,1.296,1.3079,1.3053,1.3345,1.3484,1.3484,1.3492,1.3492,1.3492,1.3492,1.3492,1.3762,1.4143,1.4362,1.4633,1.5116,1.5431,1.5431,1.5431,1.5431,1.5431,1.5431,1.5431,1.5431,1.5257,1.5257,1.5271,1.529,1.5347,1.5415,1.5687,1.5695,1.5618,1.5651,1.5609,1.5261,1.5077,1.479,1.4688,1.4394,1.4298,1.4298,1.4298,1.4298,1.4298,1.4298,1.4298,1.4298,1.4298,1.4298,1.4298,1.4298,1.4298,1.4298,1.4298,1.4298,1.4208,1.4208,1.4208,1.4208,1.4118,1.3931,1.3835,1.3636,1.3539,1.3346,1.3346,1.3539,1.3732,1.4112,1.4298,1.4394,1.4694,1.4885,1.4981,1.5356,1.5547,1.5642,1.5737,1.5743,1.5648,1.5465,1.5294,1.5124,1.525,1.5388,1.5457,1.5555,1.5676,1.5799,1.5535,1.5351,1.5244,1.5137,1.4821,1.4719,1.4504,1.4396,1.4396,1.4293,1.4196,1.4191,1.4191,1.4196,1.2805,1.2736,1.2629,1.2621,1.2621,1.2629,1.2637,1.2575,1.2452,1.2328,1.2406,1.2967,1.3063,1.3123,1.3272,1.3404,1.3484,1.3484,1.3492,1.3492,1.3492,1.3492,1.3726,1.4121,1.445,1.4794,1.5211,1.5372,1.5431,1.5431,1.5431,1.5431,1.5431,1.5423,1.5423,1.5423,1.5423,1.5506,1.5518,1.5515,1.5634,1.5906,1.591,1.5934,1.5946,1.6001,1.5642,1.5261,1.5077,1.4688,1.449,1.4394,1.4298,1.4298,1.4298,1.4298,1.4298,1.4298,1.4298,1.4298,1.4298,1.4298,1.4298,1.4298,1.4298,1.4298,1.4298,1.4298,1.4298,1.4298,1.4298,1.4298,1.4112,1.4022,1.3925,1.3732,1.3636,1.3545,1.3738,1.3931,1.4118,1.4304,1.4496,1.479,1.4987,1.5172,1.5363,1.5642,1.5832,1.5933,1.5933,1.5933,1.5933,1.58,1.5719,1.5907,1.6043,1.6233,1.6343,1.6463,1.6535,1.6168,1.5885,1.5785,1.5571,1.525,1.5041,1.4826,1.4719,1.4713,1.4504,1.4401,1.4299,1.4299,1.4191,1.2797,1.2629,1.2621,1.2621,1.2621,1.2621,1.2621,1.2621,1.256,1.2428,1.2422,1.2677,1.289,1.2847,1.3027,1.3206,1.3564,1.3492,1.3492,1.3492,1.3492,1.3492,1.3682,1.4157,1.4728,1.5101,1.5335,1.5394,1.5431,1.5431,1.5431,1.5431,1.5431,1.5506,1.565,1.5658,1.5665,1.5756,1.5839,1.5823,1.5742,1.5922,1.6027,1.6042,1.6147,1.6163,1.5933,1.5642,1.5363,1.4975,1.4592,1.4394,1.4298,1.4298,1.4298,1.4298,1.4298,1.4298,1.4298,1.4298,1.4298,1.4298,1.4298,1.4298,1.4298,1.4298,1.4298,1.4298,1.4298,1.4298,1.4298,1.4298,1.4208,1.4112,1.4016,1.3823,1.3636,1.3732,1.3835,1.4022,1.4118,1.4304,1.4298,1.4592,1.4885,1.5077,1.5356,1.5547,1.5832,1.6028,1.6224,1.6218,1.6305,1.6587,1.6704,1.6711,1.682,1.6945,1.6996,1.7023,1.7009,1.6711,1.6418,1.6318,1.5998,1.5678,1.547,1.5256,1.5041,1.4928,1.4708,1.4498,1.4504,1.4401,1.4401]}]]